Wetterdaten: Dienstag, 16.04.2019
Datum Zeit Temp. A. Pool Temp. Temp. 5cm Feuchte A. Luftdruck Regen Wind Richtung Richtung Sonnenschein ET UV Solar Taupunkt Windchill Windben Empfang
16.04.2019 00:00 5,9 C 0,0 C 2,2 C 65 % 1019,2 hPa 0,0 l/m 8,4 km/h (2 Bft) O-SO 111 0 min 0,000 mm 0,0 UV-I 0 W/m -0,2 C 4,2 C 11,3 km/h (2 Bft) 90,57 %
16.04.2019 00:02 5,9 C 0,0 C 2,2 C 65 % 1019,2 hPa 0,0 l/m 8,1 km/h (2 Bft) O 94 0 min 0,000 mm 0,0 UV-I 0 W/m -0,2 C 4,5 C 12,9 km/h (3 Bft) 88,57 %
16.04.2019 00:04 6,0 C 0,0 C 2,2 C 65 % 1019,2 hPa 0,0 l/m 10,1 km/h (2 Bft) O 96 0 min 0,000 mm 0,0 UV-I 0 W/m -0,1 C 3,1 C 12,9 km/h (3 Bft) 87,50 %
16.04.2019 00:06 6,1 C 0,0 C 2,8 C 65 % 1019,1 hPa 0,0 l/m 10,6 km/h (2 Bft) O 94 0 min 0,000 mm 0,0 UV-I 0 W/m 0,0 C 2,9 C 14,5 km/h (3 Bft) 89,36 %
16.04.2019 00:08 6,1 C 0,0 C 2,8 C 64 % 1019,1 hPa 0,0 l/m 11,6 km/h (2 Bft) O 92 0 min 0,000 mm 0,0 UV-I 0 W/m -0,2 C 2,3 C 19,3 km/h (3 Bft) 92,45 %
16.04.2019 00:10 6,1 C 0,0 C 2,8 C 64 % 1019,1 hPa 0,0 l/m 12,0 km/h (2 Bft) O 90 0 min 0,000 mm 0,0 UV-I 0 W/m -0,2 C 2,0 C 16,1 km/h (3 Bft) 87,23 %
16.04.2019 00:12 6,1 C 0,0 C 2,8 C 64 % 1019,2 hPa 0,0 l/m 12,2 km/h (2 Bft) O-SO 107 0 min 0,000 mm 0,0 UV-I 0 W/m -0,2 C 1,9 C 14,5 km/h (3 Bft) 95,12 %
16.04.2019 00:14 6,1 C 0,0 C 2,2 C 64 % 1019,1 hPa 0,0 l/m 12,1 km/h (2 Bft) O 96 0 min 0,000 mm 0,0 UV-I 0 W/m -0,2 C 2,0 C 16,1 km/h (3 Bft) 94,12 %
16.04.2019 00:16 6,2 C 0,0 C 2,8 C 63 % 1019,2 hPa 0,0 l/m 10,8 km/h (2 Bft) O-SO 109 0 min 0,000 mm 0,0 UV-I 0 W/m -0,3 C 2,9 C 19,3 km/h (3 Bft) 95,24 %
16.04.2019 00:18 6,2 C 0,0 C 2,8 C 62 % 1019,2 hPa 0,0 l/m 11,4 km/h (2 Bft) O-SO 105 0 min 0,000 mm 0,0 UV-I 0 W/m -0,5 C 2,5 C 17,7 km/h (3 Bft) 95,45 %
16.04.2019 00:20 6,2 C 0,0 C 2,8 C 62 % 1019,2 hPa 0,0 l/m 11,9 km/h (2 Bft) O 101 0 min 0,000 mm 0,0 UV-I 0 W/m -0,5 C 2,2 C 16,1 km/h (3 Bft) 94,34 %
16.04.2019 00:22 6,3 C 0,0 C 2,8 C 62 % 1019,1 hPa 0,0 l/m 11,1 km/h (2 Bft) O-SO 107 0 min 0,000 mm 0,0 UV-I 0 W/m -0,4 C 2,8 C 16,1 km/h (3 Bft) 91,49 %
16.04.2019 00:24 6,2 C 0,0 C 3,3 C 62 % 1019,1 hPa 0,0 l/m 13,2 km/h (3 Bft) O-SO 102 0 min 0,000 mm 0,0 UV-I 0 W/m -0,5 C 1,5 C 19,3 km/h (3 Bft) 93,62 %
16.04.2019 00:26 6,2 C 0,0 C 3,3 C 62 % 1019,0 hPa 0,0 l/m 12,5 km/h (3 Bft) O 101 0 min 0,000 mm 0,0 UV-I 0 W/m -0,5 C 1,8 C 17,7 km/h (3 Bft) 96,15 %
16.04.2019 00:28 6,1 C 0,0 C 3,3 C 62 % 1019,0 hPa 0,0 l/m 12,9 km/h (3 Bft) O 100 0 min 0,000 mm 0,0 UV-I 0 W/m -0,6 C 1,5 C 17,7 km/h (3 Bft) 97,18 %
16.04.2019 00:30 6,1 C 0,0 C 3,3 C 62 % 1019,0 hPa 0,0 l/m 13,3 km/h (3 Bft) O 93 0 min 0,000 mm 0,0 UV-I 0 W/m -0,6 C 1,3 C 17,7 km/h (3 Bft) 97,56 %
16.04.2019 00:32 5,9 C 0,0 C 3,3 C 63 % 1019,0 hPa 0,0 l/m 13,9 km/h (3 Bft) O 101 0 min 0,000 mm 0,0 UV-I 0 W/m -0,6 C 0,7 C 17,7 km/h (3 Bft) 96,43 %
16.04.2019 00:34 5,8 C 0,0 C 3,3 C 63 % 1019,0 hPa 0,0 l/m 12,9 km/h (3 Bft) O-SO 103 0 min 0,000 mm 0,0 UV-I 0 W/m -0,7 C 1,2 C 16,1 km/h (3 Bft) 97,87 %
16.04.2019 00:36 5,7 C 0,0 C 3,3 C 64 % 1019,0 hPa 0,0 l/m 12,0 km/h (2 Bft) O 92 0 min 0,000 mm 0,0 UV-I 0 W/m -0,6 C 1,6 C 16,1 km/h (3 Bft) 93,62 %
16.04.2019 00:38 5,7 C 0,0 C 3,3 C 63 % 1019,1 hPa 0,0 l/m 10,8 km/h (2 Bft) O-NO 78 0 min 0,000 mm 0,0 UV-I 0 W/m -0,8 C 2,3 C 16,1 km/h (3 Bft) 97,56 %
16.04.2019 00:40 5,7 C 0,0 C 3,3 C 64 % 1019,0 hPa 0,0 l/m 12,7 km/h (3 Bft) O-NO 66 0 min 0,000 mm 0,0 UV-I 0 W/m -0,6 C 1,2 C 17,7 km/h (3 Bft) 97,87 %
16.04.2019 00:42 5,7 C 0,0 C 3,3 C 64 % 1019,0 hPa 0,0 l/m 9,9 km/h (2 Bft) O 82 0 min 0,000 mm 0,0 UV-I 0 W/m -0,6 C 2,9 C 14,5 km/h (3 Bft) 98,00 %
16.04.2019 00:44 5,7 C 0,0 C 3,3 C 63 % 1019,0 hPa 0,0 l/m 11,4 km/h (2 Bft) O 86 0 min 0,000 mm 0,0 UV-I 0 W/m -0,8 C 1,9 C 16,1 km/h (3 Bft) 100,00 %
16.04.2019 00:46 5,8 C 0,0 C 3,3 C 63 % 1019,0 hPa 0,0 l/m 14,6 km/h (3 Bft) O 92 0 min 0,000 mm 0,0 UV-I 0 W/m -0,7 C 0,2 C 20,9 km/h (4 Bft) 94,74 %
16.04.2019 00:48 5,8 C 0,0 C 3,3 C 62 % 1018,9 hPa 0,0 l/m 14,6 km/h (3 Bft) O 93 0 min 0,000 mm 0,0 UV-I 0 W/m -0,9 C 0,2 C 22,5 km/h (4 Bft) 100,00 %
16.04.2019 00:50 5,9 C 0,0 C 3,3 C 62 % 1019,0 hPa 0,0 l/m 13,6 km/h (3 Bft) O 90 0 min 0,000 mm 0,0 UV-I 0 W/m -0,8 C 0,9 C 20,9 km/h (4 Bft) 98,00 %
16.04.2019 00:52 5,9 C 0,0 C 3,3 C 61 % 1018,9 hPa 0,0 l/m 15,4 km/h (3 Bft) O 101 0 min 0,000 mm 0,0 UV-I 0 W/m -1,0 C -0,0 C 22,5 km/h (4 Bft) 100,00 %
16.04.2019 00:54 6,0 C 0,0 C 3,9 C 61 % 1018,9 hPa 0,0 l/m 14,6 km/h (3 Bft) O-NO 67 0 min 0,000 mm 0,0 UV-I 0 W/m -0,9 C 0,5 C 19,3 km/h (3 Bft) 98,00 %
16.04.2019 00:56 6,1 C 0,0 C 3,9 C 61 % 1018,9 hPa 0,0 l/m 15,3 km/h (3 Bft) O-NO 75 0 min 0,000 mm 0,0 UV-I 0 W/m -0,8 C 0,3 C 22,5 km/h (4 Bft) 100,00 %
16.04.2019 00:58 6,1 C 0,0 C 3,9 C 61 % 1018,9 hPa 0,0 l/m 17,2 km/h (3 Bft) O 100 0 min 0,000 mm 0,0 UV-I 0 W/m -0,8 C -0,6 C 24,1 km/h (4 Bft) 100,00 %
16.04.2019 01:00 6,1 C 0,0 C 3,9 C 61 % 1018,9 hPa 0,0 l/m 15,6 km/h (3 Bft) O 94 0 min 0,051 mm 0,0 UV-I 0 W/m -0,8 C 0,1 C 22,5 km/h (4 Bft) 100,00 %
16.04.2019 01:02 6,1 C 0,0 C 3,9 C 61 % 1018,9 hPa 0,0 l/m 15,3 km/h (3 Bft) O 92 0 min 0,000 mm 0,0 UV-I 0 W/m -0,8 C 0,3 C 20,9 km/h (4 Bft) 98,21 %
16.04.2019 01:04 6,0 C 0,0 C 3,9 C 61 % 1018,8 hPa 0,0 l/m 15,3 km/h (3 Bft) O-NO 74 0 min 0,000 mm 0,0 UV-I 0 W/m -0,9 C 0,1 C 19,3 km/h (3 Bft) 98,00 %
16.04.2019 01:06 6,0 C 0,0 C 3,9 C 61 % 1018,9 hPa 0,0 l/m 15,1 km/h (3 Bft) O-NO 78 0 min 0,000 mm 0,0 UV-I 0 W/m -0,9 C 0,2 C 19,3 km/h (3 Bft) 96,88 %
16.04.2019 01:08 5,9 C 0,0 C 3,9 C 61 % 1018,9 hPa 0,0 l/m 15,0 km/h (3 Bft) O-NO 62 0 min 0,000 mm 0,0 UV-I 0 W/m -1,0 C 0,2 C 19,3 km/h (3 Bft) 96,00 %
16.04.2019 01:10 5,9 C 0,0 C 3,9 C 62 % 1018,9 hPa 0,0 l/m 15,5 km/h (3 Bft) O-NO 57 0 min 0,000 mm 0,0 UV-I 0 W/m -0,8 C -0,1 C 19,3 km/h (3 Bft) 97,87 %
16.04.2019 01:12 5,8 C 0,0 C 3,9 C 62 % 1018,9 hPa 0,0 l/m 13,8 km/h (3 Bft) N-NO 31 0 min 0,000 mm 0,0 UV-I 0 W/m -0,9 C 0,7 C 17,7 km/h (3 Bft) 98,00 %
16.04.2019 01:14 5,7 C 0,0 C 3,9 C 62 % 1018,8 hPa 0,0 l/m 13,9 km/h (3 Bft) O 82 0 min 0,000 mm 0,0 UV-I 0 W/m -1,0 C 0,5 C 17,7 km/h (3 Bft) 96,00 %
16.04.2019 01:16 5,7 C 0,0 C 3,9 C 63 % 1018,8 hPa 0,0 l/m 14,0 km/h (3 Bft) NO 53 0 min 0,000 mm 0,0 UV-I 0 W/m -0,8 C 0,4 C 17,7 km/h (3 Bft) 98,00 %
16.04.2019 01:18 5,6 C 0,0 C 3,3 C 63 % 1018,8 hPa 0,0 l/m 14,2 km/h (3 Bft) O 84 0 min 0,000 mm 0,0 UV-I 0 W/m -0,9 C 0,2 C 19,3 km/h (3 Bft) 95,12 %
16.04.2019 01:20 5,6 C 0,0 C 3,3 C 63 % 1018,8 hPa 0,0 l/m 14,5 km/h (3 Bft) O-NO 78 0 min 0,000 mm 0,0 UV-I 0 W/m -0,9 C 0,1 C 19,3 km/h (3 Bft) 98,00 %
16.04.2019 01:22 5,6 C 0,0 C 3,3 C 63 % 1018,8 hPa 0,0 l/m 13,6 km/h (3 Bft) O-NO 64 0 min 0,000 mm 0,0 UV-I 0 W/m -0,9 C 0,5 C 17,7 km/h (3 Bft) 96,00 %
16.04.2019 01:24 5,5 C 0,0 C 3,3 C 63 % 1018,8 hPa 0,0 l/m 13,6 km/h (3 Bft) O-NO 76 0 min 0,000 mm 0,0 UV-I 0 W/m -1,0 C 0,4 C 17,7 km/h (3 Bft) 100,00 %
16.04.2019 01:26 5,5 C 0,0 C 3,3 C 63 % 1018,8 hPa 0,0 l/m 12,8 km/h (3 Bft) O-NO 74 0 min 0,000 mm 0,0 UV-I 0 W/m -1,0 C 0,9 C 19,3 km/h (3 Bft) 96,23 %
16.04.2019 01:28 5,5 C 0,0 C 3,3 C 63 % 1018,7 hPa 0,0 l/m 14,5 km/h (3 Bft) O-NO 71 0 min 0,000 mm 0,0 UV-I 0 W/m -1,0 C -0,1 C 19,3 km/h (3 Bft) 100,00 %
16.04.2019 01:30 5,5 C 0,0 C 3,3 C 62 % 1018,7 hPa 0,0 l/m 14,0 km/h (3 Bft) O-NO 77 0 min 0,000 mm 0,0 UV-I 0 W/m -1,2 C 0,2 C 22,5 km/h (4 Bft) 100,00 %
16.04.2019 01:32 5,6 C 0,0 C 3,3 C 62 % 1018,8 hPa 0,0 l/m 12,8 km/h (3 Bft) O 95 0 min 0,000 mm 0,0 UV-I 0 W/m -1,1 C 1,0 C 17,7 km/h (3 Bft) 97,44 %
16.04.2019 01:34 5,6 C 0,0 C 3,3 C 62 % 1018,7 hPa 0,0 l/m 13,4 km/h (3 Bft) O-NO 69 0 min 0,000 mm 0,0 UV-I 0 W/m -1,1 C 0,6 C 17,7 km/h (3 Bft) 100,00 %
16.04.2019 01:36 5,6 C 0,0 C 3,3 C 62 % 1018,7 hPa 0,0 l/m 14,3 km/h (3 Bft) O-NO 78 0 min 0,000 mm 0,0 UV-I 0 W/m -1,1 C 0,2 C 17,7 km/h (3 Bft) 97,87 %
16.04.2019 01:38 5,5 C 0,0 C 3,3 C 62 % 1018,7 hPa 0,0 l/m 14,9 km/h (3 Bft) O-NO 67 0 min 0,000 mm 0,0 UV-I 0 W/m -1,2 C -0,3 C 20,9 km/h (4 Bft) 100,00 %
16.04.2019 01:40 5,5 C 0,0 C 3,3 C 62 % 1018,7 hPa 0,0 l/m 16,5 km/h (3 Bft) O 96 0 min 0,000 mm 0,0 UV-I 0 W/m -1,2 C -1,0 C 22,5 km/h (4 Bft) 98,11 %
16.04.2019 01:42 5,6 C 0,0 C 3,3 C 62 % 1018,7 hPa 0,0 l/m 14,5 km/h (3 Bft) O 85 0 min 0,000 mm 0,0 UV-I 0 W/m -1,1 C 0,1 C 22,5 km/h (4 Bft) 100,00 %
16.04.2019 01:44 5,6 C 0,0 C 3,3 C 62 % 1018,6 hPa 0,0 l/m 13,9 km/h (3 Bft) O-NO 57 0 min 0,000 mm 0,0 UV-I 0 W/m -1,1 C 0,4 C 19,3 km/h (3 Bft) 100,00 %
16.04.2019 01:46 5,6 C 0,0 C 3,3 C 61 % 1018,6 hPa 0,0 l/m 15,9 km/h (3 Bft) NO 53 0 min 0,000 mm 0,0 UV-I 0 W/m -1,3 C -0,6 C 20,9 km/h (4 Bft) 98,11 %
16.04.2019 01:48 5,6 C 0,0 C 3,3 C 61 % 1018,6 hPa 0,0 l/m 14,1 km/h (3 Bft) O 82 0 min 0,000 mm 0,0 UV-I 0 W/m -1,3 C 0,3 C 17,7 km/h (3 Bft) 98,11 %
16.04.2019 01:50 5,6 C 0,0 C 3,3 C 61 % 1018,6 hPa 0,0 l/m 15,0 km/h (3 Bft) O-NO 60 0 min 0,000 mm 0,0 UV-I 0 W/m -1,3 C -0,2 C 20,9 km/h (4 Bft) 100,00 %
16.04.2019 01:52 5,6 C 0,0 C 3,3 C 61 % 1018,6 hPa 0,0 l/m 15,2 km/h (3 Bft) NO 55 0 min 0,000 mm 0,0 UV-I 0 W/m -1,3 C -0,3 C 19,3 km/h (3 Bft) 100,00 %
16.04.2019 01:54 5,6 C 0,0 C 3,3 C 61 % 1018,6 hPa 0,0 l/m 14,8 km/h (3 Bft) NO 39 0 min 0,000 mm 0,0 UV-I 0 W/m -1,3 C -0,1 C 17,7 km/h (3 Bft) 96,00 %
16.04.2019 01:56 5,6 C 0,0 C 3,3 C 62 % 1018,5 hPa 0,0 l/m 15,7 km/h (3 Bft) O-NO 74 0 min 0,000 mm 0,0 UV-I 0 W/m -1,1 C -0,5 C 20,9 km/h (4 Bft) 98,00 %
16.04.2019 01:58 5,5 C 0,0 C 3,3 C 62 % 1018,5 hPa 0,0 l/m 13,0 km/h (3 Bft) O-NO 72 0 min 0,000 mm 0,0 UV-I 0 W/m -1,2 C 0,7 C 19,3 km/h (3 Bft) 97,87 %
16.04.2019 02:00 5,4 C 0,0 C 3,3 C 62 % 1018,5 hPa 0,0 l/m 13,4 km/h (3 Bft) O-NO 67 0 min 0,051 mm 0,0 UV-I 0 W/m -1,3 C 0,4 C 16,1 km/h (3 Bft) 92,11 %
16.04.2019 02:02 5,4 C 0,0 C 3,3 C 62 % 1018,5 hPa 0,0 l/m 13,0 km/h (3 Bft) O-NO 65 0 min 0,000 mm 0,0 UV-I 0 W/m -1,3 C 0,6 C 19,3 km/h (3 Bft) 98,21 %
16.04.2019 02:04 5,4 C 0,0 C 3,3 C 62 % 1018,5 hPa 0,0 l/m 13,1 km/h (3 Bft) O-NO 76 0 min 0,000 mm 0,0 UV-I 0 W/m -1,3 C 0,6 C 20,9 km/h (4 Bft) 97,56 %
16.04.2019 02:06 5,4 C 0,0 C 3,3 C 62 % 1018,4 hPa 0,0 l/m 12,9 km/h (3 Bft) O 89 0 min 0,000 mm 0,0 UV-I 0 W/m -1,3 C 0,7 C 19,3 km/h (3 Bft) 97,87 %
16.04.2019 02:08 5,3 C 0,0 C 2,8 C 62 % 1018,4 hPa 0,0 l/m 11,9 km/h (2 Bft) O-NO 77 0 min 0,000 mm 0,0 UV-I 0 W/m -1,4 C 1,2 C 16,1 km/h (3 Bft) 96,00 %
16.04.2019 02:10 5,3 C 0,0 C 2,8 C 62 % 1018,4 hPa 0,0 l/m 14,0 km/h (3 Bft) O-NO 58 0 min 0,000 mm 0,0 UV-I 0 W/m -1,4 C -0,0 C 19,3 km/h (3 Bft) 98,00 %
16.04.2019 02:12 5,3 C 0,0 C 2,8 C 62 % 1018,3 hPa 0,0 l/m 14,6 km/h (3 Bft) O-NO 71 0 min 0,000 mm 0,0 UV-I 0 W/m -1,4 C -0,4 C 19,3 km/h (3 Bft) 97,44 %
16.04.2019 02:14 5,2 C 0,0 C 3,3 C 63 % 1018,3 hPa 0,0 l/m 12,2 km/h (2 Bft) O-NO 71 0 min 0,000 mm 0,0 UV-I 0 W/m -1,3 C 0,9 C 17,7 km/h (3 Bft) 98,08 %
16.04.2019 02:16 5,2 C 0,0 C 3,3 C 63 % 1018,3 hPa 0,0 l/m 13,7 km/h (3 Bft) O-NO 78 0 min 0,000 mm 0,0 UV-I 0 W/m -1,3 C 0,0 C 19,3 km/h (3 Bft) 97,92 %
16.04.2019 02:18 5,2 C 0,0 C 3,3 C 62 % 1018,3 hPa 0,0 l/m 13,1 km/h (3 Bft) O 84 0 min 0,000 mm 0,0 UV-I 0 W/m -1,5 C 0,3 C 17,7 km/h (3 Bft) 98,00 %
16.04.2019 02:20 5,3 C 0,0 C 3,3 C 62 % 1018,2 hPa 0,0 l/m 13,5 km/h (3 Bft) O 80 0 min 0,000 mm 0,0 UV-I 0 W/m -1,4 C 0,2 C 20,9 km/h (4 Bft) 97,37 %
16.04.2019 02:22 5,3 C 0,0 C 3,3 C 62 % 1018,2 hPa 0,0 l/m 14,7 km/h (3 Bft) O-NO 70 0 min 0,000 mm 0,0 UV-I 0 W/m -1,4 C -0,4 C 22,5 km/h (4 Bft) 94,34 %
16.04.2019 02:24 5,3 C 0,0 C 3,3 C 62 % 1018,2 hPa 0,0 l/m 14,4 km/h (3 Bft) O 84 0 min 0,000 mm 0,0 UV-I 0 W/m -1,4 C -0,3 C 17,7 km/h (3 Bft) 96,00 %
16.04.2019 02:26 5,3 C 0,0 C 3,3 C 62 % 1018,1 hPa 0,0 l/m 14,9 km/h (3 Bft) O 100 0 min 0,000 mm 0,0 UV-I 0 W/m -1,4 C -0,5 C 20,9 km/h (4 Bft) 93,18 %
16.04.2019 02:28 5,3 C 0,0 C 3,3 C 62 % 1018,2 hPa 0,0 l/m 14,5 km/h (3 Bft) O 80 0 min 0,000 mm 0,0 UV-I 0 W/m -1,4 C -0,3 C 19,3 km/h (3 Bft) 95,74 %
16.04.2019 02:30 5,3 C 0,0 C 3,3 C 62 % 1018,1 hPa 0,0 l/m 12,2 km/h (2 Bft) O-NO 61 0 min 0,000 mm 0,0 UV-I 0 W/m -1,4 C 1,0 C 17,7 km/h (3 Bft) 97,14 %
16.04.2019 02:32 5,3 C 0,0 C 3,3 C 62 % 1018,1 hPa 0,0 l/m 13,2 km/h (3 Bft) O 96 0 min 0,000 mm 0,0 UV-I 0 W/m -1,4 C 0,4 C 16,1 km/h (3 Bft) 97,87 %
16.04.2019 02:34 5,3 C 0,0 C 2,8 C 62 % 1018,1 hPa 0,0 l/m 13,7 km/h (3 Bft) O-NO 68 0 min 0,000 mm 0,0 UV-I 0 W/m -1,4 C 0,1 C 19,3 km/h (3 Bft) 98,21 %
16.04.2019 02:36 5,3 C 0,0 C 3,3 C 62 % 1018,1 hPa 0,0 l/m 15,5 km/h (3 Bft) O 89 0 min 0,000 mm 0,0 UV-I 0 W/m -1,4 C -0,8 C 22,5 km/h (4 Bft) 96,00 %
16.04.2019 02:38 5,3 C 0,0 C 3,3 C 61 % 1018,1 hPa 0,0 l/m 14,1 km/h (3 Bft) O-NO 71 0 min 0,000 mm 0,0 UV-I 0 W/m -1,6 C -0,1 C 19,3 km/h (3 Bft) 97,14 %
16.04.2019 02:40 5,3 C 0,0 C 3,3 C 62 % 1018,1 hPa 0,0 l/m 14,2 km/h (3 Bft) O-NO 75 0 min 0,000 mm 0,0 UV-I 0 W/m -1,4 C -0,1 C 20,9 km/h (4 Bft) 96,43 %
16.04.2019 02:42 5,3 C 0,0 C 3,3 C 61 % 1018,0 hPa 0,0 l/m 17,1 km/h (3 Bft) O-NO 76 0 min 0,000 mm 0,0 UV-I 0 W/m -1,6 C -1,6 C 24,1 km/h (4 Bft) 96,00 %
16.04.2019 02:44 5,3 C 0,0 C 3,3 C 62 % 1018,0 hPa 0,0 l/m 14,0 km/h (3 Bft) O 81 0 min 0,000 mm 0,0 UV-I 0 W/m -1,4 C -0,0 C 20,9 km/h (4 Bft) 97,73 %
16.04.2019 02:46 5,2 C 0,0 C 3,3 C 62 % 1018,0 hPa 0,0 l/m 15,5 km/h (3 Bft) O 92 0 min 0,000 mm 0,0 UV-I 0 W/m -1,5 C -0,9 C 22,5 km/h (4 Bft) 100,00 %
16.04.2019 02:48 5,2 C 0,0 C 3,3 C 61 % 1018,0 hPa 0,0 l/m 18,4 km/h (3 Bft) O-NO 73 0 min 0,000 mm 0,0 UV-I 0 W/m -1,7 C -2,3 C 29,0 km/h (5 Bft) 100,00 %
16.04.2019 02:50 5,3 C 0,0 C 3,3 C 61 % 1017,9 hPa 0,0 l/m 18,6 km/h (3 Bft) O-NO 78 0 min 0,000 mm 0,0 UV-I 0 W/m -1,6 C -2,2 C 25,7 km/h (4 Bft) 100,00 %
16.04.2019 02:52 5,3 C 0,0 C 3,3 C 61 % 1017,9 hPa 0,0 l/m 17,5 km/h (3 Bft) O-NO 73 0 min 0,000 mm 0,0 UV-I 0 W/m -1,6 C -1,7 C 25,7 km/h (4 Bft) 100,00 %
16.04.2019 02:54 5,3 C 0,0 C 3,3 C 61 % 1017,9 hPa 0,0 l/m 15,9 km/h (3 Bft) NO 44 0 min 0,000 mm 0,0 UV-I 0 W/m -1,6 C -1,0 C 22,5 km/h (4 Bft) 100,00 %
16.04.2019 02:56 5,3 C 0,0 C 3,3 C 61 % 1017,9 hPa 0,0 l/m 16,6 km/h (3 Bft) O-NO 76 0 min 0,000 mm 0,0 UV-I 0 W/m -1,6 C -1,3 C 24,1 km/h (4 Bft) 100,00 %
16.04.2019 02:58 5,3 C 0,0 C 3,3 C 62 % 1017,8 hPa 0,0 l/m 16,6 km/h (3 Bft) O-NO 77 0 min 0,000 mm 0,0 UV-I 0 W/m -1,4 C -1,3 C 25,7 km/h (4 Bft) 98,11 %
16.04.2019 03:00 5,3 C 0,0 C 3,3 C 61 % 1017,9 hPa 0,0 l/m 17,4 km/h (3 Bft) O-NO 73 0 min 0,000 mm 0,0 UV-I 0 W/m -1,6 C -1,7 C 24,1 km/h (4 Bft) 100,00 %
16.04.2019 03:02 5,3 C 0,0 C 3,3 C 61 % 1017,9 hPa 0,0 l/m 17,3 km/h (3 Bft) O-NO 70 0 min 0,050 mm 0,0 UV-I 0 W/m -1,6 C -1,7 C 25,7 km/h (4 Bft) 96,15 %
16.04.2019 03:04 5,2 C 0,0 C 3,3 C 61 % 1017,8 hPa 0,0 l/m 20,2 km/h (4 Bft) O 94 0 min 0,000 mm 0,0 UV-I 0 W/m -1,7 C -3,0 C 27,4 km/h (4 Bft) 100,00 %
16.04.2019 03:06 5,2 C 0,0 C 3,3 C 61 % 1017,9 hPa 0,0 l/m 16,9 km/h (3 Bft) O-NO 71 0 min 0,000 mm 0,0 UV-I 0 W/m -1,7 C -1,6 C 22,5 km/h (4 Bft) 100,00 %
16.04.2019 03:08 5,2 C 0,0 C 3,3 C 62 % 1017,8 hPa 0,0 l/m 16,2 km/h (3 Bft) O 96 0 min 0,000 mm 0,0 UV-I 0 W/m -1,5 C -1,3 C 25,7 km/h (4 Bft) 97,14 %
16.04.2019 03:10 5,2 C 0,0 C 3,3 C 62 % 1017,8 hPa 0,0 l/m 14,6 km/h (3 Bft) O-SO 108 0 min 0,000 mm 0,0 UV-I 0 W/m -1,5 C -0,5 C 19,3 km/h (3 Bft) 100,00 %
16.04.2019 03:12 5,2 C 0,0 C 3,3 C 61 % 1017,8 hPa 0,0 l/m 21,2 km/h (4 Bft) O 90 0 min 0,000 mm 0,0 UV-I 0 W/m -1,7 C -3,4 C 29,0 km/h (5 Bft) 100,00 %
16.04.2019 03:14 5,2 C 0,0 C 3,3 C 61 % 1017,8 hPa 0,0 l/m 20,2 km/h (4 Bft) O-NO 69 0 min 0,000 mm 0,0 UV-I 0 W/m -1,7 C -3,0 C 27,4 km/h (4 Bft) 100,00 %
16.04.2019 03:16 5,2 C 0,0 C 3,3 C 61 % 1017,8 hPa 0,0 l/m 20,2 km/h (4 Bft) O-NO 70 0 min 0,000 mm 0,0 UV-I 0 W/m -1,7 C -3,0 C 25,7 km/h (4 Bft) 100,00 %
16.04.2019 03:18 5,2 C 0,0 C 3,3 C 61 % 1017,8 hPa 0,0 l/m 16,7 km/h (3 Bft) O-NO 63 0 min 0,000 mm 0,0 UV-I 0 W/m -1,7 C -1,5 C 25,7 km/h (4 Bft) 100,00 %
16.04.2019 03:20 5,2 C 0,0 C 3,3 C 62 % 1017,8 hPa 0,0 l/m 15,3 km/h (3 Bft) O-NO 66 0 min 0,000 mm 0,0 UV-I 0 W/m -1,5 C -0,8 C 24,1 km/h (4 Bft) 100,00 %
16.04.2019 03:22 5,1 C 0,0 C 3,3 C 62 % 1017,8 hPa 0,0 l/m 17,8 km/h (3 Bft) NO 51 0 min 0,000 mm 0,0 UV-I 0 W/m -1,6 C -2,1 C 24,1 km/h (4 Bft) 98,11 %
16.04.2019 03:24 5,1 C 0,0 C 3,3 C 62 % 1017,8 hPa 0,0 l/m 17,5 km/h (3 Bft) NO 54 0 min 0,000 mm 0,0 UV-I 0 W/m -1,6 C -2,0 C 22,5 km/h (4 Bft) 100,00 %
16.04.2019 03:26 5,0 C 0,0 C 3,3 C 62 % 1017,8 hPa 0,0 l/m 16,0 km/h (3 Bft) O-NO 74 0 min 0,000 mm 0,0 UV-I 0 W/m -1,7 C -1,4 C 20,9 km/h (4 Bft) 100,00 %
16.04.2019 03:28 5,0 C 0,0 C 3,3 C 62 % 1017,8 hPa 0,0 l/m 15,9 km/h (3 Bft) O-NO 61 0 min 0,000 mm 0,0 UV-I 0 W/m -1,7 C -1,4 C 22,5 km/h (4 Bft) 100,00 %
16.04.2019 03:30 5,0 C 0,0 C 3,3 C 62 % 1017,8 hPa 0,0 l/m 16,2 km/h (3 Bft) O-SO 102 0 min 0,000 mm 0,0 UV-I 0 W/m -1,7 C -1,5 C 25,7 km/h (4 Bft) 100,00 %
16.04.2019 03:32 5,0 C 0,0 C 3,3 C 62 % 1017,8 hPa 0,0 l/m 14,1 km/h (3 Bft) O-NO 65 0 min 0,000 mm 0,0 UV-I 0 W/m -1,7 C -0,5 C 22,5 km/h (4 Bft) 97,44 %
16.04.2019 03:34 5,0 C 0,0 C 3,3 C 62 % 1017,8 hPa 0,0 l/m 17,9 km/h (3 Bft) O 80 0 min 0,000 mm 0,0 UV-I 0 W/m -1,7 C -2,3 C 27,4 km/h (4 Bft) 100,00 %
16.04.2019 03:36 5,0 C 0,0 C 3,3 C 62 % 1017,7 hPa 0,0 l/m 17,4 km/h (3 Bft) O 84 0 min 0,000 mm 0,0 UV-I 0 W/m -1,7 C -2,1 C 20,9 km/h (4 Bft) 100,00 %
16.04.2019 03:38 5,0 C 0,0 C 3,3 C 62 % 1017,7 hPa 0,0 l/m 21,6 km/h (4 Bft) O-SO 106 0 min 0,000 mm 0,0 UV-I 0 W/m -1,7 C -3,8 C 29,0 km/h (5 Bft) 100,00 %
16.04.2019 03:40 5,0 C 0,0 C 3,3 C 62 % 1017,7 hPa 0,0 l/m 17,0 km/h (3 Bft) O-NO 59 0 min 0,000 mm 0,0 UV-I 0 W/m -1,7 C -1,9 C 24,1 km/h (4 Bft) 98,21 %
16.04.2019 03:42 4,9 C 0,0 C 3,3 C 62 % 1017,7 hPa 0,0 l/m 17,0 km/h (3 Bft) O 84 0 min 0,000 mm 0,0 UV-I 0 W/m -1,8 C -2,0 C 22,5 km/h (4 Bft) 95,45 %
16.04.2019 03:44 4,8 C 0,0 C 3,3 C 63 % 1017,7 hPa 0,0 l/m 17,0 km/h (3 Bft) O 79 0 min 0,000 mm 0,0 UV-I 0 W/m -1,6 C -2,1 C 25,7 km/h (4 Bft) 96,00 %
16.04.2019 03:46 4,8 C 0,0 C 2,8 C 63 % 1017,7 hPa 0,0 l/m 17,4 km/h (3 Bft) O 84 0 min 0,000 mm 0,0 UV-I 0 W/m -1,6 C -2,3 C 22,5 km/h (4 Bft) 90,24 %
16.04.2019 03:48 4,8 C 0,0 C 2,8 C 63 % 1017,7 hPa 0,0 l/m 17,3 km/h (3 Bft) O 88 0 min 0,000 mm 0,0 UV-I 0 W/m -1,6 C -2,3 C 24,1 km/h (4 Bft) 96,00 %
16.04.2019 03:50 4,8 C 0,0 C 2,8 C 63 % 1017,6 hPa 0,0 l/m 19,3 km/h (3 Bft) O 94 0 min 0,000 mm 0,0 UV-I 0 W/m -1,6 C -3,1 C 25,7 km/h (4 Bft) 94,74 %
16.04.2019 03:52 4,8 C 0,0 C 2,8 C 63 % 1017,5 hPa 0,0 l/m 18,8 km/h (3 Bft) O-NO 67 0 min 0,000 mm 0,0 UV-I 0 W/m -1,6 C -2,9 C 25,7 km/h (4 Bft) 93,62 %
16.04.2019 03:54 4,8 C 0,0 C 2,8 C 63 % 1017,5 hPa 0,0 l/m 15,2 km/h (3 Bft) O-NO 61 0 min 0,000 mm 0,0 UV-I 0 W/m -1,6 C -1,3 C 22,5 km/h (4 Bft) 95,74 %
16.04.2019 03:56 4,8 C 0,0 C 2,8 C 63 % 1017,5 hPa 0,0 l/m 13,9 km/h (3 Bft) O 88 0 min 0,000 mm 0,0 UV-I 0 W/m -1,6 C -0,6 C 20,9 km/h (4 Bft) 97,87 %
16.04.2019 03:58 4,8 C 0,0 C 2,8 C 63 % 1017,5 hPa 0,0 l/m 18,8 km/h (3 Bft) O 96 0 min 0,000 mm 0,0 UV-I 0 W/m -1,6 C -2,9 C 24,1 km/h (4 Bft) 94,00 %
16.04.2019 04:00 4,8 C 0,0 C 2,8 C 63 % 1017,5 hPa 0,0 l/m 15,9 km/h (3 Bft) O 96 0 min 0,000 mm 0,0 UV-I 0 W/m -1,6 C -1,6 C 20,9 km/h (4 Bft) 94,00 %
16.04.2019 04:02 4,8 C 0,0 C 2,8 C 63 % 1017,5 hPa 0,0 l/m 17,4 km/h (3 Bft) O-SO 107 0 min 0,051 mm 0,0 UV-I 0 W/m -1,6 C -2,3 C 24,1 km/h (4 Bft) 96,55 %
16.04.2019 04:04 4,8 C 0,0 C 2,8 C 63 % 1017,4 hPa 0,0 l/m 14,1 km/h (3 Bft) O-SO 114 0 min 0,000 mm 0,0 UV-I 0 W/m -1,6 C -0,7 C 20,9 km/h (4 Bft) 94,55 %
16.04.2019 04:06 4,8 C 0,0 C 2,8 C 63 % 1017,4 hPa 0,0 l/m 16,9 km/h (3 Bft) O-SO 123 0 min 0,000 mm 0,0 UV-I 0 W/m -1,6 C -2,1 C 25,7 km/h (4 Bft) 92,00 %
16.04.2019 04:08 4,8 C 0,0 C 2,8 C 63 % 1017,4 hPa 0,0 l/m 15,2 km/h (3 Bft) O-SO 103 0 min 0,000 mm 0,0 UV-I 0 W/m -1,6 C -1,3 C 20,9 km/h (4 Bft) 95,74 %
16.04.2019 04:10 4,7 C 0,0 C 2,8 C 63 % 1017,4 hPa 0,0 l/m 14,8 km/h (3 Bft) O 98 0 min 0,000 mm 0,0 UV-I 0 W/m -1,7 C -1,2 C 22,5 km/h (4 Bft) 94,87 %
16.04.2019 04:12 4,7 C 0,0 C 2,8 C 63 % 1017,5 hPa 0,0 l/m 14,1 km/h (3 Bft) O 89 0 min 0,000 mm 0,0 UV-I 0 W/m -1,7 C -0,8 C 22,5 km/h (4 Bft) 93,62 %
16.04.2019 04:14 4,6 C 0,0 C 2,8 C 63 % 1017,5 hPa 0,0 l/m 13,5 km/h (3 Bft) O 92 0 min 0,000 mm 0,0 UV-I 0 W/m -1,8 C -0,6 C 19,3 km/h (3 Bft) 96,00 %
16.04.2019 04:16 4,6 C 0,0 C 2,8 C 63 % 1017,5 hPa 0,0 l/m 13,8 km/h (3 Bft) O 88 0 min 0,000 mm 0,0 UV-I 0 W/m -1,8 C -0,8 C 19,3 km/h (3 Bft) 95,74 %
16.04.2019 04:18 4,6 C 0,0 C 2,8 C 64 % 1017,5 hPa 0,0 l/m 14,6 km/h (3 Bft) O 88 0 min 0,000 mm 0,0 UV-I 0 W/m -1,6 C -1,2 C 17,7 km/h (3 Bft) 98,00 %
16.04.2019 04:20 4,5 C 0,0 C 2,8 C 64 % 1017,5 hPa 0,0 l/m 14,8 km/h (3 Bft) O-NO 76 0 min 0,000 mm 0,0 UV-I 0 W/m -1,7 C -1,4 C 20,9 km/h (4 Bft) 94,74 %
16.04.2019 04:22 4,5 C 0,0 C 2,8 C 64 % 1017,5 hPa 0,0 l/m 15,2 km/h (3 Bft) O 88 0 min 0,000 mm 0,0 UV-I 0 W/m -1,7 C -1,6 C 20,9 km/h (4 Bft) 96,43 %
16.04.2019 04:24 4,5 C 0,0 C 2,8 C 64 % 1017,5 hPa 0,0 l/m 15,2 km/h (3 Bft) O-NO 69 0 min 0,000 mm 0,0 UV-I 0 W/m -1,7 C -1,6 C 22,5 km/h (4 Bft) 91,49 %
16.04.2019 04:26 4,6 C 0,0 C 2,8 C 64 % 1017,6 hPa 0,0 l/m 15,6 km/h (3 Bft) O 86 0 min 0,000 mm 0,0 UV-I 0 W/m -1,6 C -1,7 C 22,5 km/h (4 Bft) 97,44 %
16.04.2019 04:28 4,5 C 0,0 C 2,8 C 64 % 1017,5 hPa 0,0 l/m 16,8 km/h (3 Bft) O-NO 68 0 min 0,000 mm 0,0 UV-I 0 W/m -1,7 C -2,4 C 22,5 km/h (4 Bft) 94,00 %
16.04.2019 04:30 4,4 C 0,0 C 2,8 C 64 % 1017,5 hPa 0,0 l/m 15,4 km/h (3 Bft) O-NO 72 0 min 0,000 mm 0,0 UV-I 0 W/m -1,8 C -1,9 C 22,5 km/h (4 Bft) 95,74 %
16.04.2019 04:32 4,4 C 0,0 C 2,2 C 64 % 1017,5 hPa 0,0 l/m 11,6 km/h (2 Bft) O-SO 111 0 min 0,000 mm 0,0 UV-I 0 W/m -1,8 C 0,3 C 17,7 km/h (3 Bft) 96,00 %
16.04.2019 04:34 4,4 C 0,0 C 2,2 C 64 % 1017,7 hPa 0,0 l/m 12,0 km/h (2 Bft) O-NO 75 0 min 0,000 mm 0,0 UV-I 0 W/m -1,8 C 0,1 C 16,1 km/h (3 Bft) 97,87 %
16.04.2019 04:36 4,3 C 0,0 C 2,2 C 64 % 1017,7 hPa 0,0 l/m 14,6 km/h (3 Bft) O 97 0 min 0,000 mm 0,0 UV-I 0 W/m -1,9 C -1,6 C 24,1 km/h (4 Bft) 94,74 %
16.04.2019 04:38 4,4 C 0,0 C 2,2 C 64 % 1017,6 hPa 0,0 l/m 17,3 km/h (3 Bft) O 84 0 min 0,000 mm 0,0 UV-I 0 W/m -1,8 C -2,8 C 22,5 km/h (4 Bft) 91,49 %
16.04.2019 04:40 4,4 C 0,0 C 2,2 C 64 % 1017,6 hPa 0,0 l/m 14,7 km/h (3 Bft) O-NO 76 0 min 0,000 mm 0,0 UV-I 0 W/m -1,8 C -1,5 C 22,5 km/h (4 Bft) 97,44 %
16.04.2019 04:42 4,4 C 0,0 C 2,2 C 64 % 1017,7 hPa 0,0 l/m 16,7 km/h (3 Bft) O 98 0 min 0,000 mm 0,0 UV-I 0 W/m -1,8 C -2,5 C 22,5 km/h (4 Bft) 98,11 %
16.04.2019 04:44 4,4 C 0,0 C 2,2 C 64 % 1017,7 hPa 0,0 l/m 14,6 km/h (3 Bft) O 81 0 min 0,000 mm 0,0 UV-I 0 W/m -1,8 C -1,4 C 20,9 km/h (4 Bft) 98,18 %
16.04.2019 04:46 4,4 C 0,0 C 2,2 C 64 % 1017,8 hPa 0,0 l/m 15,5 km/h (3 Bft) O-NO 65 0 min 0,000 mm 0,0 UV-I 0 W/m -1,8 C -1,9 C 22,5 km/h (4 Bft) 98,00 %
16.04.2019 04:48 4,4 C 0,0 C 2,2 C 64 % 1017,7 hPa 0,0 l/m 14,5 km/h (3 Bft) O 92 0 min 0,000 mm 0,0 UV-I 0 W/m -1,8 C -1,4 C 24,1 km/h (4 Bft) 95,24 %
16.04.2019 04:50 4,4 C 0,0 C 2,2 C 64 % 1017,8 hPa 0,0 l/m 14,7 km/h (3 Bft) O 86 0 min 0,000 mm 0,0 UV-I 0 W/m -1,8 C -1,5 C 19,3 km/h (3 Bft) 96,00 %
16.04.2019 04:52 4,4 C 0,0 C 2,2 C 64 % 1017,8 hPa 0,0 l/m 13,3 km/h (3 Bft) O 80 0 min 0,000 mm 0,0 UV-I 0 W/m -1,8 C -0,7 C 17,7 km/h (3 Bft) 95,45 %
16.04.2019 04:54 4,4 C 0,0 C 2,2 C 64 % 1017,8 hPa 0,0 l/m 12,8 km/h (3 Bft) O-NO 70 0 min 0,000 mm 0,0 UV-I 0 W/m -1,8 C -0,4 C 17,7 km/h (3 Bft) 96,23 %
16.04.2019 04:56 4,4 C 0,0 C 2,2 C 64 % 1017,7 hPa 0,0 l/m 11,8 km/h (2 Bft) O-NO 75 0 min 0,000 mm 0,0 UV-I 0 W/m -1,8 C 0,2 C 17,7 km/h (3 Bft) 95,12 %
16.04.2019 04:58 4,3 C 0,0 C 2,2 C 65 % 1017,7 hPa 0,0 l/m 14,0 km/h (3 Bft) O-NO 74 0 min 0,000 mm 0,0 UV-I 0 W/m -1,7 C -1,2 C 19,3 km/h (3 Bft) 95,74 %
16.04.2019 05:00 4,3 C 0,0 C 2,2 C 65 % 1017,8 hPa 0,0 l/m 11,0 km/h (2 Bft) NO 47 0 min 0,000 mm 0,0 UV-I 0 W/m -1,7 C 0,6 C 16,1 km/h (3 Bft) 97,56 %
16.04.2019 05:02 4,2 C 0,0 C 2,2 C 65 % 1017,7 hPa 0,0 l/m 12,0 km/h (2 Bft) O 86 0 min 0,051 mm 0,0 UV-I 0 W/m -1,8 C -0,2 C 17,7 km/h (3 Bft) 96,43 %
16.04.2019 05:04 4,2 C 0,0 C 2,2 C 65 % 1017,7 hPa 0,0 l/m 12,0 km/h (2 Bft) O-NO 74 0 min 0,000 mm 0,0 UV-I 0 W/m -1,8 C -0,2 C 17,7 km/h (3 Bft) 97,37 %
16.04.2019 05:06 4,1 C 0,0 C 2,2 C 65 % 1017,7 hPa 0,0 l/m 12,7 km/h (3 Bft) NO 53 0 min 0,000 mm 0,0 UV-I 0 W/m -1,9 C -0,7 C 17,7 km/h (3 Bft) 98,11 %
16.04.2019 05:08 4,1 C 0,0 C 2,2 C 65 % 1017,7 hPa 0,0 l/m 12,9 km/h (3 Bft) O-NO 63 0 min 0,000 mm 0,0 UV-I 0 W/m -1,9 C -0,8 C 19,3 km/h (3 Bft) 97,37 %
16.04.2019 05:10 4,0 C 0,0 C 2,2 C 66 % 1017,6 hPa 0,0 l/m 11,4 km/h (2 Bft) O-NO 74 0 min 0,000 mm 0,0 UV-I 0 W/m -1,8 C -0,0 C 17,7 km/h (3 Bft) 98,31 %
16.04.2019 05:12 4,0 C 0,0 C 2,2 C 66 % 1017,6 hPa 0,0 l/m 11,5 km/h (2 Bft) O 99 0 min 0,000 mm 0,0 UV-I 0 W/m -1,8 C -0,1 C 17,7 km/h (3 Bft) 97,37 %
16.04.2019 05:14 4,0 C 0,0 C 2,2 C 66 % 1017,6 hPa 0,0 l/m 13,9 km/h (3 Bft) O 80 0 min 0,000 mm 0,0 UV-I 0 W/m -1,8 C -1,5 C 22,5 km/h (4 Bft) 98,11 %
16.04.2019 05:16 4,1 C 0,0 C 2,2 C 65 % 1017,6 hPa 0,0 l/m 12,7 km/h (3 Bft) O 80 0 min 0,000 mm 0,0 UV-I 0 W/m -1,9 C -0,7 C 17,7 km/h (3 Bft) 96,30 %
16.04.2019 05:18 4,1 C 0,0 C 2,2 C 65 % 1017,5 hPa 0,0 l/m 14,5 km/h (3 Bft) O-NO 70 0 min 0,000 mm 0,0 UV-I 0 W/m -1,9 C -1,7 C 19,3 km/h (3 Bft) 97,01 %
16.04.2019 05:20 4,2 C 0,0 C 2,2 C 65 % 1017,5 hPa 0,0 l/m 13,8 km/h (3 Bft) O-NO 69 0 min 0,000 mm 0,0 UV-I 0 W/m -1,8 C -1,2 C 24,1 km/h (4 Bft) 96,00 %
16.04.2019 05:22 4,2 C 0,0 C 2,2 C 65 % 1017,5 hPa 0,0 l/m 13,1 km/h (3 Bft) O-NO 72 0 min 0,000 mm 0,0 UV-I 0 W/m -1,8 C -0,8 C 19,3 km/h (3 Bft) 100,00 %
16.04.2019 05:24 4,2 C 0,0 C 2,2 C 65 % 1017,5 hPa 0,0 l/m 11,8 km/h (2 Bft) O 94 0 min 0,000 mm 0,0 UV-I 0 W/m -1,8 C -0,0 C 16,1 km/h (3 Bft) 100,00 %
16.04.2019 05:26 4,1 C 0,0 C 2,2 C 65 % 1017,5 hPa 0,0 l/m 11,7 km/h (2 Bft) O-NO 62 0 min 0,000 mm 0,0 UV-I 0 W/m -1,9 C -0,1 C 16,1 km/h (3 Bft) 100,00 %
16.04.2019 05:28 4,1 C 0,0 C 2,2 C 65 % 1017,5 hPa 0,0 l/m 14,3 km/h (3 Bft) O 86 0 min 0,000 mm 0,0 UV-I 0 W/m -1,9 C -1,6 C 22,5 km/h (4 Bft) 100,00 %
16.04.2019 05:30 4,1 C 0,0 C 2,2 C 65 % 1017,5 hPa 0,0 l/m 12,9 km/h (3 Bft) O-NO 76 0 min 0,000 mm 0,0 UV-I 0 W/m -1,9 C -0,8 C 17,7 km/h (3 Bft) 98,00 %
16.04.2019 05:32 4,1 C 0,0 C 2,2 C 65 % 1017,5 hPa 0,0 l/m 13,5 km/h (3 Bft) O 83 0 min 0,000 mm 0,0 UV-I 0 W/m -1,9 C -1,2 C 20,9 km/h (4 Bft) 100,00 %
16.04.2019 05:34 4,1 C 0,0 C 2,2 C 65 % 1017,5 hPa 0,0 l/m 11,5 km/h (2 Bft) O-NO 61 0 min 0,000 mm 0,0 UV-I 0 W/m -1,9 C 0,0 C 17,7 km/h (3 Bft) 97,87 %
16.04.2019 05:36 4,0 C 0,0 C 1,7 C 65 % 1017,4 hPa 0,0 l/m 9,4 km/h (2 Bft) O-NO 75 0 min 0,000 mm 0,0 UV-I 0 W/m -2,0 C 1,4 C 14,5 km/h (3 Bft) 92,68 %
16.04.2019 05:38 3,9 C 0,0 C 1,7 C 66 % 1017,5 hPa 0,0 l/m 9,2 km/h (2 Bft) O-SO 111 0 min 0,000 mm 0,0 UV-I 0 W/m -1,9 C 1,5 C 14,5 km/h (3 Bft) 100,00 %
16.04.2019 05:40 3,9 C 0,0 C 1,7 C 66 % 1017,5 hPa 0,0 l/m 9,7 km/h (2 Bft) O 84 0 min 0,000 mm 0,0 UV-I 0 W/m -1,9 C 1,1 C 14,5 km/h (3 Bft) 100,00 %
16.04.2019 05:42 3,8 C 0,0 C 1,7 C 66 % 1017,5 hPa 0,0 l/m 10,0 km/h (2 Bft) O-NO 60 0 min 0,000 mm 0,0 UV-I 0 W/m -2,0 C 0,7 C 16,1 km/h (3 Bft) 100,00 %
16.04.2019 05:44 3,9 C 0,0 C 1,7 C 66 % 1017,5 hPa 0,0 l/m 8,2 km/h (2 Bft) O 84 0 min 0,000 mm 0,0 UV-I 0 W/m -1,9 C 2,3 C 12,9 km/h (3 Bft) 100,00 %
16.04.2019 05:46 3,8 C 0,0 C 1,7 C 66 % 1017,5 hPa 0,0 l/m 8,0 km/h (2 Bft) O-NO 71 0 min 0,000 mm 0,0 UV-I 0 W/m -2,0 C 2,3 C 12,9 km/h (3 Bft) 100,00 %
16.04.2019 05:48 3,8 C 0,0 C 1,1 C 66 % 1017,5 hPa 0,0 l/m 8,7 km/h (2 Bft) O 94 0 min 0,000 mm 0,0 UV-I 0 W/m -2,0 C 1,8 C 17,7 km/h (3 Bft) 100,00 %
16.04.2019 05:50 3,8 C 0,0 C 1,1 C 66 % 1017,5 hPa 0,0 l/m 7,8 km/h (2 Bft) O-NO 74 0 min 0,000 mm 0,0 UV-I 0 W/m -2,0 C 2,5 C 14,5 km/h (3 Bft) 100,00 %
16.04.2019 05:52 3,9 C 0,0 C 1,7 C 66 % 1017,5 hPa 0,0 l/m 12,1 km/h (2 Bft) O 93 0 min 0,000 mm 0,0 UV-I 0 W/m -1,9 C -0,6 C 16,1 km/h (3 Bft) 100,00 %
16.04.2019 05:54 3,9 C 0,0 C 1,1 C 66 % 1017,5 hPa 0,0 l/m 10,0 km/h (2 Bft) O 87 0 min 0,000 mm 0,0 UV-I 0 W/m -1,9 C 0,9 C 14,5 km/h (3 Bft) 98,11 %
16.04.2019 05:56 3,9 C 0,0 C 1,7 C 66 % 1017,5 hPa 0,0 l/m 12,3 km/h (3 Bft) O-SO 104 0 min 0,000 mm 0,0 UV-I 0 W/m -1,9 C -0,7 C 22,5 km/h (4 Bft) 100,00 %
16.04.2019 05:58 4,0 C 0,0 C 1,7 C 66 % 1017,5 hPa 0,0 l/m 10,8 km/h (2 Bft) O-SO 109 0 min 0,000 mm 0,0 UV-I 0 W/m -1,8 C 0,4 C 17,7 km/h (3 Bft) 97,44 %
16.04.2019 06:00 4,0 C 0,0 C 1,7 C 65 % 1017,5 hPa 0,0 l/m 10,1 km/h (2 Bft) O-NO 74 0 min 0,025 mm 0,0 UV-I 3 W/m -2,0 C 0,9 C 14,5 km/h (3 Bft) 97,96 %
16.04.2019 06:02 4,0 C 0,0 C 1,7 C 65 % 1017,5 hPa 0,0 l/m 8,9 km/h (2 Bft) O 87 0 min 0,000 mm 0,0 UV-I 5 W/m -2,0 C 1,8 C 14,5 km/h (3 Bft) 96,08 %
16.04.2019 06:04 3,9 C 0,0 C 1,1 C 66 % 1017,5 hPa 0,0 l/m 9,4 km/h (2 Bft) O 92 0 min 0,000 mm 0,0 UV-I 5 W/m -1,9 C 1,3 C 16,1 km/h (3 Bft) 97,56 %
16.04.2019 06:06 3,9 C 0,0 C 1,1 C 66 % 1017,6 hPa 0,0 l/m 9,9 km/h (2 Bft) O-NO 78 0 min 0,000 mm 0,0 UV-I 5 W/m -1,9 C 0,9 C 14,5 km/h (3 Bft) 95,74 %
16.04.2019 06:08 3,9 C 0,0 C 1,7 C 66 % 1017,6 hPa 0,0 l/m 9,6 km/h (2 Bft) O 90 0 min 0,000 mm 0,0 UV-I 6 W/m -1,9 C 1,2 C 12,9 km/h (3 Bft) 95,74 %
16.04.2019 06:10 3,8 C 0,0 C 1,7 C 66 % 1017,6 hPa 0,0 l/m 8,7 km/h (2 Bft) O 79 0 min 0,000 mm 0,0 UV-I 7 W/m -2,0 C 1,8 C 12,9 km/h (3 Bft) 94,00 %
16.04.2019 06:12 3,8 C 0,0 C 1,1 C 66 % 1017,6 hPa 0,0 l/m 8,7 km/h (2 Bft) O-NO 67 0 min 0,000 mm 0,0 UV-I 7 W/m -2,0 C 1,8 C 14,5 km/h (3 Bft) 92,11 %
16.04.2019 06:14 3,7 C 0,0 C 1,1 C 67 % 1017,6 hPa 0,0 l/m 9,4 km/h (2 Bft) O-SO 105 0 min 0,000 mm 0,0 UV-I 9 W/m -1,8 C 1,1 C 14,5 km/h (3 Bft) 96,23 %
16.04.2019 06:16 3,6 C 0,0 C 1,1 C 67 % 1017,6 hPa 0,0 l/m 8,6 km/h (2 Bft) O-NO 76 0 min 0,000 mm 0,0 UV-I 9 W/m -1,9 C 1,6 C 14,5 km/h (3 Bft) 95,45 %
16.04.2019 06:18 3,6 C 0,0 C 1,1 C 67 % 1017,6 hPa 0,0 l/m 7,4 km/h (2 Bft) O-SO 109 0 min 0,000 mm 0,0 UV-I 11 W/m -1,9 C 2,7 C 12,9 km/h (3 Bft) 96,00 %
16.04.2019 06:20 3,7 C 0,0 C 1,1 C 67 % 1017,6 hPa 0,0 l/m 9,8 km/h (2 Bft) O-SO 111 0 min 0,000 mm 0,0 UV-I 12 W/m -1,8 C 0,8 C 17,7 km/h (3 Bft) 95,74 %
16.04.2019 06:22 3,7 C 0,0 C 1,1 C 67 % 1017,6 hPa 0,0 l/m 11,1 km/h (2 Bft) O-NO 65 0 min 0,000 mm 0,0 UV-I 13 W/m -1,8 C -0,1 C 16,1 km/h (3 Bft) 94,00 %
16.04.2019 06:24 3,8 C 0,0 C 1,1 C 66 % 1017,6 hPa 0,0 l/m 11,6 km/h (2 Bft) O-SO 109 2 min 0,000 mm 0,0 UV-I 15 W/m -2,0 C -0,4 C 17,7 km/h (3 Bft) 94,00 %
16.04.2019 06:26 3,9 C 0,0 C 1,1 C 66 % 1017,7 hPa 0,0 l/m 10,9 km/h (2 Bft) O-SO 117 2 min 0,000 mm 0,0 UV-I 18 W/m -1,9 C 0,2 C 19,3 km/h (3 Bft) 100,00 %
16.04.2019 06:28 3,9 C 0,0 C 1,7 C 66 % 1017,7 hPa 0,0 l/m 12,4 km/h (3 Bft) O 86 2 min 0,000 mm 0,0 UV-I 20 W/m -1,9 C -0,8 C 17,7 km/h (3 Bft) 94,29 %
16.04.2019 06:30 4,0 C 0,0 C 1,7 C 65 % 1017,7 hPa 0,0 l/m 12,3 km/h (3 Bft) O 96 2 min 0,000 mm 0,0 UV-I 21 W/m -2,0 C -0,6 C 19,3 km/h (3 Bft) 95,74 %
16.04.2019 06:32 4,0 C 0,0 C 1,7 C 65 % 1017,7 hPa 0,0 l/m 9,9 km/h (2 Bft) O 84 0 min 0,000 mm 0,0 UV-I 19 W/m -2,0 C 1,0 C 14,5 km/h (3 Bft) 100,00 %
16.04.2019 06:34 4,0 C 0,0 C 1,7 C 65 % 1017,8 hPa 0,0 l/m 10,4 km/h (2 Bft) O 92 0 min 0,000 mm 0,0 UV-I 20 W/m -2,0 C 0,7 C 14,5 km/h (3 Bft) 97,87 %
16.04.2019 06:36 3,9 C 0,0 C 1,7 C 66 % 1017,8 hPa 0,0 l/m 10,8 km/h (2 Bft) O 98 0 min 0,000 mm 0,0 UV-I 21 W/m -1,9 C 0,3 C 12,9 km/h (3 Bft) 97,44 %
16.04.2019 06:38 3,8 C 0,0 C 1,7 C 66 % 1017,8 hPa 0,0 l/m 9,3 km/h (2 Bft) O-NO 74 0 min 0,000 mm 0,0 UV-I 23 W/m -2,0 C 1,3 C 12,9 km/h (3 Bft) 100,00 %
16.04.2019 06:40 3,8 C 0,0 C 1,7 C 66 % 1017,8 hPa 0,0 l/m 8,6 km/h (2 Bft) O 101 0 min 0,000 mm 0,0 UV-I 26 W/m -2,0 C 1,8 C 12,9 km/h (3 Bft) 96,00 %
16.04.2019 06:42 3,7 C 0,0 C 1,7 C 67 % 1017,8 hPa 0,0 l/m 7,2 km/h (2 Bft) O-NO 71 2 min 0,000 mm 0,0 UV-I 40 W/m -1,8 C 3,0 C 11,3 km/h (2 Bft) 97,62 %
16.04.2019 06:44 3,7 C 0,0 C 1,7 C 67 % 1017,9 hPa 0,0 l/m 9,1 km/h (2 Bft) O-NO 69 0 min 0,000 mm 0,0 UV-I 39 W/m -1,8 C 1,3 C 16,1 km/h (3 Bft) 100,00 %
16.04.2019 06:46 3,7 C 0,0 C 1,7 C 67 % 1017,9 hPa 0,0 l/m 11,0 km/h (2 Bft) O-NO 62 0 min 0,000 mm 0,0 UV-I 30 W/m -1,8 C -0,1 C 12,9 km/h (3 Bft) 100,00 %
16.04.2019 06:48 3,7 C 0,0 C 1,7 C 67 % 1017,9 hPa 0,0 l/m 10,2 km/h (2 Bft) O 80 0 min 0,000 mm 0,0 UV-I 46 W/m -1,8 C 0,5 C 12,9 km/h (3 Bft) 100,00 %
16.04.2019 06:50 3,7 C 0,0 C 1,7 C 67 % 1017,9 hPa 0,0 l/m 10,0 km/h (2 Bft) O-NO 69 2 min 0,000 mm 0,0 UV-I 60 W/m -1,8 C 0,6 C 16,1 km/h (3 Bft) 100,00 %
16.04.2019 06:52 3,7 C 0,0 C 2,2 C 67 % 1017,9 hPa 0,0 l/m 10,5 km/h (2 Bft) O-NO 73 2 min 0,000 mm 0,0 UV-I 68 W/m -1,8 C 0,3 C 14,5 km/h (3 Bft) 100,00 %
16.04.2019 06:54 3,7 C 0,0 C 2,2 C 67 % 1017,9 hPa 0,0 l/m 11,4 km/h (2 Bft) O-NO 67 2 min 0,000 mm 0,0 UV-I 72 W/m -1,8 C -0,3 C 16,1 km/h (3 Bft) 100,00 %
16.04.2019 06:56 3,8 C 0,0 C 2,2 C 67 % 1017,9 hPa 0,0 l/m 9,5 km/h (2 Bft) O-NO 65 2 min 0,000 mm 0,0 UV-I 76 W/m -1,8 C 1,1 C 14,5 km/h (3 Bft) 100,00 %
16.04.2019 06:58 3,8 C 0,0 C 2,2 C 67 % 1017,9 hPa 0,0 l/m 11,3 km/h (2 Bft) O-NO 78 2 min 0,000 mm 0,0 UV-I 80 W/m -1,8 C -0,2 C 14,5 km/h (3 Bft) 100,00 %
16.04.2019 07:00 3,8 C 0,0 C 2,2 C 67 % 1017,9 hPa 0,0 l/m 10,7 km/h (2 Bft) O 79 2 min 0,000 mm 0,0 UV-I 84 W/m -1,8 C 0,2 C 14,5 km/h (3 Bft) 100,00 %
16.04.2019 07:02 3,9 C 0,0 C 2,2 C 67 % 1017,9 hPa 0,0 l/m 11,3 km/h (2 Bft) O 81 2 min 0,051 mm 0,0 UV-I 88 W/m -1,7 C -0,1 C 16,1 km/h (3 Bft) 98,11 %
16.04.2019 07:04 3,9 C 0,0 C 2,8 C 66 % 1017,9 hPa 0,0 l/m 12,7 km/h (3 Bft) NO 48 2 min 0,000 mm 0,0 UV-I 92 W/m -1,9 C -0,9 C 17,7 km/h (3 Bft) 100,00 %
16.04.2019 07:06 3,9 C 0,0 C 2,8 C 66 % 1018,0 hPa 0,0 l/m 10,8 km/h (2 Bft) O 80 2 min 0,000 mm 0,0 UV-I 97 W/m -1,9 C 0,3 C 14,5 km/h (3 Bft) 97,87 %
16.04.2019 07:08 3,9 C 0,0 C 2,8 C 67 % 1018,0 hPa 0,0 l/m 9,8 km/h (2 Bft) O 96 2 min 0,000 mm 0,0 UV-I 102 W/m -1,7 C 1,0 C 12,9 km/h (3 Bft) 98,21 %
16.04.2019 07:10 3,9 C 0,0 C 2,8 C 67 % 1018,0 hPa 0,0 l/m 9,9 km/h (2 Bft) O 84 2 min 0,000 mm 0,0 UV-I 106 W/m -1,7 C 0,9 C 14,5 km/h (3 Bft) 100,00 %
16.04.2019 07:12 3,9 C 0,0 C 2,8 C 67 % 1018,0 hPa 0,0 l/m 10,4 km/h (2 Bft) NO 46 2 min 0,000 mm 0,0 UV-I 111 W/m -1,7 C 0,6 C 14,5 km/h (3 Bft) 100,00 %
16.04.2019 07:14 4,0 C 0,0 C 2,8 C 67 % 1018,0 hPa 0,0 l/m 11,8 km/h (2 Bft) O-NO 67 2 min 0,000 mm 0,0 UV-I 116 W/m -1,6 C -0,3 C 16,1 km/h (3 Bft) 98,31 %
16.04.2019 07:16 4,0 C 0,0 C 2,8 C 67 % 1018,0 hPa 0,0 l/m 11,7 km/h (2 Bft) O-NO 59 2 min 0,000 mm 0,0 UV-I 121 W/m -1,6 C -0,2 C 17,7 km/h (3 Bft) 100,00 %
16.04.2019 07:18 4,1 C 0,0 C 2,8 C 67 % 1017,9 hPa 0,0 l/m 10,3 km/h (2 Bft) O 88 2 min 0,000 mm 0,0 UV-I 127 W/m -1,5 C 0,9 C 16,1 km/h (3 Bft) 100,00 %
16.04.2019 07:20 4,1 C 0,0 C 2,8 C 67 % 1018,0 hPa 0,0 l/m 12,0 km/h (2 Bft) NO 53 2 min 0,000 mm 0,0 UV-I 132 W/m -1,5 C -0,3 C 14,5 km/h (3 Bft) 98,00 %
16.04.2019 07:22 4,1 C 0,0 C 2,8 C 67 % 1017,9 hPa 0,0 l/m 13,1 km/h (3 Bft) O 94 2 min 0,000 mm 0,0 UV-I 137 W/m -1,5 C -1,0 C 17,7 km/h (3 Bft) 100,00 %
16.04.2019 07:24 4,2 C 0,0 C 3,3 C 67 % 1017,9 hPa 0,0 l/m 12,3 km/h (3 Bft) O-NO 69 2 min 0,000 mm 0,0 UV-I 142 W/m -1,4 C -0,4 C 16,1 km/h (3 Bft) 100,00 %
16.04.2019 07:26 4,3 C 0,0 C 3,3 C 66 % 1018,0 hPa 0,0 l/m 11,4 km/h (2 Bft) O 88 2 min 0,000 mm 0,0 UV-I 146 W/m -1,5 C 0,3 C 16,1 km/h (3 Bft) 96,43 %
16.04.2019 07:28 4,4 C 0,0 C 3,3 C 66 % 1018,0 hPa 0,0 l/m 15,2 km/h (3 Bft) O-NO 72 2 min 0,000 mm 0,0 UV-I 152 W/m -1,4 C -1,8 C 19,3 km/h (3 Bft) 91,30 %
16.04.2019 07:30 4,6 C 0,0 C 3,3 C 65 % 1018,0 hPa 0,0 l/m 12,5 km/h (3 Bft) O 82 2 min 0,000 mm 0,0 UV-I 158 W/m -1,4 C -0,0 C 16,1 km/h (3 Bft) 97,18 %
16.04.2019 07:32 4,6 C 0,0 C 3,3 C 65 % 1018,0 hPa 0,0 l/m 11,0 km/h (2 Bft) O-SO 105 2 min 0,000 mm 0,0 UV-I 163 W/m -1,4 C 0,9 C 16,1 km/h (3 Bft) 97,56 %
16.04.2019 07:34 4,7 C 0,0 C 3,3 C 65 % 1018,0 hPa 0,0 l/m 12,6 km/h (3 Bft) O 94 2 min 0,000 mm 0,0 UV-I 169 W/m -1,3 C 0,0 C 20,9 km/h (4 Bft) 98,00 %
16.04.2019 07:36 4,8 C 0,0 C 3,3 C 64 % 1018,0 hPa 0,0 l/m 13,0 km/h (3 Bft) O 98 2 min 0,000 mm 0,0 UV-I 174 W/m -1,4 C -0,1 C 17,7 km/h (3 Bft) 98,00 %
16.04.2019 07:38 4,9 C 0,0 C 3,9 C 64 % 1018,1 hPa 0,0 l/m 10,7 km/h (2 Bft) O 93 2 min 0,000 mm 0,0 UV-I 179 W/m -1,3 C 1,5 C 17,7 km/h (3 Bft) 97,56 %
16.04.2019 07:40 5,0 C 0,0 C 3,9 C 64 % 1018,2 hPa 0,0 l/m 13,7 km/h (3 Bft) O-NO 77 2 min 0,000 mm 0,0 UV-I 185 W/m -1,2 C -0,2 C 17,7 km/h (3 Bft) 94,00 %
16.04.2019 07:42 5,1 C 0,0 C 3,9 C 64 % 1018,2 hPa 0,0 l/m 12,6 km/h (3 Bft) O 84 2 min 0,000 mm 0,0 UV-I 191 W/m -1,1 C 0,5 C 16,1 km/h (3 Bft) 97,56 %
16.04.2019 07:44 5,1 C 0,0 C 3,9 C 63 % 1018,2 hPa 0,0 l/m 13,4 km/h (3 Bft) O 82 2 min 0,000 mm 0,0 UV-I 196 W/m -1,4 C 0,1 C 19,3 km/h (3 Bft) 100,00 %
16.04.2019 07:46 5,2 C 0,0 C 3,9 C 63 % 1018,2 hPa 0,0 l/m 13,3 km/h (3 Bft) O-NO 63 2 min 0,000 mm 0,0 UV-I 201 W/m -1,3 C 0,2 C 19,3 km/h (3 Bft) 100,00 %
16.04.2019 07:48 5,3 C 0,0 C 4,4 C 63 % 1018,2 hPa 0,0 l/m 13,2 km/h (3 Bft) O-NO 61 2 min 0,000 mm 0,0 UV-I 206 W/m -1,2 C 0,4 C 16,1 km/h (3 Bft) 100,00 %
16.04.2019 07:50 5,3 C 0,0 C 4,4 C 63 % 1018,2 hPa 0,0 l/m 13,5 km/h (3 Bft) O-NO 59 2 min 0,000 mm 0,0 UV-I 213 W/m -1,2 C 0,2 C 22,5 km/h (4 Bft) 98,51 %
16.04.2019 07:52 5,4 C 0,0 C 4,4 C 62 % 1018,3 hPa 0,0 l/m 10,7 km/h (2 Bft) O 98 2 min 0,000 mm 0,0 UV-I 218 W/m -1,3 C 2,0 C 16,1 km/h (3 Bft) 100,00 %
16.04.2019 07:54 5,5 C 0,0 C 4,4 C 62 % 1018,4 hPa 0,0 l/m 11,4 km/h (2 Bft) O 90 2 min 0,000 mm 0,0 UV-I 225 W/m -1,2 C 1,7 C 19,3 km/h (3 Bft) 97,56 %
16.04.2019 07:56 5,6 C 0,0 C 5,0 C 62 % 1018,4 hPa 0,0 l/m 11,4 km/h (2 Bft) O 101 2 min 0,000 mm 0,0 UV-I 231 W/m -1,1 C 1,8 C 16,1 km/h (3 Bft) 100,00 %
16.04.2019 07:58 5,6 C 0,0 C 5,0 C 62 % 1018,3 hPa 0,0 l/m 10,8 km/h (2 Bft) O 96 2 min 0,000 mm 0,0 UV-I 236 W/m -1,1 C 2,2 C 14,5 km/h (3 Bft) 100,00 %
16.04.2019 08:00 5,7 C 0,0 C 5,0 C 62 % 1018,3 hPa 0,0 l/m 8,9 km/h (2 Bft) O-NO 68 2 min 0,102 mm 0,0 UV-I 241 W/m -1,0 C 3,6 C 14,5 km/h (3 Bft) 98,31 %
16.04.2019 08:02 5,8 C 0,0 C 5,0 C 62 % 1018,3 hPa 0,0 l/m 12,6 km/h (3 Bft) O-NO 75 2 min 0,000 mm 0,0 UV-I 247 W/m -0,9 C 1,3 C 17,7 km/h (3 Bft) 97,37 %
16.04.2019 08:04 5,8 C 0,0 C 5,6 C 61 % 1018,3 hPa 0,0 l/m 12,9 km/h (3 Bft) O-NO 78 2 min 0,000 mm 0,0 UV-I 187 W/m -1,1 C 1,2 C 16,1 km/h (3 Bft) 96,23 %
16.04.2019 08:06 5,9 C 0,0 C 5,6 C 61 % 1018,3 hPa 0,0 l/m 12,8 km/h (3 Bft) O 80 2 min 0,000 mm 0,0 UV-I 230 W/m -1,0 C 1,3 C 17,7 km/h (3 Bft) 94,74 %
16.04.2019 08:08 5,9 C 0,0 C 5,6 C 60 % 1018,3 hPa 0,0 l/m 12,8 km/h (3 Bft) O 96 2 min 0,000 mm 0,0 UV-I 265 W/m -1,3 C 1,3 C 19,3 km/h (3 Bft) 96,00 %
16.04.2019 08:10 6,1 C 0,0 C 5,6 C 61 % 1018,2 hPa 0,0 l/m 13,9 km/h (3 Bft) O-NO 73 2 min 0,000 mm 0,0 UV-I 270 W/m -0,8 C 1,0 C 20,9 km/h (4 Bft) 94,00 %
16.04.2019 08:12 6,1 C 0,0 C 5,6 C 61 % 1018,3 hPa 0,0 l/m 15,7 km/h (3 Bft) O-NO 65 2 min 0,000 mm 0,0 UV-I 276 W/m -0,8 C 0,1 C 20,9 km/h (4 Bft) 95,74 %
16.04.2019 08:14 6,2 C 0,0 C 5,6 C 60 % 1018,3 hPa 0,0 l/m 13,1 km/h (3 Bft) O 90 2 min 0,000 mm 0,0 UV-I 283 W/m -1,0 C 1,5 C 19,3 km/h (3 Bft) 95,45 %
16.04.2019 08:16 6,3 C 0,0 C 5,6 C 60 % 1018,3 hPa 0,0 l/m 18,0 km/h (3 Bft) O 92 2 min 0,000 mm 0,0 UV-I 289 W/m -0,9 C -0,7 C 22,5 km/h (4 Bft) 95,74 %
16.04.2019 08:18 6,3 C 0,0 C 5,6 C 59 % 1018,3 hPa 0,0 l/m 19,9 km/h (4 Bft) O-NO 71 2 min 0,000 mm 0,0 UV-I 295 W/m -1,1 C -1,5 C 27,4 km/h (4 Bft) 95,74 %
16.04.2019 08:20 6,4 C 0,0 C 5,6 C 59 % 1018,3 hPa 0,0 l/m 18,2 km/h (3 Bft) O-NO 65 2 min 0,000 mm 0,0 UV-I 300 W/m -1,0 C -0,7 C 24,1 km/h (4 Bft) 96,00 %
16.04.2019 08:22 6,4 C 0,0 C 6,1 C 59 % 1018,3 hPa 0,0 l/m 15,5 km/h (3 Bft) O 79 2 min 0,000 mm 0,3 UV-I 306 W/m -1,0 C 0,5 C 20,9 km/h (4 Bft) 93,62 %
16.04.2019 08:24 6,6 C 0,0 C 6,1 C 59 % 1018,3 hPa 0,0 l/m 15,5 km/h (3 Bft) O-NO 64 2 min 0,000 mm 0,5 UV-I 312 W/m -0,8 C 0,8 C 22,5 km/h (4 Bft) 96,00 %
16.04.2019 08:26 6,6 C 0,0 C 6,1 C 59 % 1018,2 hPa 0,0 l/m 15,8 km/h (3 Bft) O-SO 106 2 min 0,000 mm 0,5 UV-I 317 W/m -0,8 C 0,6 C 22,5 km/h (4 Bft) 96,30 %
16.04.2019 08:28 6,7 C 0,0 C 6,1 C 59 % 1018,3 hPa 0,0 l/m 13,1 km/h (3 Bft) O 98 2 min 0,000 mm 0,5 UV-I 323 W/m -0,7 C 2,1 C 17,7 km/h (3 Bft) 94,03 %
16.04.2019 08:30 6,7 C 0,0 C 6,1 C 59 % 1018,3 hPa 0,0 l/m 17,3 km/h (3 Bft) O-NO 71 2 min 0,000 mm 0,5 UV-I 330 W/m -0,7 C 0,1 C 22,5 km/h (4 Bft) 95,12 %
16.04.2019 08:32 6,8 C 0,0 C 6,1 C 58 % 1018,3 hPa 0,0 l/m 16,0 km/h (3 Bft) O 82 2 min 0,000 mm 0,5 UV-I 334 W/m -0,9 C 0,8 C 22,5 km/h (4 Bft) 96,08 %
16.04.2019 08:34 6,8 C 0,0 C 6,1 C 59 % 1018,3 hPa 0,0 l/m 15,9 km/h (3 Bft) O 84 2 min 0,000 mm 0,5 UV-I 341 W/m -0,6 C 0,8 C 24,1 km/h (4 Bft) 97,37 %
16.04.2019 08:36 6,9 C 0,0 C 6,7 C 58 % 1018,3 hPa 0,0 l/m 16,2 km/h (3 Bft) O 80 2 min 0,000 mm 0,6 UV-I 348 W/m -0,8 C 0,8 C 22,5 km/h (4 Bft) 94,00 %
16.04.2019 08:38 6,9 C 0,0 C 6,7 C 58 % 1018,3 hPa 0,0 l/m 16,9 km/h (3 Bft) O 100 2 min 0,000 mm 0,6 UV-I 353 W/m -0,8 C 0,5 C 20,9 km/h (4 Bft) 94,34 %
16.04.2019 08:40 7,0 C 0,0 C 6,7 C 58 % 1018,3 hPa 0,0 l/m 18,8 km/h (3 Bft) O 82 2 min 0,000 mm 0,6 UV-I 358 W/m -0,7 C -0,1 C 25,7 km/h (4 Bft) 95,12 %
16.04.2019 08:42 7,0 C 0,0 C 6,7 C 57 % 1018,3 hPa 0,0 l/m 19,8 km/h (3 Bft) O-NO 65 2 min 0,000 mm 0,6 UV-I 364 W/m -0,9 C -0,5 C 24,1 km/h (4 Bft) 94,00 %
16.04.2019 08:44 7,0 C 0,0 C 6,7 C 57 % 1018,3 hPa 0,0 l/m 20,7 km/h (4 Bft) O-SO 112 2 min 0,000 mm 0,6 UV-I 370 W/m -0,9 C -0,8 C 27,4 km/h (4 Bft) 94,00 %
16.04.2019 08:46 7,0 C 0,0 C 6,7 C 57 % 1018,3 hPa 0,0 l/m 20,8 km/h (4 Bft) O-NO 71 2 min 0,000 mm 0,6 UV-I 376 W/m -0,9 C -0,9 C 27,4 km/h (4 Bft) 95,12 %
16.04.2019 08:48 7,1 C 0,0 C 6,7 C 57 % 1018,2 hPa 0,0 l/m 17,8 km/h (3 Bft) NO 53 2 min 0,000 mm 0,7 UV-I 382 W/m -0,8 C 0,4 C 24,1 km/h (4 Bft) 96,23 %
16.04.2019 08:50 7,1 C 0,0 C 7,2 C 58 % 1018,3 hPa 0,0 l/m 15,6 km/h (3 Bft) O 86 2 min 0,000 mm 0,7 UV-I 387 W/m -0,6 C 1,3 C 20,9 km/h (4 Bft) 97,37 %
16.04.2019 08:52 7,2 C 0,0 C 7,2 C 56 % 1018,3 hPa 0,0 l/m 19,2 km/h (3 Bft) O-SO 104 2 min 0,000 mm 0,7 UV-I 393 W/m -1,0 C -0,0 C 25,7 km/h (4 Bft) 97,87 %
16.04.2019 08:54 7,3 C 0,0 C 8,3 C 57 % 1018,3 hPa 0,0 l/m 18,0 km/h (3 Bft) O 94 2 min 0,000 mm 0,7 UV-I 399 W/m -0,6 C 0,6 C 29,0 km/h (5 Bft) 98,21 %
16.04.2019 08:56 7,3 C 0,0 C 8,3 C 56 % 1018,2 hPa 0,0 l/m 16,6 km/h (3 Bft) O 80 2 min 0,000 mm 0,7 UV-I 405 W/m -0,9 C 1,1 C 20,9 km/h (4 Bft) 100,00 %
16.04.2019 08:58 7,4 C 0,0 C 8,3 C 57 % 1018,2 hPa 0,0 l/m 16,5 km/h (3 Bft) O 84 2 min 0,000 mm 0,7 UV-I 410 W/m -0,5 C 1,3 C 24,1 km/h (4 Bft) 100,00 %
16.04.2019 09:00 7,4 C 0,0 C 8,3 C 55 % 1018,3 hPa 0,0 l/m 20,5 km/h (4 Bft) O 80 2 min 0,203 mm 0,8 UV-I 416 W/m -1,0 C -0,3 C 27,4 km/h (4 Bft) 100,00 %
16.04.2019 09:02 7,4 C 0,0 C 8,3 C 55 % 1018,3 hPa 0,0 l/m 19,3 km/h (3 Bft) O-NO 74 2 min 0,000 mm 0,8 UV-I 421 W/m -1,0 C 0,2 C 27,4 km/h (4 Bft) 100,00 %
16.04.2019 09:04 7,5 C 0,0 C 8,9 C 57 % 1018,2 hPa 0,0 l/m 16,3 km/h (3 Bft) O 97 2 min 0,000 mm 0,8 UV-I 427 W/m -0,5 C 1,5 C 24,1 km/h (4 Bft) 100,00 %
16.04.2019 09:06 7,6 C 0,0 C 10,0 C 56 % 1018,2 hPa 0,0 l/m 15,6 km/h (3 Bft) O 94 2 min 0,000 mm 0,8 UV-I 433 W/m -0,6 C 2,0 C 22,5 km/h (4 Bft) 100,00 %
16.04.2019 09:08 7,7 C 0,0 C 11,1 C 56 % 1018,2 hPa 0,0 l/m 19,1 km/h (3 Bft) O-SO 111 2 min 0,000 mm 0,8 UV-I 438 W/m -0,5 C 0,6 C 25,7 km/h (4 Bft) 100,00 %
16.04.2019 09:10 7,7 C 0,0 C 11,7 C 57 % 1018,2 hPa 0,0 l/m 15,0 km/h (3 Bft) O 101 2 min 0,000 mm 0,9 UV-I 443 W/m -0,3 C 2,3 C 22,5 km/h (4 Bft) 100,00 %
16.04.2019 09:12 7,8 C 0,0 C 12,8 C 56 % 1018,2 hPa 0,0 l/m 14,1 km/h (3 Bft) O-NO 64 2 min 0,000 mm 0,9 UV-I 448 W/m -0,4 C 2,9 C 20,9 km/h (4 Bft) 100,00 %
16.04.2019 09:14 7,9 C 0,0 C 13,9 C 55 % 1018,2 hPa 0,0 l/m 19,1 km/h (3 Bft) O-NO 67 2 min 0,000 mm 0,9 UV-I 454 W/m -0,6 C 0,9 C 25,7 km/h (4 Bft) 100,00 %
16.04.2019 09:16 7,9 C 0,0 C 14,4 C 55 % 1018,2 hPa 0,0 l/m 15,7 km/h (3 Bft) O-NO 72 2 min 0,000 mm 0,9 UV-I 459 W/m -0,6 C 2,3 C 22,5 km/h (4 Bft) 100,00 %
16.04.2019 09:18 8,0 C 0,0 C 15,6 C 56 % 1018,2 hPa 0,0 l/m 14,9 km/h (3 Bft) O 94 2 min 0,000 mm 0,9 UV-I 465 W/m -0,2 C 2,8 C 20,9 km/h (4 Bft) 100,00 %
16.04.2019 09:20 8,0 C 0,0 C 16,1 C 54 % 1018,3 hPa 0,0 l/m 17,5 km/h (3 Bft) O-NO 66 2 min 0,000 mm 1,0 UV-I 471 W/m -0,7 C 1,6 C 24,1 km/h (4 Bft) 100,00 %
16.04.2019 09:22 8,1 C 0,0 C 17,2 C 55 % 1018,2 hPa 0,0 l/m 14,3 km/h (3 Bft) O-NO 67 2 min 0,000 mm 1,0 UV-I 475 W/m -0,4 C 3,2 C 22,5 km/h (4 Bft) 100,00 %
16.04.2019 09:24 8,1 C 0,0 C 17,2 C 55 % 1018,2 hPa 0,0 l/m 15,9 km/h (3 Bft) O-NO 78 2 min 0,000 mm 1,0 UV-I 480 W/m -0,4 C 2,4 C 22,5 km/h (4 Bft) 100,00 %
16.04.2019 09:26 8,1 C 0,0 C 16,7 C 55 % 1018,2 hPa 0,0 l/m 19,2 km/h (3 Bft) NO 56 2 min 0,000 mm 1,0 UV-I 485 W/m -0,4 C 1,1 C 25,7 km/h (4 Bft) 100,00 %
16.04.2019 09:28 8,1 C 0,0 C 17,2 C 54 % 1018,2 hPa 0,0 l/m 20,5 km/h (4 Bft) O-NO 76 2 min 0,000 mm 1,1 UV-I 491 W/m -0,6 C 0,7 C 25,7 km/h (4 Bft) 100,00 %
16.04.2019 09:30 8,1 C 0,0 C 17,8 C 54 % 1018,2 hPa 0,0 l/m 18,0 km/h (3 Bft) O 85 2 min 0,000 mm 1,1 UV-I 497 W/m -0,6 C 1,6 C 24,1 km/h (4 Bft) 100,00 %
16.04.2019 09:32 8,2 C 0,0 C 18,3 C 54 % 1018,2 hPa 0,0 l/m 17,9 km/h (3 Bft) O 79 2 min 0,000 mm 1,1 UV-I 501 W/m -0,5 C 1,7 C 20,9 km/h (4 Bft) 98,00 %
16.04.2019 09:34 8,2 C 0,0 C 18,3 C 54 % 1018,2 hPa 0,0 l/m 16,7 km/h (3 Bft) O-NO 73 2 min 0,000 mm 1,1 UV-I 506 W/m -0,5 C 2,2 C 24,1 km/h (4 Bft) 100,00 %
16.04.2019 09:36 8,3 C 0,0 C 18,3 C 55 % 1018,2 hPa 0,0 l/m 14,5 km/h (3 Bft) O-NO 57 2 min 0,000 mm 1,1 UV-I 511 W/m -0,2 C 3,3 C 20,9 km/h (4 Bft) 100,00 %
16.04.2019 09:38 8,4 C 0,0 C 18,9 C 55 % 1018,2 hPa 0,0 l/m 15,6 km/h (3 Bft) O 83 2 min 0,000 mm 1,2 UV-I 517 W/m -0,1 C 2,9 C 19,3 km/h (3 Bft) 100,00 %
16.04.2019 09:40 8,6 C 0,0 C 18,9 C 54 % 1018,2 hPa 0,0 l/m 17,1 km/h (3 Bft) O 80 2 min 0,000 mm 1,2 UV-I 522 W/m -0,2 C 2,6 C 24,1 km/h (4 Bft) 100,00 %
16.04.2019 09:42 8,6 C 0,0 C 18,9 C 54 % 1018,2 hPa 0,0 l/m 15,9 km/h (3 Bft) O 81 2 min 0,000 mm 1,2 UV-I 527 W/m -0,2 C 3,0 C 20,9 km/h (4 Bft) 100,00 %
16.04.2019 09:44 8,7 C 0,0 C 20,0 C 54 % 1018,1 hPa 0,0 l/m 16,9 km/h (3 Bft) O-NO 67 2 min 0,000 mm 1,2 UV-I 531 W/m -0,1 C 2,8 C 22,5 km/h (4 Bft) 100,00 %
16.04.2019 09:46 8,8 C 0,0 C 19,4 C 53 % 1018,2 hPa 0,0 l/m 19,4 km/h (3 Bft) O-SO 110 2 min 0,000 mm 1,3 UV-I 536 W/m -0,2 C 1,9 C 25,7 km/h (4 Bft) 98,00 %
16.04.2019 09:48 8,8 C 0,0 C 20,0 C 53 % 1018,1 hPa 0,0 l/m 17,8 km/h (3 Bft) O-NO 61 2 min 0,000 mm 1,3 UV-I 541 W/m -0,2 C 2,5 C 24,1 km/h (4 Bft) 98,11 %
16.04.2019 09:50 8,8 C 0,0 C 20,6 C 53 % 1018,1 hPa 0,0 l/m 12,7 km/h (3 Bft) O-SO 114 2 min 0,000 mm 1,3 UV-I 547 W/m -0,2 C 4,8 C 22,5 km/h (4 Bft) 91,67 %
16.04.2019 09:52 9,0 C 0,0 C 21,1 C 53 % 1018,1 hPa 0,0 l/m 15,1 km/h (3 Bft) O-SO 107 2 min 0,000 mm 1,3 UV-I 551 W/m -0,1 C 3,9 C 24,1 km/h (4 Bft) 96,92 %
16.04.2019 09:54 9,1 C 0,0 C 21,1 C 53 % 1018,1 hPa 0,0 l/m 14,2 km/h (3 Bft) O 93 2 min 0,000 mm 1,3 UV-I 556 W/m 0,0 C 4,4 C 20,9 km/h (4 Bft) 95,12 %
16.04.2019 09:56 9,2 C 0,0 C 21,1 C 53 % 1018,1 hPa 0,0 l/m 16,7 km/h (3 Bft) O 91 2 min 0,000 mm 1,4 UV-I 561 W/m 0,1 C 3,5 C 22,5 km/h (4 Bft) 94,34 %
16.04.2019 09:58 9,2 C 0,0 C 21,7 C 53 % 1018,1 hPa 0,0 l/m 14,9 km/h (3 Bft) O 94 2 min 0,000 mm 1,4 UV-I 565 W/m 0,1 C 4,2 C 20,9 km/h (4 Bft) 94,74 %
16.04.2019 10:00 9,3 C 0,0 C 22,2 C 52 % 1018,1 hPa 0,0 l/m 14,4 km/h (3 Bft) O 93 2 min 0,279 mm 1,4 UV-I 571 W/m -0,0 C 4,6 C 20,9 km/h (4 Bft) 96,00 %
16.04.2019 10:02 9,3 C 0,0 C 22,8 C 52 % 1018,1 hPa 0,0 l/m 13,7 km/h (3 Bft) O-SO 117 2 min 0,000 mm 1,4 UV-I 575 W/m -0,0 C 4,9 C 20,9 km/h (4 Bft) 95,45 %
16.04.2019 10:04 9,4 C 0,0 C 23,3 C 53 % 1018,2 hPa 0,0 l/m 12,1 km/h (2 Bft) O 90 2 min 0,000 mm 1,5 UV-I 579 W/m 0,3 C 5,8 C 19,3 km/h (3 Bft) 94,00 %
16.04.2019 10:06 9,4 C 0,0 C 23,3 C 52 % 1018,2 hPa 0,0 l/m 12,4 km/h (3 Bft) O-NO 73 2 min 0,000 mm 1,5 UV-I 584 W/m 0,1 C 5,6 C 17,7 km/h (3 Bft) 96,00 %
16.04.2019 10:08 9,6 C 0,0 C 23,3 C 54 % 1018,2 hPa 0,0 l/m 15,5 km/h (3 Bft) O-NO 61 2 min 0,000 mm 1,5 UV-I 587 W/m 0,8 C 4,4 C 19,3 km/h (3 Bft) 96,00 %
16.04.2019 10:10 9,8 C 0,0 C 23,3 C 52 % 1018,2 hPa 0,0 l/m 15,3 km/h (3 Bft) O-SO 113 2 min 0,000 mm 1,5 UV-I 591 W/m 0,4 C 4,8 C 20,9 km/h (4 Bft) 96,00 %
16.04.2019 10:12 9,9 C 0,0 C 23,3 C 52 % 1018,2 hPa 0,0 l/m 13,4 km/h (3 Bft) O 84 2 min 0,000 mm 1,6 UV-I 596 W/m 0,5 C 5,7 C 20,9 km/h (4 Bft) 95,12 %
16.04.2019 10:14 9,8 C 0,0 C 23,3 C 52 % 1018,2 hPa 0,0 l/m 14,2 km/h (3 Bft) O-SO 105 2 min 0,000 mm 1,6 UV-I 601 W/m 0,4 C 5,2 C 20,9 km/h (4 Bft) 98,00 %
16.04.2019 10:16 9,8 C 0,0 C 23,3 C 52 % 1018,2 hPa 0,0 l/m 14,1 km/h (3 Bft) O-NO 66 2 min 0,000 mm 1,6 UV-I 605 W/m 0,4 C 5,3 C 19,3 km/h (3 Bft) 100,00 %
16.04.2019 10:18 9,9 C 0,0 C 22,8 C 52 % 1018,2 hPa 0,0 l/m 17,0 km/h (3 Bft) O 83 2 min 0,000 mm 1,6 UV-I 611 W/m 0,5 C 4,2 C 24,1 km/h (4 Bft) 100,00 %
16.04.2019 10:20 9,9 C 0,0 C 23,3 C 52 % 1018,2 hPa 0,0 l/m 14,1 km/h (3 Bft) O-SO 113 2 min 0,000 mm 1,7 UV-I 614 W/m 0,5 C 5,4 C 19,3 km/h (3 Bft) 94,00 %
16.04.2019 10:22 10,1 C 0,0 C 23,9 C 53 % 1018,1 hPa 0,0 l/m 15,7 km/h (3 Bft) O-NO 75 2 min 0,000 mm 1,7 UV-I 619 W/m 1,0 C 5,0 C 22,5 km/h (4 Bft) 100,00 %
16.04.2019 10:24 10,2 C 0,0 C 23,9 C 51 % 1018,1 hPa 0,0 l/m 17,7 km/h (3 Bft) O 86 2 min 0,000 mm 1,7 UV-I 623 W/m 0,5 C 4,3 C 24,1 km/h (4 Bft) 100,00 %
16.04.2019 10:26 10,2 C 0,0 C 23,9 C 50 % 1018,2 hPa 0,0 l/m 16,1 km/h (3 Bft) O-SO 107 2 min 0,000 mm 1,7 UV-I 628 W/m 0,3 C 4,9 C 20,9 km/h (4 Bft) 100,00 %
16.04.2019 10:28 10,2 C 0,0 C 23,9 C 52 % 1018,2 hPa 0,0 l/m 12,0 km/h (2 Bft) O-NO 78 2 min 0,000 mm 1,8 UV-I 632 W/m 0,8 C 6,7 C 19,3 km/h (3 Bft) 95,12 %
16.04.2019 10:30 10,3 C 0,0 C 24,4 C 51 % 1018,2 hPa 0,0 l/m 11,3 km/h (2 Bft) O-NO 61 2 min 0,000 mm 1,8 UV-I 634 W/m 0,6 C 7,2 C 17,7 km/h (3 Bft) 100,00 %
16.04.2019 10:32 10,6 C 0,0 C 25,0 C 51 % 1018,2 hPa 0,0 l/m 12,3 km/h (3 Bft) O 88 2 min 0,000 mm 1,8 UV-I 638 W/m 0,9 C 7,1 C 17,7 km/h (3 Bft) 100,00 %
16.04.2019 10:34 10,5 C 0,0 C 24,4 C 49 % 1018,3 hPa 0,0 l/m 18,9 km/h (3 Bft) O-SO 103 2 min 0,000 mm 1,8 UV-I 642 W/m 0,2 C 4,3 C 24,1 km/h (4 Bft) 100,00 %
16.04.2019 10:36 10,5 C 0,0 C 25,6 C 51 % 1018,3 hPa 0,0 l/m 13,7 km/h (3 Bft) SO 128 2 min 0,000 mm 1,9 UV-I 649 W/m 0,8 C 6,3 C 16,1 km/h (3 Bft) 100,00 %
16.04.2019 10:38 10,7 C 0,0 C 26,1 C 50 % 1018,2 hPa 0,0 l/m 12,3 km/h (3 Bft) O 101 2 min 0,000 mm 1,9 UV-I 651 W/m 0,7 C 7,2 C 16,1 km/h (3 Bft) 100,00 %
16.04.2019 10:40 10,7 C 0,0 C 26,1 C 52 % 1018,3 hPa 0,0 l/m 9,5 km/h (2 Bft) O 92 2 min 0,000 mm 1,9 UV-I 655 W/m 1,3 C 8,7 C 14,5 km/h (3 Bft) 100,00 %
16.04.2019 10:42 10,8 C 0,0 C 26,1 C 50 % 1018,3 hPa 0,0 l/m 10,7 km/h (2 Bft) O-SO 111 2 min 0,000 mm 1,9 UV-I 658 W/m 0,8 C 8,1 C 14,5 km/h (3 Bft) 100,00 %
16.04.2019 10:44 10,8 C 0,0 C 26,7 C 51 % 1018,3 hPa 0,0 l/m 8,0 km/h (2 Bft) O 91 2 min 0,000 mm 2,0 UV-I 660 W/m 1,1 C 9,7 C 17,7 km/h (3 Bft) 98,15 %
16.04.2019 10:46 11,1 C 0,0 C 26,1 C 53 % 1018,3 hPa 0,0 l/m 12,9 km/h (3 Bft) O-NO 67 2 min 0,000 mm 2,0 UV-I 664 W/m 1,9 C 7,4 C 19,3 km/h (3 Bft) 98,00 %
16.04.2019 10:48 11,1 C 0,0 C 25,6 C 49 % 1018,3 hPa 0,0 l/m 12,5 km/h (3 Bft) O 96 2 min 0,000 mm 2,0 UV-I 669 W/m 0,8 C 7,5 C 17,7 km/h (3 Bft) 100,00 %
16.04.2019 10:50 11,2 C 0,0 C 26,1 C 50 % 1018,4 hPa 0,0 l/m 11,6 km/h (2 Bft) O 85 2 min 0,000 mm 2,0 UV-I 672 W/m 1,2 C 8,1 C 16,1 km/h (3 Bft) 100,00 %
16.04.2019 10:52 11,3 C 0,0 C 26,1 C 50 % 1018,3 hPa 0,0 l/m 16,4 km/h (3 Bft) O-NO 62 2 min 0,000 mm 2,1 UV-I 675 W/m 1,3 C 6,2 C 19,3 km/h (3 Bft) 100,00 %
16.04.2019 10:55 11,5 C 0,0 C 26,1 C 53 % 1018,3 hPa 0,0 l/m 12,4 km/h (3 Bft) O-NO 57 3 min 0,000 mm 2,1 UV-I 679 W/m 2,3 C 8,1 C 17,7 km/h (3 Bft) 100,00 %
16.04.2019 10:56 11,5 C 0,0 C 25,6 C 51 % 1018,3 hPa 0,0 l/m 9,0 km/h (2 Bft) NO 53 1 min 0,000 mm 2,1 UV-I 682 W/m 1,7 C 9,8 C 14,5 km/h (3 Bft) 100,00 %
16.04.2019 10:58 11,5 C 0,0 C 25,6 C 49 % 1018,3 hPa 0,0 l/m 13,5 km/h (3 Bft) O 79 2 min 0,000 mm 2,1 UV-I 685 W/m 1,2 C 7,6 C 17,7 km/h (3 Bft) 100,00 %
16.04.2019 11:00 11,4 C 0,0 C 25,6 C 50 % 1018,2 hPa 0,0 l/m 12,9 km/h (3 Bft) O-NO 76 2 min 0,356 mm 2,1 UV-I 687 W/m 1,4 C 7,7 C 20,9 km/h (4 Bft) 100,00 %
16.04.2019 11:02 11,5 C 0,0 C 25,6 C 51 % 1018,2 hPa 0,0 l/m 10,7 km/h (2 Bft) O 84 2 min 0,000 mm 2,2 UV-I 692 W/m 1,7 C 8,9 C 16,1 km/h (3 Bft) 100,00 %
16.04.2019 11:04 11,6 C 0,0 C 25,6 C 49 % 1018,2 hPa 0,0 l/m 10,6 km/h (2 Bft) O-NO 73 2 min 0,000 mm 2,2 UV-I 695 W/m 1,3 C 9,0 C 16,1 km/h (3 Bft) 97,62 %
16.04.2019 11:06 11,7 C 0,0 C 26,1 C 51 % 1018,2 hPa 0,0 l/m 12,1 km/h (2 Bft) O-NO 65 2 min 0,000 mm 2,2 UV-I 699 W/m 1,9 C 8,4 C 19,3 km/h (3 Bft) 97,73 %
16.04.2019 11:08 11,9 C 0,0 C 26,1 C 52 % 1018,2 hPa 0,0 l/m 14,6 km/h (3 Bft) O 92 2 min 0,000 mm 2,2 UV-I 702 W/m 2,4 C 7,6 C 22,5 km/h (4 Bft) 98,11 %
16.04.2019 11:10 11,9 C 0,0 C 26,7 C 47 % 1018,2 hPa 0,0 l/m 10,9 km/h (2 Bft) O-NO 69 2 min 0,000 mm 2,2 UV-I 704 W/m 1,0 C 9,2 C 16,1 km/h (3 Bft) 98,00 %
16.04.2019 11:12 11,8 C 0,0 C 26,7 C 48 % 1018,1 hPa 0,0 l/m 12,2 km/h (2 Bft) O-NO 74 2 min 0,000 mm 2,3 UV-I 708 W/m 1,2 C 8,5 C 19,3 km/h (3 Bft) 98,00 %
16.04.2019 11:14 11,9 C 0,0 C 27,2 C 52 % 1018,2 hPa 0,0 l/m 10,9 km/h (2 Bft) O-NO 64 2 min 0,000 mm 2,3 UV-I 712 W/m 2,4 C 9,2 C 20,9 km/h (4 Bft) 97,87 %
16.04.2019 11:16 12,0 C 0,0 C 26,7 C 52 % 1018,2 hPa 0,0 l/m 11,5 km/h (2 Bft) O-NO 61 2 min 0,000 mm 2,3 UV-I 713 W/m 2,5 C 9,1 C 20,9 km/h (4 Bft) 95,74 %
16.04.2019 11:18 12,1 C 0,0 C 26,1 C 51 % 1018,2 hPa 0,0 l/m 9,5 km/h (2 Bft) O 100 2 min 0,000 mm 2,3 UV-I 716 W/m 2,3 C 10,2 C 14,5 km/h (3 Bft) 97,37 %
16.04.2019 11:20 12,2 C 0,0 C 26,7 C 52 % 1018,2 hPa 0,0 l/m 11,7 km/h (2 Bft) O-NO 66 2 min 0,000 mm 2,4 UV-I 719 W/m 2,6 C 9,2 C 17,7 km/h (3 Bft) 98,00 %
16.04.2019 11:22 12,4 C 0,0 C 26,7 C 49 % 1018,1 hPa 0,0 l/m 15,6 km/h (3 Bft) O-NO 63 2 min 0,000 mm 2,4 UV-I 722 W/m 2,0 C 7,8 C 20,9 km/h (4 Bft) 92,45 %
16.04.2019 11:24 12,5 C 0,0 C 27,2 C 50 % 1018,2 hPa 0,0 l/m 15,1 km/h (3 Bft) NO 46 2 min 0,000 mm 2,4 UV-I 727 W/m 2,4 C 8,1 C 19,3 km/h (3 Bft) 94,74 %
16.04.2019 11:26 12,5 C 0,0 C 26,1 C 51 % 1018,2 hPa 0,0 l/m 16,1 km/h (3 Bft) O-NO 63 2 min 0,000 mm 2,4 UV-I 728 W/m 2,6 C 7,8 C 20,9 km/h (4 Bft) 95,74 %
16.04.2019 11:28 12,6 C 0,0 C 25,0 C 51 % 1018,2 hPa 0,0 l/m 15,5 km/h (3 Bft) O-NO 67 2 min 0,000 mm 2,4 UV-I 729 W/m 2,7 C 8,1 C 22,5 km/h (4 Bft) 97,87 %
16.04.2019 11:30 12,6 C 0,0 C 26,1 C 50 % 1018,1 hPa 0,0 l/m 13,8 km/h (3 Bft) O-NO 70 2 min 0,000 mm 2,5 UV-I 733 W/m 2,5 C 8,7 C 19,3 km/h (3 Bft) 95,74 %
16.04.2019 11:32 12,4 C 0,0 C 26,7 C 48 % 1018,2 hPa 0,0 l/m 13,2 km/h (3 Bft) O 80 2 min 0,000 mm 2,5 UV-I 737 W/m 1,7 C 8,8 C 19,3 km/h (3 Bft) 98,21 %
16.04.2019 11:34 12,4 C 0,0 C 27,2 C 47 % 1018,2 hPa 0,0 l/m 12,5 km/h (3 Bft) O 84 2 min 0,000 mm 2,5 UV-I 739 W/m 1,4 C 9,1 C 16,1 km/h (3 Bft) 97,37 %
16.04.2019 11:36 12,5 C 0,0 C 27,2 C 50 % 1018,2 hPa 0,0 l/m 17,6 km/h (3 Bft) O-NO 74 2 min 0,000 mm 2,5 UV-I 740 W/m 2,4 C 7,3 C 25,7 km/h (4 Bft) 96,23 %
16.04.2019 11:38 12,6 C 0,0 C 27,2 C 49 % 1018,1 hPa 0,0 l/m 14,0 km/h (3 Bft) O-NO 72 2 min 0,000 mm 2,5 UV-I 743 W/m 2,2 C 8,7 C 20,9 km/h (4 Bft) 97,87 %
16.04.2019 11:40 12,7 C 0,0 C 27,2 C 48 % 1018,1 hPa 0,0 l/m 15,9 km/h (3 Bft) O-NO 69 2 min 0,000 mm 2,6 UV-I 746 W/m 2,0 C 8,1 C 20,9 km/h (4 Bft) 97,87 %
16.04.2019 11:42 12,7 C 0,0 C 27,8 C 49 % 1018,1 hPa 0,0 l/m 14,0 km/h (3 Bft) O 90 2 min 0,000 mm 2,6 UV-I 750 W/m 2,3 C 8,8 C 19,3 km/h (3 Bft) 97,87 %
16.04.2019 11:44 12,7 C 0,0 C 27,8 C 49 % 1018,2 hPa 0,0 l/m 12,4 km/h (3 Bft) O 94 2 min 0,000 mm 2,6 UV-I 751 W/m 2,3 C 9,4 C 19,3 km/h (3 Bft) 100,00 %
16.04.2019 11:46 12,9 C 0,0 C 28,9 C 51 % 1018,1 hPa 0,0 l/m 12,5 km/h (3 Bft) O-SO 103 2 min 0,000 mm 2,6 UV-I 752 W/m 3,0 C 9,6 C 17,7 km/h (3 Bft) 98,59 %
16.04.2019 11:48 13,0 C 0,0 C 28,9 C 49 % 1018,2 hPa 0,0 l/m 13,5 km/h (3 Bft) O-NO 71 2 min 0,000 mm 2,6 UV-I 754 W/m 2,5 C 9,3 C 20,9 km/h (4 Bft) 100,00 %
16.04.2019 11:50 13,1 C 0,0 C 28,3 C 49 % 1018,1 hPa 0,0 l/m 16,0 km/h (3 Bft) O 83 2 min 0,000 mm 2,7 UV-I 755 W/m 2,6 C 8,5 C 24,1 km/h (4 Bft) 97,87 %
16.04.2019 11:52 13,0 C 0,0 C 27,8 C 45 % 1018,1 hPa 0,0 l/m 16,5 km/h (3 Bft) O-NO 62 2 min 0,000 mm 2,7 UV-I 760 W/m 1,4 C 8,2 C 25,7 km/h (4 Bft) 100,00 %
16.04.2019 11:54 12,9 C 0,0 C 27,8 C 46 % 1018,0 hPa 0,0 l/m 14,0 km/h (3 Bft) NO 53 2 min 0,000 mm 2,7 UV-I 760 W/m 1,6 C 9,0 C 20,9 km/h (4 Bft) 100,00 %
16.04.2019 11:56 13,0 C 0,0 C 27,8 C 47 % 1018,0 hPa 0,0 l/m 14,8 km/h (3 Bft) O-NO 63 2 min 0,000 mm 2,7 UV-I 762 W/m 2,0 C 8,8 C 19,3 km/h (3 Bft) 100,00 %
16.04.2019 11:58 13,1 C 0,0 C 27,8 C 47 % 1018,1 hPa 0,0 l/m 15,1 km/h (3 Bft) O 99 2 min 0,000 mm 2,7 UV-I 765 W/m 2,0 C 8,9 C 22,5 km/h (4 Bft) 97,56 %
16.04.2019 12:00 13,0 C 0,0 C 27,2 C 46 % 1018,1 hPa 0,0 l/m 15,1 km/h (3 Bft) O 98 2 min 0,432 mm 2,7 UV-I 765 W/m 1,7 C 8,7 C 19,3 km/h (3 Bft) 97,56 %
16.04.2019 12:02 12,9 C 0,0 C 27,8 C 47 % 1018,1 hPa 0,0 l/m 12,9 km/h (3 Bft) O-NO 65 2 min 0,000 mm 2,8 UV-I 767 W/m 1,9 C 9,5 C 20,9 km/h (4 Bft) 100,00 %
16.04.2019 12:05 13,1 C 0,0 C 27,2 C 50 % 1018,1 hPa 0,0 l/m 15,9 km/h (3 Bft) NO 44 3 min 0,000 mm 2,8 UV-I 768 W/m 2,9 C 8,6 C 22,5 km/h (4 Bft) 100,00 %
16.04.2019 12:06 13,2 C 0,0 C 27,8 C 48 % 1018,2 hPa 0,0 l/m 15,2 km/h (3 Bft) O-NO 70 1 min 0,000 mm 2,8 UV-I 770 W/m 2,4 C 8,9 C 22,5 km/h (4 Bft) 96,55 %
16.04.2019 12:10 13,6 C 0,0 C 28,9 C 48 % 1018,1 hPa 0,0 l/m 11,1 km/h (2 Bft) NO 46 4 min 0,000 mm 2,8 UV-I 774 W/m 2,8 C 11,1 C 17,7 km/h (3 Bft) 97,67 %
16.04.2019 12:12 13,7 C 0,0 C 28,9 C 47 % 1018,1 hPa 0,0 l/m 14,4 km/h (3 Bft) O-NO 58 2 min 0,000 mm 2,8 UV-I 774 W/m 2,6 C 9,8 C 19,3 km/h (3 Bft) 100,00 %
16.04.2019 12:14 13,7 C 0,0 C 28,3 C 48 % 1018,1 hPa 0,0 l/m 11,6 km/h (2 Bft) N-NO 28 2 min 0,000 mm 2,8 UV-I 776 W/m 2,9 C 10,9 C 17,7 km/h (3 Bft) 96,23 %
16.04.2019 12:16 13,9 C 0,0 C 28,9 C 49 % 1018,0 hPa 0,0 l/m 14,1 km/h (3 Bft) O 94 2 min 0,000 mm 2,9 UV-I 779 W/m 3,4 C 10,2 C 19,3 km/h (3 Bft) 100,00 %
16.04.2019 12:18 13,9 C 0,0 C 29,4 C 46 % 1018,0 hPa 0,0 l/m 15,4 km/h (3 Bft) O 82 2 min 0,000 mm 2,9 UV-I 780 W/m 2,5 C 9,7 C 19,3 km/h (3 Bft) 100,00 %
16.04.2019 12:20 13,9 C 0,0 C 29,4 C 46 % 1017,9 hPa 0,0 l/m 12,3 km/h (3 Bft) O-NO 57 2 min 0,000 mm 2,9 UV-I 781 W/m 2,5 C 10,9 C 19,3 km/h (3 Bft) 98,00 %
16.04.2019 12:22 14,0 C 0,0 C 28,9 C 48 % 1018,0 hPa 0,0 l/m 13,3 km/h (3 Bft) O 90 2 min 0,000 mm 2,9 UV-I 780 W/m 3,2 C 10,6 C 22,5 km/h (4 Bft) 100,00 %
16.04.2019 12:24 13,9 C 0,0 C 29,4 C 46 % 1018,0 hPa 0,0 l/m 8,4 km/h (2 Bft) N-NO 22 2 min 0,000 mm 2,9 UV-I 781 W/m 2,5 C 12,7 C 14,5 km/h (3 Bft) 98,21 %
16.04.2019 12:26 14,1 C 0,0 C 29,4 C 48 % 1017,9 hPa 0,0 l/m 13,2 km/h (3 Bft) O-NO 67 2 min 0,000 mm 2,9 UV-I 782 W/m 3,3 C 10,8 C 19,3 km/h (3 Bft) 97,37 %
16.04.2019 12:28 14,3 C 0,0 C 28,9 C 49 % 1017,9 hPa 0,0 l/m 15,2 km/h (3 Bft) NO 48 2 min 0,000 mm 2,9 UV-I 785 W/m 3,7 C 10,3 C 22,5 km/h (4 Bft) 98,00 %
16.04.2019 12:30 14,3 C 0,0 C 27,8 C 47 % 1017,9 hPa 0,0 l/m 14,2 km/h (3 Bft) O-NO 57 2 min 0,000 mm 2,9 UV-I 786 W/m 3,1 C 10,6 C 20,9 km/h (4 Bft) 97,87 %
16.04.2019 12:32 14,2 C 0,0 C 28,3 C 45 % 1017,9 hPa 0,0 l/m 13,0 km/h (3 Bft) O-NO 69 2 min 0,000 mm 2,9 UV-I 784 W/m 2,4 C 11,0 C 17,7 km/h (3 Bft) 97,44 %
16.04.2019 12:34 14,1 C 0,0 C 28,3 C 46 % 1017,9 hPa 0,0 l/m 13,8 km/h (3 Bft) O-NO 59 2 min 0,000 mm 3,0 UV-I 789 W/m 2,7 C 10,5 C 19,3 km/h (3 Bft) 96,00 %
16.04.2019 12:36 14,1 C 0,0 C 28,9 C 45 % 1017,9 hPa 0,0 l/m 15,4 km/h (3 Bft) O-NO 68 2 min 0,000 mm 2,9 UV-I 789 W/m 2,4 C 10,0 C 19,3 km/h (3 Bft) 96,00 %
16.04.2019 12:38 14,1 C 0,0 C 28,9 C 46 % 1017,9 hPa 0,0 l/m 14,6 km/h (3 Bft) O-SO 106 2 min 0,000 mm 3,0 UV-I 788 W/m 2,7 C 10,2 C 20,9 km/h (4 Bft) 96,15 %
16.04.2019 12:40 14,1 C 0,0 C 28,9 C 45 % 1017,9 hPa 0,0 l/m 18,4 km/h (3 Bft) O-NO 63 2 min 0,000 mm 3,0 UV-I 787 W/m 2,4 C 9,0 C 24,1 km/h (4 Bft) 97,78 %
16.04.2019 12:42 14,2 C 0,0 C 30,0 C 45 % 1017,9 hPa 0,0 l/m 9,5 km/h (2 Bft) NO 36 2 min 0,000 mm 3,0 UV-I 790 W/m 2,4 C 12,5 C 16,1 km/h (3 Bft) 98,00 %
16.04.2019 12:44 14,5 C 0,0 C 30,6 C 47 % 1017,9 hPa 0,0 l/m 9,5 km/h (2 Bft) O 88 2 min 0,000 mm 3,0 UV-I 790 W/m 3,3 C 12,8 C 14,5 km/h (3 Bft) 100,00 %
16.04.2019 12:46 14,7 C 0,0 C 30,6 C 48 % 1018,0 hPa 0,0 l/m 14,2 km/h (3 Bft) NO 54 2 min 0,000 mm 3,0 UV-I 792 W/m 3,8 C 11,1 C 17,7 km/h (3 Bft) 98,11 %
16.04.2019 12:48 14,7 C 0,0 C 28,9 C 47 % 1018,0 hPa 0,0 l/m 10,6 km/h (2 Bft) NO 53 2 min 0,000 mm 3,0 UV-I 792 W/m 3,5 C 12,5 C 19,3 km/h (3 Bft) 97,73 %
16.04.2019 12:50 14,6 C 0,0 C 28,3 C 45 % 1017,9 hPa 0,0 l/m 10,1 km/h (2 Bft) O-SO 106 2 min 0,000 mm 3,0 UV-I 791 W/m 2,8 C 12,6 C 14,5 km/h (3 Bft) 100,00 %
16.04.2019 12:52 14,6 C 0,0 C 28,3 C 48 % 1017,9 hPa 0,0 l/m 12,0 km/h (2 Bft) O-NO 61 2 min 0,000 mm 3,0 UV-I 791 W/m 3,7 C 11,8 C 19,3 km/h (3 Bft) 100,00 %
16.04.2019 12:54 14,6 C 0,0 C 28,3 C 47 % 1018,0 hPa 0,0 l/m 10,0 km/h (2 Bft) NO 53 2 min 0,000 mm 3,0 UV-I 791 W/m 3,4 C 12,7 C 16,1 km/h (3 Bft) 97,73 %
16.04.2019 12:56 14,7 C 0,0 C 28,9 C 44 % 1017,9 hPa 0,0 l/m 11,9 km/h (2 Bft) O 95 2 min 0,000 mm 3,0 UV-I 792 W/m 2,6 C 12,0 C 17,7 km/h (3 Bft) 96,23 %
16.04.2019 12:58 14,7 C 0,0 C 30,0 C 46 % 1018,0 hPa 0,0 l/m 9,1 km/h (2 Bft) O-NO 78 2 min 0,000 mm 3,0 UV-I 795 W/m 3,2 C 13,2 C 12,9 km/h (3 Bft) 97,14 %
16.04.2019 13:00 14,8 C 0,0 C 30,6 C 44 % 1018,0 hPa 0,0 l/m 10,2 km/h (2 Bft) O 80 2 min 0,482 mm 3,0 UV-I 794 W/m 2,7 C 12,8 C 16,1 km/h (3 Bft) 98,11 %
16.04.2019 13:02 14,7 C 0,0 C 30,0 C 44 % 1018,0 hPa 0,0 l/m 9,4 km/h (2 Bft) O-NO 71 2 min 0,000 mm 3,0 UV-I 793 W/m 2,6 C 13,1 C 16,1 km/h (3 Bft) 93,33 %
16.04.2019 13:04 14,7 C 0,0 C 30,0 C 47 % 1017,9 hPa 0,0 l/m 8,5 km/h (2 Bft) NO 38 2 min 0,000 mm 3,0 UV-I 791 W/m 3,5 C 13,5 C 14,5 km/h (3 Bft) 98,28 %
16.04.2019 13:06 14,8 C 0,0 C 29,4 C 44 % 1017,9 hPa 0,0 l/m 14,5 km/h (3 Bft) O-NO 69 2 min 0,000 mm 3,0 UV-I 790 W/m 2,7 C 11,1 C 20,9 km/h (4 Bft) 94,92 %
16.04.2019 13:08 14,8 C 0,0 C 28,9 C 44 % 1017,9 hPa 0,0 l/m 11,0 km/h (2 Bft) O-NO 70 2 min 0,000 mm 3,0 UV-I 789 W/m 2,7 C 12,5 C 16,1 km/h (3 Bft) 97,56 %
16.04.2019 13:10 14,7 C 0,0 C 29,4 C 43 % 1017,8 hPa 0,0 l/m 7,1 km/h (2 Bft) NO 56 2 min 0,000 mm 3,0 UV-I 791 W/m 2,3 C 14,3 C 11,3 km/h (2 Bft) 97,87 %
16.04.2019 13:12 14,8 C 0,0 C 29,4 C 46 % 1017,7 hPa 0,0 l/m 11,1 km/h (2 Bft) NO 42 2 min 0,000 mm 3,0 UV-I 791 W/m 3,3 C 12,4 C 17,7 km/h (3 Bft) 96,00 %
16.04.2019 13:14 14,7 C 0,0 C 28,3 C 45 % 1017,7 hPa 0,0 l/m 9,7 km/h (2 Bft) NO 40 2 min 0,000 mm 3,1 UV-I 791 W/m 2,9 C 12,9 C 19,3 km/h (3 Bft) 97,62 %
16.04.2019 13:16 14,8 C 0,0 C 27,8 C 48 % 1017,7 hPa 0,0 l/m 8,3 km/h (2 Bft) O-NO 68 2 min 0,000 mm 3,0 UV-I 785 W/m 3,9 C 13,7 C 17,7 km/h (3 Bft) 98,18 %
16.04.2019 13:18 15,0 C 0,0 C 28,9 C 45 % 1017,7 hPa 0,0 l/m 10,3 km/h (2 Bft) O 81 2 min 0,000 mm 3,0 UV-I 784 W/m 3,2 C 13,0 C 17,7 km/h (3 Bft) 95,24 %
16.04.2019 13:20 15,1 C 0,0 C 28,9 C 45 % 1017,7 hPa 0,0 l/m 15,0 km/h (3 Bft) NO 51 2 min 0,000 mm 3,0 UV-I 789 W/m 3,3 C 11,3 C 19,3 km/h (3 Bft) 96,00 %
16.04.2019 13:22 15,2 C 0,0 C 29,4 C 43 % 1017,7 hPa 0,0 l/m 10,3 km/h (2 Bft) O-NO 67 2 min 0,000 mm 3,0 UV-I 785 W/m 2,7 C 13,2 C 16,1 km/h (3 Bft) 100,00 %
16.04.2019 13:24 15,2 C 0,0 C 30,0 C 46 % 1017,7 hPa 0,0 l/m 9,1 km/h (2 Bft) O-NO 61 2 min 0,000 mm 3,0 UV-I 783 W/m 3,7 C 13,8 C 17,7 km/h (3 Bft) 100,00 %
16.04.2019 13:26 15,3 C 0,0 C 30,0 C 47 % 1017,8 hPa 0,0 l/m 13,3 km/h (3 Bft) O-NO 76 2 min 0,000 mm 3,0 UV-I 781 W/m 4,1 C 12,1 C 19,3 km/h (3 Bft) 100,00 %
16.04.2019 13:28 15,3 C 0,0 C 29,4 C 44 % 1017,7 hPa 0,0 l/m 7,9 km/h (2 Bft) O-NO 59 2 min 0,000 mm 3,0 UV-I 783 W/m 3,1 C 14,5 C 16,1 km/h (3 Bft) 100,00 %
16.04.2019 13:30 15,4 C 0,0 C 30,0 C 46 % 1017,7 hPa 0,0 l/m 9,2 km/h (2 Bft) O 86 2 min 0,000 mm 3,0 UV-I 778 W/m 3,8 C 13,9 C 14,5 km/h (3 Bft) 100,00 %
16.04.2019 13:32 15,6 C 0,0 C 30,0 C 46 % 1017,7 hPa 0,0 l/m 10,2 km/h (2 Bft) O-NO 67 2 min 0,000 mm 3,0 UV-I 778 W/m 4,0 C 13,7 C 16,1 km/h (3 Bft) 100,00 %
16.04.2019 13:34 15,4 C 0,0 C 29,4 C 43 % 1017,6 hPa 0,0 l/m 7,5 km/h (2 Bft) NO 47 2 min 0,000 mm 3,0 UV-I 779 W/m 2,9 C 14,8 C 17,7 km/h (3 Bft) 100,00 %
16.04.2019 13:36 15,4 C 0,0 C 28,9 C 45 % 1017,6 hPa 0,0 l/m 13,8 km/h (3 Bft) O-NO 68 2 min 0,000 mm 3,0 UV-I 776 W/m 3,5 C 12,1 C 20,9 km/h (4 Bft) 97,56 %
16.04.2019 13:38 15,4 C 0,0 C 29,4 C 45 % 1017,7 hPa 0,0 l/m 9,6 km/h (2 Bft) NO 47 2 min 0,000 mm 3,0 UV-I 773 W/m 3,5 C 13,7 C 17,7 km/h (3 Bft) 100,00 %
16.04.2019 13:40 15,6 C 0,0 C 29,4 C 45 % 1017,7 hPa 0,0 l/m 10,3 km/h (2 Bft) O 91 2 min 0,000 mm 3,0 UV-I 778 W/m 3,7 C 13,7 C 14,5 km/h (3 Bft) 100,00 %
16.04.2019 13:42 15,8 C 0,0 C 30,0 C 45 % 1017,7 hPa 0,0 l/m 13,6 km/h (3 Bft) O-NO 67 2 min 0,000 mm 3,0 UV-I 778 W/m 3,9 C 12,6 C 20,9 km/h (4 Bft) 100,00 %
16.04.2019 13:44 15,7 C 0,0 C 27,8 C 43 % 1017,7 hPa 0,0 l/m 14,1 km/h (3 Bft) NO 37 2 min 0,000 mm 2,9 UV-I 774 W/m 3,2 C 12,3 C 19,3 km/h (3 Bft) 97,87 %
16.04.2019 13:46 15,6 C 0,0 C 27,8 C 43 % 1017,7 hPa 0,0 l/m 12,8 km/h (3 Bft) O-NO 59 2 min 0,000 mm 2,9 UV-I 771 W/m 3,1 C 12,7 C 17,7 km/h (3 Bft) 98,00 %
16.04.2019 13:48 15,6 C 0,0 C 27,8 C 43 % 1017,6 hPa 0,0 l/m 11,0 km/h (2 Bft) NO 38 2 min 0,000 mm 2,9 UV-I 772 W/m 3,1 C 13,4 C 20,9 km/h (4 Bft) 97,22 %
16.04.2019 13:50 15,6 C 0,0 C 27,8 C 44 % 1017,6 hPa 0,0 l/m 10,5 km/h (2 Bft) N-NO 14 2 min 0,000 mm 2,9 UV-I 772 W/m 3,4 C 13,6 C 16,1 km/h (3 Bft) 98,00 %
16.04.2019 13:52 15,8 C 0,0 C 28,3 C 43 % 1017,6 hPa 0,0 l/m 6,0 km/h (2 Bft) O-SO 109 2 min 0,000 mm 2,9 UV-I 771 W/m 3,3 C 15,8 C 12,9 km/h (3 Bft) 95,12 %
16.04.2019 13:54 16,0 C 0,0 C 30,0 C 47 % 1017,6 hPa 0,0 l/m 6,9 km/h (2 Bft) O-NO 71 2 min 0,000 mm 2,9 UV-I 771 W/m 4,7 C 15,7 C 16,1 km/h (3 Bft) 96,00 %
16.04.2019 13:56 16,2 C 0,0 C 29,4 C 44 % 1017,6 hPa 0,0 l/m 12,7 km/h (3 Bft) O-NO 63 2 min 0,000 mm 2,9 UV-I 771 W/m 3,9 C 13,4 C 20,9 km/h (4 Bft) 98,00 %
16.04.2019 13:58 16,1 C 0,0 C 28,9 C 44 % 1017,6 hPa 0,0 l/m 14,6 km/h (3 Bft) O-NO 74 2 min 0,000 mm 2,9 UV-I 767 W/m 3,8 C 12,6 C 22,5 km/h (4 Bft) 97,87 %
16.04.2019 14:00 15,9 C 0,0 C 28,9 C 44 % 1017,5 hPa 0,0 l/m 8,9 km/h (2 Bft) O 91 2 min 0,483 mm 2,9 UV-I 760 W/m 3,7 C 14,6 C 19,3 km/h (3 Bft) 98,00 %
16.04.2019 14:02 15,8 C 0,0 C 28,9 C 43 % 1017,6 hPa 0,0 l/m 12,2 km/h (2 Bft) O-NO 65 2 min 0,000 mm 2,8 UV-I 758 W/m 3,3 C 13,1 C 17,7 km/h (3 Bft) 97,87 %
16.04.2019 14:04 15,8 C 0,0 C 28,3 C 43 % 1017,5 hPa 0,0 l/m 10,5 km/h (2 Bft) O-NO 74 2 min 0,000 mm 2,8 UV-I 756 W/m 3,3 C 13,8 C 19,3 km/h (3 Bft) 94,74 %
16.04.2019 14:06 15,9 C 0,0 C 27,8 C 44 % 1017,5 hPa 0,0 l/m 14,7 km/h (3 Bft) NO 46 2 min 0,000 mm 2,8 UV-I 757 W/m 3,7 C 12,4 C 19,3 km/h (3 Bft) 96,43 %
16.04.2019 14:08 16,0 C 0,0 C 28,9 C 42 % 1017,5 hPa 0,0 l/m 10,2 km/h (2 Bft) NO 52 2 min 0,000 mm 2,8 UV-I 758 W/m 3,1 C 14,1 C 16,1 km/h (3 Bft) 98,00 %
16.04.2019 14:10 16,1 C 0,0 C 28,9 C 44 % 1017,5 hPa 0,0 l/m 9,4 km/h (2 Bft) NO 40 2 min 0,000 mm 2,8 UV-I 755 W/m 3,8 C 14,6 C 17,7 km/h (3 Bft) 100,00 %
16.04.2019 14:12 16,1 C 0,0 C 29,4 C 40 % 1017,5 hPa 0,0 l/m 9,9 km/h (2 Bft) O-NO 59 2 min 0,000 mm 2,8 UV-I 751 W/m 2,5 C 14,4 C 16,1 km/h (3 Bft) 96,00 %
16.04.2019 14:14 16,2 C 0,0 C 30,0 C 42 % 1017,5 hPa 0,0 l/m 11,5 km/h (2 Bft) O-NO 69 2 min 0,000 mm 2,8 UV-I 750 W/m 3,3 C 13,8 C 19,3 km/h (3 Bft) 94,74 %
16.04.2019 14:16 16,3 C 0,0 C 29,4 C 40 % 1017,4 hPa 0,0 l/m 13,7 km/h (3 Bft) NO 45 2 min 0,000 mm 2,8 UV-I 745 W/m 2,7 C 13,2 C 22,5 km/h (4 Bft) 98,04 %
16.04.2019 14:18 16,4 C 0,0 C 30,0 C 43 % 1017,4 hPa 0,0 l/m 12,7 km/h (3 Bft) N-NO 31 2 min 0,000 mm 2,7 UV-I 745 W/m 3,8 C 13,6 C 17,7 km/h (3 Bft) 97,87 %
16.04.2019 14:20 16,5 C 0,0 C 29,4 C 46 % 1017,3 hPa 0,0 l/m 14,8 km/h (3 Bft) NO 42 2 min 0,000 mm 2,8 UV-I 749 W/m 4,8 C 13,1 C 20,9 km/h (4 Bft) 97,73 %
16.04.2019 14:22 16,6 C 0,0 C 30,0 C 41 % 1017,4 hPa 0,0 l/m 9,4 km/h (2 Bft) NO 47 2 min 0,000 mm 2,7 UV-I 748 W/m 3,3 C 15,1 C 16,1 km/h (3 Bft) 98,21 %
16.04.2019 14:24 16,6 C 0,0 C 29,4 C 41 % 1017,3 hPa 0,0 l/m 12,2 km/h (2 Bft) NO 34 2 min 0,000 mm 2,7 UV-I 743 W/m 3,3 C 14,0 C 17,7 km/h (3 Bft) 94,29 %
16.04.2019 14:26 16,3 C 0,0 C 28,3 C 44 % 1017,3 hPa 0,0 l/m 10,8 km/h (2 Bft) NO 34 2 min 0,000 mm 2,7 UV-I 739 W/m 4,0 C 14,2 C 16,1 km/h (3 Bft) 96,55 %
16.04.2019 14:28 16,4 C 0,0 C 28,9 C 41 % 1017,3 hPa 0,0 l/m 7,4 km/h (2 Bft) O-NO 61 2 min 0,000 mm 2,7 UV-I 732 W/m 3,1 C 15,9 C 11,3 km/h (2 Bft) 97,44 %
16.04.2019 14:30 16,5 C 0,0 C 29,4 C 39 % 1017,2 hPa 0,0 l/m 9,4 km/h (2 Bft) O-NO 71 2 min 0,000 mm 2,7 UV-I 729 W/m 2,5 C 15,0 C 14,5 km/h (3 Bft) 94,00 %
16.04.2019 14:32 16,6 C 0,0 C 30,0 C 43 % 1017,2 hPa 0,0 l/m 8,6 km/h (2 Bft) NO 49 2 min 0,000 mm 2,7 UV-I 729 W/m 4,0 C 15,5 C 14,5 km/h (3 Bft) 97,56 %
16.04.2019 14:34 16,6 C 0,0 C 29,4 C 45 % 1017,2 hPa 0,0 l/m 11,9 km/h (2 Bft) NO 35 2 min 0,000 mm 2,7 UV-I 729 W/m 4,6 C 14,2 C 17,7 km/h (3 Bft) 89,29 %
16.04.2019 14:36 16,8 C 0,0 C 30,0 C 46 % 1017,2 hPa 0,0 l/m 6,9 km/h (2 Bft) O-NO 76 2 min 0,000 mm 2,6 UV-I 728 W/m 5,1 C 16,5 C 16,1 km/h (3 Bft) 93,18 %
16.04.2019 14:38 16,7 C 0,0 C 30,6 C 41 % 1017,2 hPa 0,0 l/m 9,4 km/h (2 Bft) N-NO 27 2 min 0,000 mm 2,6 UV-I 724 W/m 3,4 C 15,2 C 12,9 km/h (3 Bft) 94,34 %
16.04.2019 14:40 16,7 C 0,0 C 30,0 C 38 % 1017,1 hPa 0,0 l/m 12,7 km/h (3 Bft) O-NO 65 2 min 0,000 mm 2,6 UV-I 720 W/m 2,3 C 14,0 C 20,9 km/h (4 Bft) 95,12 %
16.04.2019 14:42 16,7 C 0,0 C 30,0 C 39 % 1017,1 hPa 0,0 l/m 12,4 km/h (3 Bft) O 95 2 min 0,000 mm 2,6 UV-I 715 W/m 2,7 C 14,1 C 17,7 km/h (3 Bft) 96,23 %
16.04.2019 14:44 16,6 C 0,0 C 30,0 C 39 % 1017,1 hPa 0,0 l/m 13,2 km/h (3 Bft) NO 54 2 min 0,000 mm 2,5 UV-I 712 W/m 2,6 C 13,7 C 17,7 km/h (3 Bft) 95,12 %
16.04.2019 14:46 16,4 C 0,0 C 29,4 C 39 % 1017,1 hPa 0,0 l/m 10,0 km/h (2 Bft) O-NO 74 2 min 0,000 mm 2,5 UV-I 710 W/m 2,4 C 14,7 C 17,7 km/h (3 Bft) 92,68 %
16.04.2019 14:48 16,4 C 0,0 C 29,4 C 45 % 1017,1 hPa 0,0 l/m 8,1 km/h (2 Bft) O-NO 69 2 min 0,000 mm 2,5 UV-I 709 W/m 4,4 C 15,5 C 16,1 km/h (3 Bft) 95,74 %
16.04.2019 14:50 16,6 C 0,0 C 28,9 C 39 % 1017,1 hPa 0,0 l/m 11,3 km/h (2 Bft) O 94 2 min 0,000 mm 2,5 UV-I 707 W/m 2,6 C 14,4 C 16,1 km/h (3 Bft) 94,00 %
16.04.2019 14:52 16,7 C 0,0 C 29,4 C 40 % 1017,0 hPa 0,0 l/m 17,7 km/h (3 Bft) O-NO 77 2 min 0,000 mm 2,5 UV-I 704 W/m 3,0 C 12,5 C 24,1 km/h (4 Bft) 91,49 %
16.04.2019 14:54 16,7 C 0,0 C 28,9 C 41 % 1017,1 hPa 0,0 l/m 12,9 km/h (3 Bft) N-NO 25 2 min 0,000 mm 2,4 UV-I 698 W/m 3,4 C 13,9 C 17,7 km/h (3 Bft) 95,74 %
16.04.2019 14:56 16,7 C 0,0 C 28,3 C 44 % 1017,1 hPa 0,0 l/m 10,0 km/h (2 Bft) NO 38 2 min 0,000 mm 2,4 UV-I 694 W/m 4,4 C 15,0 C 14,5 km/h (3 Bft) 94,00 %
16.04.2019 14:58 16,7 C 0,0 C 28,3 C 43 % 1017,1 hPa 0,0 l/m 8,4 km/h (2 Bft) NO 44 2 min 0,000 mm 2,4 UV-I 691 W/m 4,1 C 15,7 C 11,3 km/h (2 Bft) 97,37 %
16.04.2019 15:00 16,9 C 0,0 C 30,0 C 41 % 1017,1 hPa 0,0 l/m 6,9 km/h (2 Bft) N-NO 26 2 min 0,483 mm 2,3 UV-I 687 W/m 3,6 C 16,7 C 12,9 km/h (3 Bft) 94,34 %
16.04.2019 15:02 17,2 C 0,0 C 30,0 C 44 % 1017,1 hPa 0,0 l/m 8,0 km/h (2 Bft) NO 53 2 min 0,000 mm 2,3 UV-I 683 W/m 4,8 C 16,4 C 11,3 km/h (2 Bft) 94,34 %
16.04.2019 15:04 17,2 C 0,0 C 29,4 C 40 % 1017,1 hPa 0,0 l/m 10,1 km/h (2 Bft) O 86 2 min 0,000 mm 2,3 UV-I 679 W/m 3,5 C 15,5 C 16,1 km/h (3 Bft) 97,87 %
16.04.2019 15:06 17,2 C 0,0 C 30,0 C 40 % 1017,0 hPa 0,0 l/m 8,5 km/h (2 Bft) O 90 2 min 0,000 mm 2,3 UV-I 677 W/m 3,5 C 16,2 C 12,9 km/h (3 Bft) 97,87 %
16.04.2019 15:08 17,2 C 0,0 C 30,6 C 40 % 1017,0 hPa 0,0 l/m 9,1 km/h (2 Bft) NO 42 2 min 0,000 mm 2,3 UV-I 675 W/m 3,5 C 15,9 C 12,9 km/h (3 Bft) 97,87 %
16.04.2019 15:10 17,1 C 0,0 C 29,4 C 42 % 1017,0 hPa 0,0 l/m 11,6 km/h (2 Bft) N-NO 19 2 min 0,000 mm 2,3 UV-I 671 W/m 4,1 C 14,8 C 16,1 km/h (3 Bft) 95,56 %
16.04.2019 15:12 17,1 C 0,0 C 29,4 C 42 % 1017,0 hPa 0,0 l/m 7,5 km/h (2 Bft) O-NO 59 2 min 0,000 mm 2,2 UV-I 668 W/m 4,1 C 16,5 C 11,3 km/h (2 Bft) 96,00 %
16.04.2019 15:14 17,1 C 0,0 C 28,9 C 42 % 1017,0 hPa 0,0 l/m 7,5 km/h (2 Bft) NO 39 2 min 0,000 mm 2,2 UV-I 662 W/m 4,1 C 16,5 C 11,3 km/h (2 Bft) 94,74 %
16.04.2019 15:16 17,1 C 0,0 C 28,9 C 44 % 1016,9 hPa 0,0 l/m 10,0 km/h (2 Bft) O 83 2 min 0,000 mm 2,2 UV-I 660 W/m 4,8 C 15,4 C 14,5 km/h (3 Bft) 95,45 %
16.04.2019 15:18 17,2 C 0,0 C 29,4 C 37 % 1016,9 hPa 0,0 l/m 11,5 km/h (2 Bft) O 84 2 min 0,000 mm 2,2 UV-I 656 W/m 2,4 C 15,0 C 16,1 km/h (3 Bft) 95,74 %
16.04.2019 15:20 17,2 C 0,0 C 30,0 C 38 % 1017,0 hPa 0,0 l/m 7,3 km/h (2 Bft) O-SO 102 2 min 0,000 mm 2,2 UV-I 652 W/m 2,8 C 16,8 C 12,9 km/h (3 Bft) 95,74 %
16.04.2019 15:22 17,2 C 0,0 C 30,6 C 39 % 1016,9 hPa 0,0 l/m 8,6 km/h (2 Bft) NO 41 2 min 0,000 mm 2,1 UV-I 648 W/m 3,1 C 16,1 C 16,1 km/h (3 Bft) 94,64 %
16.04.2019 15:24 17,4 C 0,0 C 31,1 C 40 % 1016,9 hPa 0,0 l/m 8,4 km/h (2 Bft) O 88 2 min 0,000 mm 2,1 UV-I 643 W/m 3,7 C 16,4 C 14,5 km/h (3 Bft) 95,45 %
16.04.2019 15:26 17,6 C 0,0 C 31,1 C 38 % 1016,9 hPa 0,0 l/m 6,9 km/h (2 Bft) O-NO 67 2 min 0,000 mm 2,1 UV-I 642 W/m 3,1 C 17,4 C 9,7 km/h (2 Bft) 95,12 %
16.04.2019 15:28 17,6 C 0,0 C 30,6 C 37 % 1016,9 hPa 0,0 l/m 8,8 km/h (2 Bft) NO 46 2 min 0,000 mm 2,1 UV-I 638 W/m 2,7 C 16,5 C 14,5 km/h (3 Bft) 93,18 %
16.04.2019 15:30 17,4 C 0,0 C 28,9 C 41 % 1016,8 hPa 0,0 l/m 11,0 km/h (2 Bft) N-NO 33 2 min 0,000 mm 2,1 UV-I 634 W/m 4,0 C 15,4 C 16,1 km/h (3 Bft) 95,65 %
16.04.2019 15:32 17,3 C 0,0 C 28,9 C 39 % 1016,8 hPa 0,0 l/m 7,9 km/h (2 Bft) N-NO 32 2 min 0,000 mm 2,1 UV-I 632 W/m 3,2 C 16,6 C 9,7 km/h (2 Bft) 91,07 %
16.04.2019 15:34 17,2 C 0,0 C 28,9 C 38 % 1016,7 hPa 0,0 l/m 5,6 km/h (1 Bft) O-SO 115 2 min 0,000 mm 2,0 UV-I 627 W/m 2,8 C 17,2 C 11,3 km/h (2 Bft) 97,56 %
16.04.2019 15:36 17,2 C 0,0 C 29,4 C 37 % 1016,8 hPa 0,0 l/m 10,3 km/h (2 Bft) O-NO 75 2 min 0,000 mm 2,0 UV-I 621 W/m 2,4 C 15,4 C 14,5 km/h (3 Bft) 95,45 %
16.04.2019 15:38 17,3 C 0,0 C 30,0 C 40 % 1016,7 hPa 0,0 l/m 9,2 km/h (2 Bft) O 87 2 min 0,000 mm 2,0 UV-I 617 W/m 3,6 C 16,0 C 14,5 km/h (3 Bft) 96,43 %
16.04.2019 15:40 17,3 C 0,0 C 29,4 C 38 % 1016,7 hPa 0,0 l/m 7,3 km/h (2 Bft) O-NO 74 2 min 0,000 mm 1,9 UV-I 612 W/m 2,9 C 16,9 C 12,9 km/h (3 Bft) 95,74 %
16.04.2019 15:42 17,2 C 0,0 C 29,4 C 40 % 1016,7 hPa 0,0 l/m 7,7 km/h (2 Bft) O-SO 116 2 min 0,000 mm 1,9 UV-I 608 W/m 3,5 C 16,6 C 14,5 km/h (3 Bft) 100,00 %
16.04.2019 15:44 17,3 C 0,0 C 30,0 C 35 % 1016,7 hPa 0,0 l/m 11,8 km/h (2 Bft) O-SO 111 2 min 0,000 mm 1,9 UV-I 605 W/m 1,7 C 15,0 C 16,1 km/h (3 Bft) 97,14 %
16.04.2019 15:46 17,3 C 0,0 C 30,0 C 37 % 1016,7 hPa 0,0 l/m 9,7 km/h (2 Bft) O 80 2 min 0,000 mm 1,9 UV-I 602 W/m 2,5 C 15,8 C 14,5 km/h (3 Bft) 97,87 %
16.04.2019 15:48 17,3 C 0,0 C 30,0 C 36 % 1016,6 hPa 0,0 l/m 12,9 km/h (3 Bft) O-NO 71 2 min 0,000 mm 1,9 UV-I 598 W/m 2,1 C 14,6 C 19,3 km/h (3 Bft) 97,62 %
16.04.2019 15:50 17,2 C 0,0 C 29,4 C 40 % 1016,6 hPa 0,0 l/m 11,0 km/h (2 Bft) O-NO 63 2 min 0,000 mm 1,8 UV-I 592 W/m 3,5 C 15,2 C 17,7 km/h (3 Bft) 98,00 %
16.04.2019 15:52 17,2 C 0,0 C 28,9 C 38 % 1016,6 hPa 0,0 l/m 10,0 km/h (2 Bft) O-NO 67 2 min 0,000 mm 1,8 UV-I 586 W/m 2,8 C 15,5 C 16,1 km/h (3 Bft) 97,37 %
16.04.2019 15:54 17,2 C 0,0 C 28,9 C 36 % 1016,6 hPa 0,0 l/m 9,6 km/h (2 Bft) O 90 2 min 0,000 mm 1,8 UV-I 582 W/m 2,0 C 15,7 C 14,5 km/h (3 Bft) 98,11 %
16.04.2019 15:56 17,1 C 0,0 C 28,9 C 36 % 1016,6 hPa 0,0 l/m 10,4 km/h (2 Bft) O-SO 109 2 min 0,000 mm 1,7 UV-I 578 W/m 1,9 C 15,3 C 16,1 km/h (3 Bft) 97,56 %
16.04.2019 15:59 17,2 C 0,0 C 30,0 C 37 % 1016,6 hPa 0,0 l/m 6,1 km/h (2 Bft) O-NO 59 3 min 0,000 mm 1,7 UV-I 575 W/m 2,4 C 17,2 C 14,5 km/h (3 Bft) 97,37 %
16.04.2019 16:00 17,2 C 0,0 C 30,6 C 37 % 1016,6 hPa 0,0 l/m 13,3 km/h (3 Bft) O-NO 76 1 min 0,000 mm 1,7 UV-I 573 W/m 2,4 C 14,4 C 16,1 km/h (3 Bft) 100,00 %
16.04.2019 16:02 17,2 C 0,0 C 28,9 C 38 % 1016,6 hPa 0,0 l/m 16,2 km/h (3 Bft) NO 34 2 min 0,406 mm 1,7 UV-I 571 W/m 2,8 C 13,5 C 22,5 km/h (4 Bft) 97,56 %
16.04.2019 16:04 17,3 C 0,0 C 27,8 C 39 % 1016,6 hPa 0,0 l/m 15,9 km/h (3 Bft) O-NO 65 2 min 0,000 mm 1,6 UV-I 565 W/m 3,2 C 13,7 C 20,9 km/h (4 Bft) 94,34 %
16.04.2019 16:06 17,5 C 0,0 C 28,3 C 38 % 1016,6 hPa 0,0 l/m 10,8 km/h (2 Bft) O-NO 62 2 min 0,000 mm 1,6 UV-I 560 W/m 3,0 C 15,6 C 19,3 km/h (3 Bft) 97,87 %
16.04.2019 16:08 17,5 C 0,0 C 27,2 C 37 % 1016,6 hPa 0,0 l/m 14,0 km/h (3 Bft) O-NO 57 2 min 0,000 mm 1,6 UV-I 555 W/m 2,7 C 14,5 C 22,5 km/h (4 Bft) 97,14 %
16.04.2019 16:10 17,4 C 0,0 C 27,8 C 39 % 1016,6 hPa 0,0 l/m 14,2 km/h (3 Bft) O-NO 70 2 min 0,000 mm 1,6 UV-I 548 W/m 3,3 C 14,3 C 22,5 km/h (4 Bft) 98,00 %
16.04.2019 16:12 17,4 C 0,0 C 28,3 C 37 % 1016,6 hPa 0,0 l/m 13,4 km/h (3 Bft) O-NO 61 2 min 0,000 mm 1,5 UV-I 543 W/m 2,6 C 14,6 C 17,7 km/h (3 Bft) 97,22 %
16.04.2019 16:14 17,3 C 0,0 C 28,9 C 36 % 1016,6 hPa 0,0 l/m 9,5 km/h (2 Bft) NO 44 2 min 0,000 mm 1,5 UV-I 537 W/m 2,1 C 15,9 C 16,1 km/h (3 Bft) 98,36 %
16.04.2019 16:16 17,4 C 0,0 C 29,4 C 36 % 1016,6 hPa 0,0 l/m 7,9 km/h (2 Bft) O-SO 103 2 min 0,000 mm 1,5 UV-I 532 W/m 2,2 C 16,7 C 11,3 km/h (2 Bft) 95,74 %
16.04.2019 16:18 17,5 C 0,0 C 30,0 C 38 % 1016,6 hPa 0,0 l/m 4,8 km/h (1 Bft) O-NO 65 2 min 0,000 mm 1,5 UV-I 528 W/m 3,0 C 17,5 C 9,7 km/h (2 Bft) 96,00 %
16.04.2019 16:20 17,6 C 0,0 C 29,4 C 41 % 1016,6 hPa 0,0 l/m 10,9 km/h (2 Bft) O-NO 59 2 min 0,000 mm 1,5 UV-I 526 W/m 4,2 C 15,7 C 19,3 km/h (3 Bft) 95,74 %
16.04.2019 16:22 17,6 C 0,0 C 29,4 C 38 % 1016,6 hPa 0,0 l/m 10,8 km/h (2 Bft) NO 39 2 min 0,000 mm 1,4 UV-I 520 W/m 3,1 C 15,7 C 19,3 km/h (3 Bft) 95,74 %
16.04.2019 16:24 17,4 C 0,0 C 27,2 C 40 % 1016,6 hPa 0,0 l/m 15,7 km/h (3 Bft) O-NO 65 2 min 0,000 mm 1,4 UV-I 514 W/m 3,7 C 13,9 C 20,9 km/h (4 Bft) 91,67 %
16.04.2019 16:26 17,4 C 0,0 C 26,7 C 39 % 1016,6 hPa 0,0 l/m 13,7 km/h (3 Bft) O-NO 60 2 min 0,000 mm 1,3 UV-I 506 W/m 3,3 C 14,5 C 19,3 km/h (3 Bft) 95,59 %
16.04.2019 16:29 17,2 C 0,0 C 25,6 C 39 % 1016,6 hPa 0,0 l/m 14,1 km/h (3 Bft) NO 41 3 min 0,000 mm 1,3 UV-I 498 W/m 3,1 C 14,1 C 20,9 km/h (4 Bft) 93,75 %
16.04.2019 16:30 17,2 C 0,0 C 25,0 C 40 % 1016,6 hPa 0,0 l/m 13,4 km/h (3 Bft) N-NO 28 1 min 0,000 mm 1,3 UV-I 492 W/m 3,5 C 14,3 C 17,7 km/h (3 Bft) 96,67 %
16.04.2019 16:32 17,2 C 0,0 C 25,0 C 41 % 1016,6 hPa 0,0 l/m 13,6 km/h (3 Bft) NO 50 2 min 0,000 mm 1,3 UV-I 487 W/m 3,8 C 14,3 C 19,3 km/h (3 Bft) 90,24 %
16.04.2019 16:34 17,3 C 0,0 C 26,7 C 41 % 1016,5 hPa 0,0 l/m 10,0 km/h (2 Bft) O-NO 62 2 min 0,000 mm 1,2 UV-I 481 W/m 3,9 C 15,7 C 20,9 km/h (4 Bft) 91,49 %
16.04.2019 16:36 17,6 C 0,0 C 27,2 C 38 % 1016,6 hPa 0,0 l/m 12,2 km/h (2 Bft) O-NO 71 2 min 0,000 mm 1,2 UV-I 478 W/m 3,1 C 15,2 C 17,7 km/h (3 Bft) 94,00 %
16.04.2019 16:38 17,6 C 0,0 C 27,2 C 38 % 1016,6 hPa 0,0 l/m 11,6 km/h (2 Bft) O-NO 67 2 min 0,000 mm 1,2 UV-I 476 W/m 3,1 C 15,4 C 16,1 km/h (3 Bft) 95,12 %
16.04.2019 16:40 17,4 C 0,0 C 27,8 C 35 % 1016,6 hPa 0,0 l/m 10,8 km/h (2 Bft) O 92 2 min 0,000 mm 1,2 UV-I 472 W/m 1,8 C 15,5 C 16,1 km/h (3 Bft) 92,00 %
16.04.2019 16:42 17,4 C 0,0 C 28,3 C 36 % 1016,6 hPa 0,0 l/m 9,9 km/h (2 Bft) O-NO 69 2 min 0,000 mm 1,2 UV-I 468 W/m 2,2 C 15,8 C 14,5 km/h (3 Bft) 92,11 %
16.04.2019 16:44 17,4 C 0,0 C 28,9 C 36 % 1016,6 hPa 0,0 l/m 7,8 km/h (2 Bft) O 90 2 min 0,000 mm 1,1 UV-I 462 W/m 2,2 C 16,7 C 14,5 km/h (3 Bft) 94,34 %
16.04.2019 16:46 17,4 C 0,0 C 29,4 C 36 % 1016,6 hPa 0,0 l/m 8,1 km/h (2 Bft) O-SO 117 2 min 0,000 mm 1,1 UV-I 458 W/m 2,2 C 16,6 C 11,3 km/h (2 Bft) 93,18 %
16.04.2019 16:48 17,4 C 0,0 C 29,4 C 37 % 1016,6 hPa 0,0 l/m 11,2 km/h (2 Bft) O-NO 73 2 min 0,000 mm 1,1 UV-I 451 W/m 2,6 C 15,3 C 19,3 km/h (3 Bft) 94,64 %
16.04.2019 16:50 17,5 C 0,0 C 28,9 C 35 % 1016,6 hPa 0,0 l/m 12,4 km/h (3 Bft) O-NO 69 2 min 0,000 mm 1,1 UV-I 447 W/m 1,9 C 15,0 C 16,1 km/h (3 Bft) 95,74 %
16.04.2019 16:52 17,5 C 0,0 C 29,4 C 39 % 1016,6 hPa 0,0 l/m 6,4 km/h (2 Bft) O-NO 69 2 min 0,000 mm 1,1 UV-I 441 W/m 3,4 C 17,5 C 11,3 km/h (2 Bft) 96,67 %
16.04.2019 16:54 17,6 C 0,0 C 29,4 C 37 % 1016,5 hPa 0,0 l/m 5,3 km/h (1 Bft) N-NO 22 2 min 0,000 mm 1,0 UV-I 436 W/m 2,7 C 17,6 C 8,0 km/h (2 Bft) 95,31 %
16.04.2019 16:56 17,7 C 0,0 C 29,4 C 37 % 1016,6 hPa 0,0 l/m 8,6 km/h (2 Bft) NO 44 2 min 0,000 mm 1,0 UV-I 430 W/m 2,8 C 16,7 C 16,1 km/h (3 Bft) 97,56 %
16.04.2019 16:58 17,7 C 0,0 C 28,3 C 39 % 1016,6 hPa 0,0 l/m 17,7 km/h (3 Bft) NO 55 2 min 0,000 mm 1,0 UV-I 426 W/m 3,6 C 13,8 C 24,1 km/h (4 Bft) 98,11 %
16.04.2019 17:00 17,6 C 0,0 C 27,2 C 39 % 1016,6 hPa 0,0 l/m 13,3 km/h (3 Bft) O-NO 63 2 min 0,356 mm 1,0 UV-I 420 W/m 3,5 C 14,8 C 17,7 km/h (3 Bft) 100,00 %
16.04.2019 17:02 17,4 C 0,0 C 27,2 C 36 % 1016,6 hPa 0,0 l/m 11,4 km/h (2 Bft) O 85 2 min 0,000 mm 0,9 UV-I 415 W/m 2,2 C 15,2 C 17,7 km/h (3 Bft) 100,00 %
16.04.2019 17:04 17,3 C 0,0 C 27,2 C 35 % 1016,6 hPa 0,0 l/m 9,8 km/h (2 Bft) O 88 2 min 0,000 mm 0,9 UV-I 408 W/m 1,7 C 15,7 C 14,5 km/h (3 Bft) 100,00 %
16.04.2019 17:06 17,3 C 0,0 C 27,2 C 35 % 1016,6 hPa 0,0 l/m 13,2 km/h (3 Bft) O 79 2 min 0,000 mm 0,9 UV-I 402 W/m 1,7 C 14,5 C 16,1 km/h (3 Bft) 100,00 %
16.04.2019 17:08 17,2 C 0,0 C 26,7 C 34 % 1016,6 hPa 0,0 l/m 10,9 km/h (2 Bft) O-SO 107 2 min 0,000 mm 0,9 UV-I 397 W/m 1,2 C 15,2 C 17,7 km/h (3 Bft) 100,00 %
16.04.2019 17:10 17,2 C 0,0 C 27,2 C 36 % 1016,5 hPa 0,0 l/m 7,0 km/h (2 Bft) O 96 2 min 0,000 mm 0,8 UV-I 391 W/m 2,0 C 16,9 C 12,9 km/h (3 Bft) 100,00 %
16.04.2019 17:12 17,2 C 0,0 C 27,2 C 36 % 1016,6 hPa 0,0 l/m 10,4 km/h (2 Bft) O 85 2 min 0,000 mm 0,8 UV-I 385 W/m 2,0 C 15,4 C 16,1 km/h (3 Bft) 100,00 %
16.04.2019 17:14 17,3 C 0,0 C 27,2 C 37 % 1016,5 hPa 0,0 l/m 13,9 km/h (3 Bft) O 98 2 min 0,000 mm 0,8 UV-I 379 W/m 2,5 C 14,3 C 16,1 km/h (3 Bft) 100,00 %
16.04.2019 17:16 17,4 C 0,0 C 26,7 C 35 % 1016,6 hPa 0,0 l/m 17,3 km/h (3 Bft) O-NO 66 2 min 0,000 mm 0,8 UV-I 374 W/m 1,8 C 13,5 C 24,1 km/h (4 Bft) 100,00 %
16.04.2019 17:18 17,4 C 0,0 C 26,1 C 36 % 1016,6 hPa 0,0 l/m 11,1 km/h (2 Bft) O-SO 103 2 min 0,000 mm 0,8 UV-I 367 W/m 2,2 C 15,4 C 17,7 km/h (3 Bft) 100,00 %
16.04.2019 17:20 17,4 C 0,0 C 25,6 C 35 % 1016,5 hPa 0,0 l/m 12,9 km/h (3 Bft) O 94 2 min 0,000 mm 0,7 UV-I 362 W/m 1,8 C 14,7 C 17,7 km/h (3 Bft) 100,00 %
16.04.2019 17:22 17,3 C 0,0 C 26,1 C 34 % 1016,6 hPa 0,0 l/m 9,9 km/h (2 Bft) O 96 2 min 0,000 mm 0,7 UV-I 357 W/m 1,3 C 15,7 C 17,7 km/h (3 Bft) 100,00 %
16.04.2019 17:24 17,2 C 0,0 C 26,1 C 35 % 1016,6 hPa 0,0 l/m 8,7 km/h (2 Bft) O 96 2 min 0,000 mm 0,7 UV-I 351 W/m 1,6 C 16,1 C 14,5 km/h (3 Bft) 100,00 %
16.04.2019 17:26 17,3 C 0,0 C 25,6 C 36 % 1016,6 hPa 0,0 l/m 11,9 km/h (2 Bft) O-SO 104 2 min 0,000 mm 0,7 UV-I 344 W/m 2,1 C 15,0 C 17,7 km/h (3 Bft) 96,23 %
16.04.2019 17:28 17,3 C 0,0 C 25,6 C 36 % 1016,6 hPa 0,0 l/m 13,1 km/h (3 Bft) O 100 2 min 0,000 mm 0,7 UV-I 338 W/m 2,1 C 14,6 C 17,7 km/h (3 Bft) 97,56 %
16.04.2019 17:30 17,3 C 0,0 C 25,0 C 36 % 1016,6 hPa 0,0 l/m 14,9 km/h (3 Bft) O 101 2 min 0,000 mm 0,7 UV-I 332 W/m 2,1 C 14,0 C 19,3 km/h (3 Bft) 100,00 %
16.04.2019 17:32 17,3 C 0,0 C 23,9 C 34 % 1016,7 hPa 0,0 l/m 11,9 km/h (2 Bft) O 96 2 min 0,000 mm 0,6 UV-I 329 W/m 1,3 C 15,0 C 17,7 km/h (3 Bft) 100,00 %
16.04.2019 17:34 17,4 C 0,0 C 24,4 C 35 % 1016,7 hPa 0,0 l/m 9,8 km/h (2 Bft) O-SO 105 2 min 0,000 mm 0,6 UV-I 322 W/m 1,8 C 15,8 C 14,5 km/h (3 Bft) 100,00 %
16.04.2019 17:36 17,4 C 0,0 C 23,9 C 35 % 1016,7 hPa 0,0 l/m 9,4 km/h (2 Bft) O 82 2 min 0,000 mm 0,6 UV-I 317 W/m 1,8 C 16,0 C 12,9 km/h (3 Bft) 100,00 %
16.04.2019 17:38 17,4 C 0,0 C 22,8 C 36 % 1016,7 hPa 0,0 l/m 14,2 km/h (3 Bft) O 80 2 min 0,000 mm 0,6 UV-I 310 W/m 2,2 C 14,3 C 19,3 km/h (3 Bft) 100,00 %
16.04.2019 17:40 17,3 C 0,0 C 21,1 C 36 % 1016,7 hPa 0,0 l/m 11,9 km/h (2 Bft) O-NO 66 2 min 0,000 mm 0,6 UV-I 305 W/m 2,1 C 15,0 C 16,1 km/h (3 Bft) 100,00 %
16.04.2019 17:42 17,3 C 0,0 C 21,1 C 36 % 1016,7 hPa 0,0 l/m 10,5 km/h (2 Bft) NO 48 2 min 0,000 mm 0,5 UV-I 299 W/m 2,1 C 15,5 C 14,5 km/h (3 Bft) 100,00 %
16.04.2019 17:44 17,3 C 0,0 C 21,1 C 36 % 1016,7 hPa 0,0 l/m 9,8 km/h (2 Bft) O-NO 64 2 min 0,000 mm 0,5 UV-I 294 W/m 2,1 C 15,7 C 14,5 km/h (3 Bft) 100,00 %
16.04.2019 17:46 17,2 C 0,0 C 20,0 C 37 % 1016,7 hPa 0,0 l/m 12,5 km/h (3 Bft) O 98 2 min 0,000 mm 0,5 UV-I 287 W/m 2,4 C 14,6 C 16,1 km/h (3 Bft) 98,00 %
16.04.2019 17:48 17,2 C 0,0 C 19,4 C 36 % 1016,7 hPa 0,0 l/m 12,3 km/h (3 Bft) O-NO 68 2 min 0,000 mm 0,5 UV-I 281 W/m 2,0 C 14,7 C 16,1 km/h (3 Bft) 100,00 %
16.04.2019 17:50 17,2 C 0,0 C 18,9 C 36 % 1016,7 hPa 0,0 l/m 12,3 km/h (3 Bft) O-NO 74 2 min 0,000 mm 0,5 UV-I 275 W/m 2,0 C 14,7 C 19,3 km/h (3 Bft) 100,00 %
16.04.2019 17:52 17,2 C 0,0 C 18,9 C 36 % 1016,7 hPa 0,0 l/m 11,9 km/h (2 Bft) O-NO 78 2 min 0,000 mm 0,5 UV-I 268 W/m 2,0 C 14,8 C 20,9 km/h (4 Bft) 100,00 %
16.04.2019 17:54 17,1 C 0,0 C 18,3 C 36 % 1016,7 hPa 0,0 l/m 17,7 km/h (3 Bft) O 95 2 min 0,000 mm 0,1 UV-I 262 W/m 1,9 C 13,0 C 22,5 km/h (4 Bft) 97,87 %
16.04.2019 17:56 16,9 C 0,0 C 17,8 C 36 % 1016,7 hPa 0,0 l/m 11,8 km/h (2 Bft) O 88 2 min 0,000 mm 0,0 UV-I 256 W/m 1,7 C 14,5 C 19,3 km/h (3 Bft) 98,00 %
16.04.2019 17:58 16,9 C 0,0 C 17,2 C 35 % 1016,7 hPa 0,0 l/m 10,1 km/h (2 Bft) O-NO 78 2 min 0,000 mm 0,0 UV-I 250 W/m 1,3 C 15,2 C 14,5 km/h (3 Bft) 100,00 %
16.04.2019 18:00 16,8 C 0,0 C 17,2 C 36 % 1016,7 hPa 0,0 l/m 6,7 km/h (2 Bft) O-SO 109 2 min 0,000 mm 0,0 UV-I 245 W/m 1,7 C 16,7 C 11,3 km/h (2 Bft) 100,00 %
16.04.2019 18:02 16,9 C 0,0 C 16,7 C 37 % 1016,8 hPa 0,0 l/m 14,2 km/h (3 Bft) O 98 2 min 0,279 mm 0,0 UV-I 239 W/m 2,1 C 13,7 C 19,3 km/h (3 Bft) 94,00 %
16.04.2019 18:04 16,9 C 0,0 C 16,7 C 36 % 1016,8 hPa 0,0 l/m 14,2 km/h (3 Bft) O-SO 108 2 min 0,000 mm 0,0 UV-I 232 W/m 1,7 C 13,7 C 19,3 km/h (3 Bft) 98,00 %
16.04.2019 18:06 16,9 C 0,0 C 16,1 C 35 % 1016,8 hPa 0,0 l/m 13,3 km/h (3 Bft) O 83 2 min 0,000 mm 0,0 UV-I 228 W/m 1,3 C 14,0 C 19,3 km/h (3 Bft) 95,74 %
16.04.2019 18:08 16,8 C 0,0 C 16,1 C 34 % 1016,8 hPa 0,0 l/m 13,9 km/h (3 Bft) O-NO 71 2 min 0,000 mm 0,0 UV-I 221 W/m 0,9 C 13,7 C 17,7 km/h (3 Bft) 94,00 %
16.04.2019 18:10 16,8 C 0,0 C 15,6 C 35 % 1016,8 hPa 0,0 l/m 12,8 km/h (3 Bft) O 93 2 min 0,000 mm 0,0 UV-I 215 W/m 1,3 C 14,1 C 17,7 km/h (3 Bft) 97,87 %
16.04.2019 18:12 16,7 C 0,0 C 15,6 C 35 % 1016,8 hPa 0,0 l/m 13,0 km/h (3 Bft) O 81 2 min 0,000 mm 0,0 UV-I 209 W/m 1,2 C 13,9 C 19,3 km/h (3 Bft) 94,87 %
16.04.2019 18:14 16,7 C 0,0 C 15,6 C 35 % 1016,9 hPa 0,0 l/m 8,2 km/h (2 Bft) O 88 2 min 0,000 mm 0,0 UV-I 205 W/m 1,2 C 15,8 C 12,9 km/h (3 Bft) 93,62 %
16.04.2019 18:16 16,8 C 0,0 C 15,0 C 36 % 1016,8 hPa 0,0 l/m 10,9 km/h (2 Bft) O 89 2 min 0,000 mm 0,0 UV-I 200 W/m 1,7 C 14,8 C 14,5 km/h (3 Bft) 92,00 %
16.04.2019 18:18 16,7 C 0,0 C 15,0 C 37 % 1016,9 hPa 0,0 l/m 15,5 km/h (3 Bft) O-NO 68 2 min 0,000 mm 0,0 UV-I 195 W/m 1,9 C 13,1 C 20,9 km/h (4 Bft) 96,00 %
16.04.2019 18:20 16,6 C 0,0 C 15,0 C 36 % 1016,9 hPa 0,0 l/m 15,0 km/h (3 Bft) O-NO 77 2 min 0,000 mm 0,0 UV-I 190 W/m 1,5 C 13,1 C 19,3 km/h (3 Bft) 95,74 %
16.04.2019 18:22 16,6 C 0,0 C 15,0 C 37 % 1016,9 hPa 0,0 l/m 13,1 km/h (3 Bft) O-NO 69 2 min 0,000 mm 0,0 UV-I 185 W/m 1,9 C 13,7 C 17,7 km/h (3 Bft) 94,74 %
16.04.2019 18:24 16,6 C 0,0 C 15,0 C 36 % 1016,9 hPa 0,0 l/m 10,8 km/h (2 Bft) O 83 2 min 0,000 mm 0,0 UV-I 180 W/m 1,5 C 14,6 C 16,1 km/h (3 Bft) 95,74 %
16.04.2019 18:26 16,5 C 0,0 C 14,4 C 37 % 1016,8 hPa 0,0 l/m 11,1 km/h (2 Bft) O-NO 71 2 min 0,000 mm 0,0 UV-I 173 W/m 1,8 C 14,3 C 16,1 km/h (3 Bft) 95,74 %
16.04.2019 18:28 16,4 C 0,0 C 14,4 C 37 % 1016,9 hPa 0,0 l/m 13,7 km/h (3 Bft) O 91 2 min 0,000 mm 0,0 UV-I 168 W/m 1,7 C 13,3 C 19,3 km/h (3 Bft) 93,62 %
16.04.2019 18:30 16,3 C 0,0 C 14,4 C 37 % 1016,9 hPa 0,0 l/m 14,4 km/h (3 Bft) O 83 2 min 0,000 mm 0,0 UV-I 162 W/m 1,6 C 13,0 C 19,3 km/h (3 Bft) 98,00 %
16.04.2019 18:32 16,3 C 0,0 C 14,4 C 37 % 1016,9 hPa 0,0 l/m 11,9 km/h (2 Bft) O-NO 62 2 min 0,000 mm 0,0 UV-I 158 W/m 1,6 C 13,8 C 16,1 km/h (3 Bft) 97,87 %
16.04.2019 18:34 16,3 C 0,0 C 14,4 C 38 % 1016,9 hPa 0,0 l/m 9,8 km/h (2 Bft) O 90 2 min 0,000 mm 0,0 UV-I 155 W/m 2,0 C 14,6 C 14,5 km/h (3 Bft) 95,74 %
16.04.2019 18:36 16,2 C 0,0 C 14,4 C 38 % 1016,9 hPa 0,0 l/m 9,8 km/h (2 Bft) O-NO 71 2 min 0,000 mm 0,0 UV-I 150 W/m 1,9 C 14,5 C 12,9 km/h (3 Bft) 97,87 %
16.04.2019 18:38 16,2 C 0,0 C 13,9 C 39 % 1016,9 hPa 0,0 l/m 7,6 km/h (2 Bft) O 94 2 min 0,000 mm 0,0 UV-I 146 W/m 2,2 C 15,6 C 11,3 km/h (2 Bft) 100,00 %
16.04.2019 18:40 16,2 C 0,0 C 13,9 C 38 % 1016,9 hPa 0,0 l/m 9,6 km/h (2 Bft) O 95 2 min 0,000 mm 0,0 UV-I 142 W/m 1,9 C 14,6 C 14,5 km/h (3 Bft) 100,00 %
16.04.2019 18:42 16,2 C 0,0 C 13,9 C 38 % 1016,9 hPa 0,0 l/m 12,2 km/h (2 Bft) O 101 2 min 0,000 mm 0,0 UV-I 138 W/m 1,9 C 13,6 C 16,1 km/h (3 Bft) 100,00 %
16.04.2019 18:44 16,1 C 0,0 C 13,9 C 39 % 1017,0 hPa 0,0 l/m 11,7 km/h (2 Bft) O-SO 103 2 min 0,000 mm 0,0 UV-I 134 W/m 2,1 C 13,7 C 17,7 km/h (3 Bft) 100,00 %
16.04.2019 18:46 16,1 C 0,0 C 13,9 C 40 % 1017,0 hPa 0,0 l/m 11,4 km/h (2 Bft) O-SO 120 2 min 0,000 mm 0,0 UV-I 129 W/m 2,5 C 13,8 C 16,1 km/h (3 Bft) 98,00 %
16.04.2019 18:48 15,9 C 0,0 C 13,9 C 40 % 1017,0 hPa 0,0 l/m 15,1 km/h (3 Bft) SO 129 2 min 0,000 mm 0,0 UV-I 123 W/m 2,3 C 12,3 C 22,5 km/h (4 Bft) 100,00 %
16.04.2019 18:50 15,9 C 0,0 C 13,9 C 41 % 1017,0 hPa 0,0 l/m 14,3 km/h (3 Bft) O 92 2 min 0,000 mm 0,0 UV-I 120 W/m 2,7 C 12,5 C 20,9 km/h (4 Bft) 94,00 %
16.04.2019 18:52 15,8 C 0,0 C 13,9 C 40 % 1017,0 hPa 0,0 l/m 15,2 km/h (3 Bft) O-SO 105 2 min 0,000 mm 0,0 UV-I 116 W/m 2,2 C 12,1 C 20,9 km/h (4 Bft) 97,87 %
16.04.2019 18:54 15,7 C 0,0 C 13,9 C 40 % 1017,0 hPa 0,0 l/m 14,8 km/h (3 Bft) O 94 2 min 0,000 mm 0,0 UV-I 110 W/m 2,1 C 12,1 C 20,9 km/h (4 Bft) 100,00 %
16.04.2019 18:56 15,7 C 0,0 C 13,9 C 41 % 1017,0 hPa 0,0 l/m 14,4 km/h (3 Bft) O 94 2 min 0,000 mm 0,0 UV-I 105 W/m 2,5 C 12,2 C 19,3 km/h (3 Bft) 100,00 %
16.04.2019 18:58 15,6 C 0,0 C 13,3 C 41 % 1017,0 hPa 0,0 l/m 12,4 km/h (3 Bft) O-SO 107 2 min 0,000 mm 0,0 UV-I 100 W/m 2,4 C 12,8 C 17,7 km/h (3 Bft) 100,00 %
16.04.2019 19:00 15,5 C 0,0 C 13,3 C 41 % 1017,1 hPa 0,0 l/m 13,8 km/h (3 Bft) O-SO 102 2 min 0,203 mm 0,0 UV-I 85 W/m 2,3 C 12,2 C 20,9 km/h (4 Bft) 100,00 %
16.04.2019 19:02 15,3 C 0,0 C 13,3 C 42 % 1017,1 hPa 0,0 l/m 11,3 km/h (2 Bft) O-SO 102 0 min 0,000 mm 0,0 UV-I 71 W/m 2,5 C 12,9 C 17,7 km/h (3 Bft) 97,87 %
16.04.2019 19:04 15,3 C 0,0 C 12,8 C 42 % 1017,1 hPa 0,0 l/m 14,2 km/h (3 Bft) O 96 2 min 0,000 mm 0,0 UV-I 78 W/m 2,5 C 11,8 C 19,3 km/h (3 Bft) 95,74 %
16.04.2019 19:06 15,2 C 0,0 C 12,8 C 42 % 1017,1 hPa 0,0 l/m 9,6 km/h (2 Bft) O 88 0 min 0,000 mm 0,0 UV-I 57 W/m 2,4 C 13,5 C 17,7 km/h (3 Bft) 100,00 %
16.04.2019 19:08 15,2 C 0,0 C 12,8 C 43 % 1017,2 hPa 0,0 l/m 10,7 km/h (2 Bft) O 91 2 min 0,000 mm 0,0 UV-I 76 W/m 2,7 C 13,0 C 16,1 km/h (3 Bft) 100,00 %
16.04.2019 19:10 15,1 C 0,0 C 12,8 C 42 % 1017,2 hPa 0,0 l/m 11,1 km/h (2 Bft) O 82 2 min 0,000 mm 0,0 UV-I 76 W/m 2,3 C 12,8 C 17,7 km/h (3 Bft) 100,00 %
16.04.2019 19:12 15,1 C 0,0 C 12,2 C 42 % 1017,2 hPa 0,0 l/m 14,3 km/h (3 Bft) O-SO 110 2 min 0,000 mm 0,0 UV-I 72 W/m 2,3 C 11,5 C 19,3 km/h (3 Bft) 100,00 %
16.04.2019 19:14 14,9 C 0,0 C 12,2 C 42 % 1017,2 hPa 0,0 l/m 10,9 km/h (2 Bft) O 87 2 min 0,000 mm 0,0 UV-I 60 W/m 2,1 C 12,6 C 19,3 km/h (3 Bft) 100,00 %
16.04.2019 19:16 14,9 C 0,0 C 12,2 C 43 % 1017,2 hPa 0,0 l/m 8,5 km/h (2 Bft) O-SO 106 0 min 0,000 mm 0,0 UV-I 49 W/m 2,4 C 13,7 C 14,5 km/h (3 Bft) 100,00 %
16.04.2019 19:18 14,8 C 0,0 C 11,7 C 43 % 1017,2 hPa 0,0 l/m 10,2 km/h (2 Bft) O 97 2 min 0,000 mm 0,0 UV-I 54 W/m 2,3 C 12,8 C 14,5 km/h (3 Bft) 97,87 %
16.04.2019 19:20 14,7 C 0,0 C 11,7 C 44 % 1017,2 hPa 0,0 l/m 12,0 km/h (2 Bft) O-NO 76 2 min 0,000 mm 0,0 UV-I 55 W/m 2,6 C 11,9 C 16,1 km/h (3 Bft) 100,00 %
16.04.2019 19:22 14,6 C 0,0 C 11,7 C 44 % 1017,2 hPa 0,0 l/m 9,2 km/h (2 Bft) O 83 0 min 0,000 mm 0,0 UV-I 40 W/m 2,5 C 13,1 C 12,9 km/h (3 Bft) 100,00 %
16.04.2019 19:24 14,5 C 0,0 C 11,1 C 44 % 1017,3 hPa 0,0 l/m 9,3 km/h (2 Bft) O 80 0 min 0,000 mm 0,0 UV-I 34 W/m 2,4 C 12,9 C 12,9 km/h (3 Bft) 98,00 %
16.04.2019 19:26 14,3 C 0,0 C 11,1 C 45 % 1017,3 hPa 0,0 l/m 11,0 km/h (2 Bft) O-SO 117 0 min 0,000 mm 0,0 UV-I 35 W/m 2,5 C 11,9 C 17,7 km/h (3 Bft) 100,00 %
16.04.2019 19:28 14,3 C 0,0 C 10,6 C 45 % 1017,3 hPa 0,0 l/m 10,5 km/h (2 Bft) O 91 0 min 0,000 mm 0,0 UV-I 32 W/m 2,5 C 12,1 C 14,5 km/h (3 Bft) 100,00 %
16.04.2019 19:30 14,2 C 0,0 C 10,6 C 45 % 1017,3 hPa 0,0 l/m 10,4 km/h (2 Bft) O 101 0 min 0,000 mm 0,0 UV-I 30 W/m 2,4 C 12,0 C 14,5 km/h (3 Bft) 100,00 %
16.04.2019 19:32 14,1 C 0,0 C 10,6 C 45 % 1017,3 hPa 0,0 l/m 10,1 km/h (2 Bft) O 90 2 min 0,000 mm 0,0 UV-I 28 W/m 2,4 C 12,1 C 16,1 km/h (3 Bft) 100,00 %
16.04.2019 19:34 14,0 C 0,0 C 10,0 C 45 % 1017,3 hPa 0,0 l/m 9,0 km/h (2 Bft) O-SO 109 0 min 0,000 mm 0,0 UV-I 24 W/m 2,3 C 12,5 C 14,5 km/h (3 Bft) 95,83 %
16.04.2019 19:36 13,9 C 0,0 C 10,0 C 46 % 1017,5 hPa 0,0 l/m 9,6 km/h (2 Bft) O 98 0 min 0,000 mm 0,0 UV-I 19 W/m 2,5 C 12,1 C 16,1 km/h (3 Bft) 97,87 %
16.04.2019 19:39 13,8 C 0,0 C 10,0 C 47 % 1017,5 hPa 0,0 l/m 10,5 km/h (2 Bft) O-SO 104 0 min 0,000 mm 0,0 UV-I 15 W/m 2,7 C 11,6 C 14,5 km/h (3 Bft) 97,14 %
16.04.2019 19:40 13,7 C 0,0 C 10,0 C 46 % 1017,5 hPa 0,0 l/m 9,4 km/h (2 Bft) O-SO 104 0 min 0,000 mm 0,0 UV-I 14 W/m 2,3 C 12,0 C 12,9 km/h (3 Bft) 100,00 %
16.04.2019 19:42 13,7 C 0,0 C 10,0 C 47 % 1017,5 hPa 0,0 l/m 10,4 km/h (2 Bft) O 97 2 min 0,000 mm 0,0 UV-I 14 W/m 2,6 C 11,5 C 14,5 km/h (3 Bft) 94,00 %
16.04.2019 19:44 13,6 C 0,0 C 9,4 C 46 % 1017,5 hPa 0,0 l/m 9,0 km/h (2 Bft) O-SO 117 2 min 0,000 mm 0,0 UV-I 14 W/m 2,2 C 12,1 C 12,9 km/h (3 Bft) 97,87 %
16.04.2019 19:46 13,6 C 0,0 C 9,4 C 46 % 1017,5 hPa 0,0 l/m 9,0 km/h (2 Bft) O 98 0 min 0,000 mm 0,0 UV-I 12 W/m 2,2 C 12,1 C 14,5 km/h (3 Bft) 97,87 %
16.04.2019 19:48 13,5 C 0,0 C 9,4 C 47 % 1017,5 hPa 0,0 l/m 9,2 km/h (2 Bft) O-SO 108 0 min 0,000 mm 0,0 UV-I 11 W/m 2,4 C 11,9 C 12,9 km/h (3 Bft) 95,74 %
16.04.2019 19:50 13,3 C 0,0 C 9,4 C 47 % 1017,6 hPa 0,0 l/m 8,9 km/h (2 Bft) O 101 0 min 0,000 mm 0,0 UV-I 10 W/m 2,2 C 11,8 C 12,9 km/h (3 Bft) 97,87 %
16.04.2019 19:52 13,2 C 0,0 C 9,4 C 48 % 1017,6 hPa 0,0 l/m 9,4 km/h (2 Bft) O 85 0 min 0,000 mm 0,0 UV-I 9 W/m 2,4 C 11,4 C 12,9 km/h (3 Bft) 98,00 %
16.04.2019 19:54 13,1 C 0,0 C 8,9 C 49 % 1017,6 hPa 0,0 l/m 8,8 km/h (2 Bft) O 85 0 min 0,000 mm 0,0 UV-I 7 W/m 2,6 C 11,7 C 12,9 km/h (3 Bft) 95,74 %
16.04.2019 19:56 12,9 C 0,0 C 8,9 C 49 % 1017,6 hPa 0,0 l/m 7,1 km/h (2 Bft) O 85 0 min 0,000 mm 0,0 UV-I 7 W/m 2,5 C 12,5 C 12,9 km/h (3 Bft) 98,00 %
16.04.2019 19:58 12,8 C 0,0 C 8,3 C 49 % 1017,7 hPa 0,0 l/m 5,9 km/h (2 Bft) O 88 0 min 0,000 mm 0,0 UV-I 7 W/m 2,4 C 12,8 C 9,7 km/h (2 Bft) 95,12 %
16.04.2019 20:00 12,7 C 0,0 C 8,3 C 49 % 1017,7 hPa 0,0 l/m 7,3 km/h (2 Bft) O 90 0 min 0,000 mm 0,0 UV-I 5 W/m 2,3 C 12,1 C 11,3 km/h (2 Bft) 95,74 %
16.04.2019 20:02 12,6 C 0,0 C 8,3 C 50 % 1017,7 hPa 0,0 l/m 6,2 km/h (2 Bft) O-SO 106 0 min 0,102 mm 0,0 UV-I 5 W/m 2,5 C 12,6 C 9,7 km/h (2 Bft) 97,62 %
16.04.2019 20:04 12,6 C 0,0 C 8,3 C 50 % 1017,7 hPa 0,0 l/m 6,3 km/h (2 Bft) O 94 0 min 0,000 mm 0,0 UV-I 5 W/m 2,5 C 12,6 C 9,7 km/h (2 Bft) 97,87 %
16.04.2019 20:06 12,6 C 0,0 C 8,3 C 49 % 1017,8 hPa 0,0 l/m 7,6 km/h (2 Bft) O-SO 113 0 min 0,000 mm 0,0 UV-I 5 W/m 2,2 C 11,8 C 12,9 km/h (3 Bft) 98,00 %
16.04.2019 20:08 12,4 C 0,0 C 8,3 C 50 % 1017,8 hPa 0,0 l/m 6,8 km/h (2 Bft) O 100 0 min 0,000 mm 0,0 UV-I 0 W/m 2,3 C 12,1 C 11,3 km/h (2 Bft) 98,11 %
16.04.2019 20:10 12,3 C 0,0 C 7,8 C 50 % 1017,9 hPa 0,0 l/m 6,8 km/h (2 Bft) O 90 0 min 0,000 mm 0,0 UV-I 0 W/m 2,2 C 12,0 C 11,3 km/h (2 Bft) 97,73 %
16.04.2019 20:12 12,3 C 0,0 C 7,8 C 51 % 1017,8 hPa 0,0 l/m 7,6 km/h (2 Bft) SO 133 0 min 0,000 mm 0,0 UV-I 0 W/m 2,5 C 11,5 C 11,3 km/h (2 Bft) 95,74 %
16.04.2019 20:14 12,2 C 0,0 C 8,3 C 51 % 1017,9 hPa 0,0 l/m 8,4 km/h (2 Bft) O 86 0 min 0,000 mm 0,0 UV-I 0 W/m 2,4 C 10,9 C 11,3 km/h (2 Bft) 95,74 %
16.04.2019 20:16 12,2 C 0,0 C 8,3 C 51 % 1017,9 hPa 0,0 l/m 9,3 km/h (2 Bft) O-SO 107 0 min 0,000 mm 0,0 UV-I 0 W/m 2,4 C 10,4 C 16,1 km/h (3 Bft) 97,87 %
16.04.2019 20:18 12,2 C 0,0 C 8,3 C 51 % 1017,9 hPa 0,0 l/m 8,7 km/h (2 Bft) O 91 0 min 0,000 mm 0,0 UV-I 0 W/m 2,4 C 10,7 C 12,9 km/h (3 Bft) 95,74 %
16.04.2019 20:20 12,2 C 0,0 C 8,3 C 51 % 1017,9 hPa 0,0 l/m 9,4 km/h (2 Bft) O-NO 78 0 min 0,000 mm 0,0 UV-I 0 W/m 2,4 C 10,3 C 12,9 km/h (3 Bft) 98,00 %
16.04.2019 20:22 12,1 C 0,0 C 8,3 C 51 % 1017,9 hPa 0,0 l/m 9,5 km/h (2 Bft) O-NO 76 0 min 0,000 mm 0,0 UV-I 0 W/m 2,3 C 10,2 C 16,1 km/h (3 Bft) 97,87 %
16.04.2019 20:24 11,9 C 0,0 C 8,3 C 52 % 1017,9 hPa 0,0 l/m 9,6 km/h (2 Bft) O 98 0 min 0,000 mm 0,0 UV-I 0 W/m 2,4 C 9,9 C 12,9 km/h (3 Bft) 97,87 %
16.04.2019 20:26 11,9 C 0,0 C 7,8 C 52 % 1018,0 hPa 0,0 l/m 11,1 km/h (2 Bft) O 92 0 min 0,000 mm 0,0 UV-I 0 W/m 2,4 C 9,1 C 14,5 km/h (3 Bft) 97,14 %
16.04.2019 20:28 11,8 C 0,0 C 7,8 C 52 % 1018,0 hPa 0,0 l/m 11,5 km/h (2 Bft) O 86 0 min 0,000 mm 0,0 UV-I 0 W/m 2,3 C 8,8 C 14,5 km/h (3 Bft) 96,00 %
16.04.2019 20:30 11,8 C 0,0 C 7,8 C 52 % 1018,0 hPa 0,0 l/m 11,5 km/h (2 Bft) O 82 0 min 0,000 mm 0,0 UV-I 0 W/m 2,3 C 8,8 C 14,5 km/h (3 Bft) 95,74 %
16.04.2019 20:32 11,7 C 0,0 C 7,8 C 52 % 1018,0 hPa 0,0 l/m 10,0 km/h (2 Bft) O 101 0 min 0,000 mm 0,0 UV-I 0 W/m 2,2 C 9,5 C 14,5 km/h (3 Bft) 91,49 %
16.04.2019 20:34 11,7 C 0,0 C 7,8 C 53 % 1018,0 hPa 0,0 l/m 11,2 km/h (2 Bft) O 95 0 min 0,000 mm 0,0 UV-I 0 W/m 2,4 C 8,9 C 14,5 km/h (3 Bft) 95,74 %
16.04.2019 20:36 11,7 C 0,0 C 8,3 C 53 % 1018,0 hPa 0,0 l/m 11,1 km/h (2 Bft) O 85 0 min 0,000 mm 0,0 UV-I 0 W/m 2,4 C 8,9 C 16,1 km/h (3 Bft) 95,74 %
16.04.2019 20:38 11,7 C 0,0 C 8,3 C 53 % 1018,1 hPa 0,0 l/m 11,2 km/h (2 Bft) O 82 0 min 0,000 mm 0,0 UV-I 0 W/m 2,4 C 8,9 C 16,1 km/h (3 Bft) 98,00 %
16.04.2019 20:40 11,7 C 0,0 C 8,3 C 53 % 1018,1 hPa 0,0 l/m 9,5 km/h (2 Bft) O 94 0 min 0,000 mm 0,0 UV-I 0 W/m 2,4 C 9,7 C 14,5 km/h (3 Bft) 100,00 %
16.04.2019 20:42 11,6 C 0,0 C 8,3 C 53 % 1018,1 hPa 0,0 l/m 6,9 km/h (2 Bft) O-NO 75 0 min 0,000 mm 0,0 UV-I 0 W/m 2,4 C 11,3 C 11,3 km/h (2 Bft) 91,49 %
16.04.2019 20:44 11,6 C 0,0 C 7,8 C 53 % 1018,1 hPa 0,0 l/m 8,7 km/h (2 Bft) O 84 0 min 0,000 mm 0,0 UV-I 0 W/m 2,4 C 10,1 C 12,9 km/h (3 Bft) 97,87 %
16.04.2019 20:46 11,5 C 0,0 C 7,8 C 53 % 1018,2 hPa 0,0 l/m 9,1 km/h (2 Bft) O 97 0 min 0,000 mm 0,0 UV-I 0 W/m 2,3 C 9,8 C 12,9 km/h (3 Bft) 93,62 %
16.04.2019 20:48 11,6 C 0,0 C 7,8 C 53 % 1018,2 hPa 0,0 l/m 8,0 km/h (2 Bft) O-SO 104 0 min 0,000 mm 0,0 UV-I 0 W/m 2,4 C 10,5 C 14,5 km/h (3 Bft) 95,83 %
16.04.2019 20:50 11,7 C 0,0 C 7,8 C 53 % 1018,3 hPa 0,0 l/m 9,8 km/h (2 Bft) O 84 0 min 0,000 mm 0,0 UV-I 0 W/m 2,4 C 9,6 C 12,9 km/h (3 Bft) 97,37 %
16.04.2019 20:52 11,7 C 0,0 C 7,8 C 53 % 1018,4 hPa 0,0 l/m 9,2 km/h (2 Bft) O 89 0 min 0,000 mm 0,0 UV-I 0 W/m 2,4 C 9,9 C 12,9 km/h (3 Bft) 97,87 %
16.04.2019 20:54 11,7 C 0,0 C 7,8 C 53 % 1018,4 hPa 0,0 l/m 10,2 km/h (2 Bft) O 92 0 min 0,000 mm 0,0 UV-I 0 W/m 2,4 C 9,4 C 12,9 km/h (3 Bft) 97,87 %
16.04.2019 20:56 11,7 C 0,0 C 7,2 C 52 % 1018,4 hPa 0,0 l/m 10,1 km/h (2 Bft) O 97 0 min 0,000 mm 0,0 UV-I 0 W/m 2,2 C 9,4 C 12,9 km/h (3 Bft) 96,00 %
16.04.2019 20:58 11,7 C 0,0 C 7,2 C 52 % 1018,5 hPa 0,0 l/m 10,0 km/h (2 Bft) O 94 0 min 0,000 mm 0,0 UV-I 0 W/m 2,2 C 9,5 C 14,5 km/h (3 Bft) 95,74 %
16.04.2019 21:00 11,7 C 0,0 C 7,8 C 52 % 1018,4 hPa 0,0 l/m 9,6 km/h (2 Bft) O 100 0 min 0,000 mm 0,0 UV-I 0 W/m 2,2 C 9,7 C 12,9 km/h (3 Bft) 93,62 %
16.04.2019 21:02 11,7 C 0,0 C 7,8 C 52 % 1018,5 hPa 0,0 l/m 10,7 km/h (2 Bft) O 92 0 min 0,051 mm 0,0 UV-I 0 W/m 2,2 C 9,1 C 14,5 km/h (3 Bft) 96,00 %
16.04.2019 21:04 11,6 C 0,0 C 7,8 C 53 % 1018,5 hPa 0,0 l/m 10,2 km/h (2 Bft) O-NO 78 0 min 0,000 mm 0,0 UV-I 0 W/m 2,4 C 9,3 C 16,1 km/h (3 Bft) 94,74 %
16.04.2019 21:06 11,4 C 0,0 C 7,8 C 53 % 1018,5 hPa 0,0 l/m 9,9 km/h (2 Bft) O 90 0 min 0,000 mm 0,0 UV-I 0 W/m 2,2 C 9,2 C 14,5 km/h (3 Bft) 93,62 %
16.04.2019 21:08 11,4 C 0,0 C 7,8 C 53 % 1018,5 hPa 0,0 l/m 9,0 km/h (2 Bft) O 96 0 min 0,000 mm 0,0 UV-I 0 W/m 2,2 C 9,7 C 14,5 km/h (3 Bft) 94,00 %
16.04.2019 21:10 11,3 C 0,0 C 7,8 C 53 % 1018,5 hPa 0,0 l/m 10,6 km/h (2 Bft) O-SO 107 0 min 0,000 mm 0,0 UV-I 0 W/m 2,1 C 8,7 C 17,7 km/h (3 Bft) 95,74 %
16.04.2019 21:12 11,4 C 0,0 C 7,8 C 53 % 1018,6 hPa 0,0 l/m 10,6 km/h (2 Bft) O-SO 113 0 min 0,000 mm 0,0 UV-I 0 W/m 2,2 C 8,8 C 12,9 km/h (3 Bft) 93,62 %
16.04.2019 21:14 11,3 C 0,0 C 7,8 C 53 % 1018,6 hPa 0,0 l/m 9,7 km/h (2 Bft) O 93 0 min 0,000 mm 0,0 UV-I 0 W/m 2,1 C 9,2 C 12,9 km/h (3 Bft) 93,62 %
16.04.2019 21:16 11,3 C 0,0 C 7,8 C 53 % 1018,6 hPa 0,0 l/m 12,1 km/h (2 Bft) O-SO 105 0 min 0,000 mm 0,0 UV-I 0 W/m 2,1 C 8,0 C 17,7 km/h (3 Bft) 96,00 %
16.04.2019 21:19 11,3 C 0,0 C 7,8 C 53 % 1018,7 hPa 0,0 l/m 12,0 km/h (2 Bft) O 79 0 min 0,000 mm 0,0 UV-I 0 W/m 2,1 C 8,0 C 17,7 km/h (3 Bft) 97,18 %
16.04.2019 21:20 11,4 C 0,0 C 7,8 C 53 % 1018,7 hPa 0,0 l/m 10,4 km/h (2 Bft) O 98 0 min 0,000 mm 0,0 UV-I 0 W/m 2,2 C 8,9 C 12,9 km/h (3 Bft) 95,65 %
16.04.2019 21:22 11,4 C 0,0 C 7,8 C 53 % 1018,7 hPa 0,0 l/m 10,6 km/h (2 Bft) O-SO 106 0 min 0,000 mm 0,0 UV-I 0 W/m 2,2 C 8,8 C 14,5 km/h (3 Bft) 97,87 %
16.04.2019 21:24 11,4 C 0,0 C 7,8 C 52 % 1018,7 hPa 0,0 l/m 10,8 km/h (2 Bft) O-SO 103 0 min 0,000 mm 0,0 UV-I 0 W/m 1,9 C 8,7 C 14,5 km/h (3 Bft) 97,92 %
16.04.2019 21:26 11,4 C 0,0 C 7,8 C 52 % 1018,7 hPa 0,0 l/m 11,4 km/h (2 Bft) O 96 0 min 0,000 mm 0,0 UV-I 0 W/m 1,9 C 8,4 C 16,1 km/h (3 Bft) 97,87 %
16.04.2019 21:28 11,3 C 0,0 C 7,8 C 53 % 1018,7 hPa 0,0 l/m 12,0 km/h (2 Bft) O 89 0 min 0,000 mm 0,0 UV-I 0 W/m 2,1 C 8,0 C 16,1 km/h (3 Bft) 97,14 %
16.04.2019 21:30 11,2 C 0,0 C 7,8 C 54 % 1018,8 hPa 0,0 l/m 10,7 km/h (2 Bft) O 98 0 min 0,000 mm 0,0 UV-I 0 W/m 2,2 C 8,5 C 14,5 km/h (3 Bft) 96,36 %
16.04.2019 21:32 11,0 C 0,0 C 7,8 C 54 % 1018,8 hPa 0,0 l/m 9,2 km/h (2 Bft) O 95 0 min 0,000 mm 0,0 UV-I 0 W/m 2,1 C 9,2 C 14,5 km/h (3 Bft) 98,00 %
16.04.2019 21:34 10,8 C 0,0 C 7,2 C 55 % 1018,8 hPa 0,0 l/m 7,6 km/h (2 Bft) O 86 0 min 0,000 mm 0,0 UV-I 0 W/m 2,1 C 10,0 C 11,3 km/h (2 Bft) 93,62 %
16.04.2019 21:36 10,7 C 0,0 C 7,2 C 55 % 1018,8 hPa 0,0 l/m 5,5 km/h (1 Bft) O-NO 69 0 min 0,000 mm 0,0 UV-I 0 W/m 2,0 C 10,7 C 8,0 km/h (2 Bft) 97,87 %
16.04.2019 21:38 10,6 C 0,0 C 7,2 C 55 % 1018,8 hPa 0,0 l/m 6,8 km/h (2 Bft) O 82 0 min 0,000 mm 0,0 UV-I 0 W/m 1,9 C 10,3 C 11,3 km/h (2 Bft) 97,87 %
16.04.2019 21:40 10,4 C 0,0 C 6,7 C 56 % 1018,8 hPa 0,0 l/m 7,6 km/h (2 Bft) O 79 0 min 0,000 mm 0,0 UV-I 0 W/m 2,0 C 9,5 C 12,9 km/h (3 Bft) 100,00 %
16.04.2019 21:42 10,3 C 0,0 C 6,7 C 56 % 1018,8 hPa 0,0 l/m 8,3 km/h (2 Bft) O-NO 58 0 min 0,000 mm 0,0 UV-I 0 W/m 1,9 C 9,0 C 12,9 km/h (3 Bft) 97,87 %
16.04.2019 21:44 10,3 C 0,0 C 6,7 C 56 % 1018,8 hPa 0,0 l/m 9,0 km/h (2 Bft) O-NO 76 0 min 0,000 mm 0,0 UV-I 0 W/m 1,9 C 8,5 C 16,1 km/h (3 Bft) 100,00 %
16.04.2019 21:46 10,2 C 0,0 C 6,7 C 56 % 1019,0 hPa 0,0 l/m 6,2 km/h (2 Bft) O 89 0 min 0,000 mm 0,0 UV-I 0 W/m 1,8 C 10,2 C 11,3 km/h (2 Bft) 100,00 %
16.04.2019 21:48 10,1 C 0,0 C 6,7 C 57 % 1018,9 hPa 0,0 l/m 5,9 km/h (2 Bft) O-NO 57 0 min 0,000 mm 0,0 UV-I 0 W/m 2,0 C 10,1 C 11,3 km/h (2 Bft) 97,87 %
16.04.2019 21:50 9,9 C 0,0 C 6,1 C 57 % 1018,9 hPa 0,0 l/m 6,1 km/h (2 Bft) O-NO 74 0 min 0,000 mm 0,0 UV-I 0 W/m 1,8 C 9,9 C 8,0 km/h (2 Bft) 100,00 %
16.04.2019 21:52 9,9 C 0,0 C 6,1 C 58 % 1018,9 hPa 0,0 l/m 5,5 km/h (1 Bft) O-NO 75 0 min 0,000 mm 0,0 UV-I 0 W/m 2,0 C 9,9 C 8,0 km/h (2 Bft) 100,00 %
16.04.2019 21:54 9,8 C 0,0 C 6,1 C 58 % 1019,0 hPa 0,0 l/m 5,6 km/h (1 Bft) O-NO 63 0 min 0,000 mm 0,0 UV-I 0 W/m 1,9 C 9,8 C 8,0 km/h (2 Bft) 100,00 %
16.04.2019 21:56 9,8 C 0,0 C 6,1 C 58 % 1019,1 hPa 0,0 l/m 5,0 km/h (1 Bft) O-NO 75 0 min 0,000 mm 0,0 UV-I 0 W/m 1,9 C 9,8 C 6,4 km/h (2 Bft) 100,00 %
16.04.2019 21:58 9,9 C 0,0 C 6,1 C 57 % 1019,0 hPa 0,0 l/m 4,9 km/h (1 Bft) O-NO 65 0 min 0,000 mm 0,0 UV-I 0 W/m 1,8 C 9,9 C 8,0 km/h (2 Bft) 100,00 %
16.04.2019 22:00 9,8 C 0,0 C 5,6 C 57 % 1019,1 hPa 0,0 l/m 5,6 km/h (1 Bft) O-NO 64 0 min 0,000 mm 0,0 UV-I 0 W/m 1,7 C 9,8 C 9,7 km/h (2 Bft) 97,92 %
16.04.2019 22:02 9,9 C 0,0 C 5,6 C 57 % 1019,0 hPa 0,0 l/m 6,7 km/h (2 Bft) O 80 0 min 0,050 mm 0,0 UV-I 0 W/m 1,8 C 9,7 C 9,7 km/h (2 Bft) 100,00 %
16.04.2019 22:04 9,9 C 0,0 C 6,1 C 57 % 1019,0 hPa 0,0 l/m 6,8 km/h (2 Bft) O-NO 77 0 min 0,000 mm 0,0 UV-I 0 W/m 1,8 C 9,6 C 11,3 km/h (2 Bft) 94,87 %
16.04.2019 22:06 9,9 C 0,0 C 6,1 C 57 % 1019,0 hPa 0,0 l/m 7,9 km/h (2 Bft) O-NO 67 0 min 0,000 mm 0,0 UV-I 0 W/m 1,8 C 8,8 C 11,3 km/h (2 Bft) 97,87 %
16.04.2019 22:08 9,9 C 0,0 C 6,1 C 57 % 1019,1 hPa 0,0 l/m 7,2 km/h (2 Bft) O-NO 68 0 min 0,000 mm 0,0 UV-I 0 W/m 1,8 C 9,3 C 11,3 km/h (2 Bft) 97,87 %
16.04.2019 22:10 9,9 C 0,0 C 6,1 C 57 % 1019,1 hPa 0,0 l/m 7,3 km/h (2 Bft) O-NO 69 0 min 0,000 mm 0,0 UV-I 0 W/m 1,8 C 9,2 C 11,3 km/h (2 Bft) 95,74 %
16.04.2019 22:12 9,9 C 0,0 C 5,6 C 57 % 1019,1 hPa 0,0 l/m 7,2 km/h (2 Bft) O-NO 70 0 min 0,000 mm 0,0 UV-I 0 W/m 1,8 C 9,3 C 11,3 km/h (2 Bft) 97,87 %
16.04.2019 22:14 9,9 C 0,0 C 6,1 C 57 % 1019,1 hPa 0,0 l/m 7,1 km/h (2 Bft) O 82 0 min 0,000 mm 0,0 UV-I 0 W/m 1,8 C 9,4 C 12,9 km/h (3 Bft) 96,00 %
16.04.2019 22:16 9,9 C 0,0 C 6,1 C 57 % 1019,1 hPa 0,0 l/m 7,3 km/h (2 Bft) O-NO 76 0 min 0,000 mm 0,0 UV-I 0 W/m 1,8 C 9,2 C 12,9 km/h (3 Bft) 92,00 %
16.04.2019 22:18 9,9 C 0,0 C 6,1 C 57 % 1019,1 hPa 0,0 l/m 8,7 km/h (2 Bft) NO 56 0 min 0,000 mm 0,0 UV-I 0 W/m 1,8 C 8,3 C 12,9 km/h (3 Bft) 94,00 %
16.04.2019 22:20 9,9 C 0,0 C 6,1 C 57 % 1019,1 hPa 0,0 l/m 8,7 km/h (2 Bft) O-NO 65 0 min 0,000 mm 0,0 UV-I 0 W/m 1,8 C 8,3 C 12,9 km/h (3 Bft) 91,49 %
16.04.2019 22:22 9,9 C 0,0 C 6,1 C 57 % 1019,2 hPa 0,0 l/m 8,8 km/h (2 Bft) O 81 0 min 0,000 mm 0,0 UV-I 0 W/m 1,8 C 8,2 C 12,9 km/h (3 Bft) 95,74 %
16.04.2019 22:24 9,9 C 0,0 C 6,7 C 57 % 1019,2 hPa 0,0 l/m 9,2 km/h (2 Bft) O-NO 76 0 min 0,000 mm 0,0 UV-I 0 W/m 1,8 C 8,0 C 12,9 km/h (3 Bft) 95,74 %
16.04.2019 22:26 9,8 C 0,0 C 6,7 C 57 % 1019,2 hPa 0,0 l/m 8,3 km/h (2 Bft) O-NO 71 0 min 0,000 mm 0,0 UV-I 0 W/m 1,7 C 8,4 C 12,9 km/h (3 Bft) 95,74 %
16.04.2019 22:29 9,7 C 0,0 C 6,7 C 57 % 1019,2 hPa 0,0 l/m 6,9 km/h (2 Bft) O-NO 63 0 min 0,000 mm 0,0 UV-I 0 W/m 1,6 C 9,3 C 11,3 km/h (2 Bft) 94,59 %
16.04.2019 22:30 9,6 C 0,0 C 6,1 C 58 % 1019,2 hPa 0,0 l/m 4,6 km/h (1 Bft) O-NO 61 0 min 0,000 mm 0,0 UV-I 0 W/m 1,8 C 9,6 C 6,4 km/h (2 Bft) 81,82 %
16.04.2019 22:32 9,4 C 0,0 C 6,1 C 59 % 1019,2 hPa 0,0 l/m 6,9 km/h (2 Bft) O-NO 62 0 min 0,000 mm 0,0 UV-I 0 W/m 1,8 C 9,0 C 11,3 km/h (2 Bft) 93,62 %
16.04.2019 22:34 9,3 C 0,0 C 6,1 C 59 % 1019,2 hPa 0,0 l/m 5,8 km/h (2 Bft) O 84 0 min 0,000 mm 0,0 UV-I 0 W/m 1,7 C 9,3 C 9,7 km/h (2 Bft) 96,23 %
16.04.2019 22:36 9,3 C 0,0 C 6,1 C 59 % 1019,2 hPa 0,0 l/m 6,3 km/h (2 Bft) O-NO 76 0 min 0,000 mm 0,0 UV-I 0 W/m 1,7 C 9,3 C 8,0 km/h (2 Bft) 94,87 %
16.04.2019 22:38 9,2 C 0,0 C 5,6 C 59 % 1019,2 hPa 0,0 l/m 5,0 km/h (1 Bft) NO 40 0 min 0,000 mm 0,0 UV-I 0 W/m 1,6 C 9,2 C 8,0 km/h (2 Bft) 95,74 %
16.04.2019 22:40 9,1 C 0,0 C 5,6 C 60 % 1019,2 hPa 0,0 l/m 6,6 km/h (2 Bft) O-NO 62 0 min 0,000 mm 0,0 UV-I 0 W/m 1,8 C 9,0 C 8,0 km/h (2 Bft) 95,74 %
16.04.2019 22:42 8,9 C 0,0 C 5,6 C 60 % 1019,3 hPa 0,0 l/m 6,6 km/h (2 Bft) O-NO 57 0 min 0,000 mm 0,0 UV-I 0 W/m 1,6 C 8,8 C 9,7 km/h (2 Bft) 100,00 %
16.04.2019 22:44 8,7 C 0,0 C 5,0 C 61 % 1019,2 hPa 0,0 l/m 6,9 km/h (2 Bft) NO 53 0 min 0,000 mm 0,0 UV-I 0 W/m 1,6 C 8,3 C 8,0 km/h (2 Bft) 95,74 %
16.04.2019 22:46 8,7 C 0,0 C 5,0 C 61 % 1019,3 hPa 0,0 l/m 4,9 km/h (1 Bft) O-NO 61 0 min 0,000 mm 0,0 UV-I 0 W/m 1,6 C 8,7 C 6,4 km/h (2 Bft) 100,00 %
16.04.2019 22:48 8,7 C 0,0 C 4,4 C 61 % 1019,3 hPa 0,0 l/m 5,0 km/h (1 Bft) O-NO 67 0 min 0,000 mm 0,0 UV-I 0 W/m 1,6 C 8,7 C 8,0 km/h (2 Bft) 100,00 %
16.04.2019 22:50 8,8 C 0,0 C 4,4 C 60 % 1019,3 hPa 0,0 l/m 4,5 km/h (1 Bft) O-NO 70 0 min 0,000 mm 0,0 UV-I 0 W/m 1,5 C 8,8 C 6,4 km/h (2 Bft) 100,00 %
16.04.2019 22:52 9,0 C 0,0 C 4,4 C 60 % 1019,4 hPa 0,0 l/m 4,2 km/h (1 Bft) O-NO 69 0 min 0,000 mm 0,0 UV-I 0 W/m 1,7 C 9,0 C 4,8 km/h (1 Bft) 98,00 %
16.04.2019 22:54 9,1 C 0,0 C 4,4 C 59 % 1019,3 hPa 0,0 l/m 5,2 km/h (1 Bft) O-NO 69 0 min 0,000 mm 0,0 UV-I 0 W/m 1,5 C 9,1 C 6,4 km/h (2 Bft) 98,00 %
16.04.2019 22:56 9,2 C 0,0 C 4,4 C 59 % 1019,4 hPa 0,0 l/m 5,2 km/h (1 Bft) O-NO 76 0 min 0,000 mm 0,0 UV-I 0 W/m 1,6 C 9,2 C 6,4 km/h (2 Bft) 95,12 %
16.04.2019 22:58 9,3 C 0,0 C 4,4 C 58 % 1019,3 hPa 0,0 l/m 4,8 km/h (1 Bft) O-NO 70 0 min 0,000 mm 0,0 UV-I 0 W/m 1,5 C 9,3 C 6,4 km/h (2 Bft) 97,87 %
16.04.2019 23:00 9,3 C 0,0 C 4,4 C 58 % 1019,3 hPa 0,0 l/m 5,9 km/h (2 Bft) O 86 0 min 0,026 mm 0,0 UV-I 0 W/m 1,5 C 9,3 C 11,3 km/h (2 Bft) 100,00 %
16.04.2019 23:02 9,3 C 0,0 C 4,4 C 59 % 1019,4 hPa 0,0 l/m 5,8 km/h (2 Bft) O 86 0 min 0,000 mm 0,0 UV-I 0 W/m 1,7 C 9,3 C 8,0 km/h (2 Bft) 100,00 %
16.04.2019 23:04 9,2 C 0,0 C 5,0 C 59 % 1019,4 hPa 0,0 l/m 7,0 km/h (2 Bft) O-SO 108 0 min 0,000 mm 0,0 UV-I 0 W/m 1,6 C 8,8 C 9,7 km/h (2 Bft) 96,00 %
16.04.2019 23:06 9,2 C 0,0 C 5,0 C 59 % 1019,4 hPa 0,0 l/m 8,5 km/h (2 Bft) O 100 0 min 0,000 mm 0,0 UV-I 0 W/m 1,6 C 7,7 C 11,3 km/h (2 Bft) 100,00 %
16.04.2019 23:08 9,2 C 0,0 C 5,0 C 59 % 1019,4 hPa 0,0 l/m 7,6 km/h (2 Bft) O-NO 78 0 min 0,000 mm 0,0 UV-I 0 W/m 1,6 C 8,3 C 11,3 km/h (2 Bft) 100,00 %
16.04.2019 23:10 9,2 C 0,0 C 5,6 C 58 % 1019,5 hPa 0,0 l/m 6,6 km/h (2 Bft) O-NO 78 0 min 0,000 mm 0,0 UV-I 0 W/m 1,4 C 9,1 C 9,7 km/h (2 Bft) 95,74 %
16.04.2019 23:12 9,3 C 0,0 C 5,6 C 58 % 1019,5 hPa 0,0 l/m 6,5 km/h (2 Bft) O-NO 78 0 min 0,000 mm 0,0 UV-I 0 W/m 1,5 C 9,3 C 11,3 km/h (2 Bft) 100,00 %
16.04.2019 23:14 9,2 C 0,0 C 5,6 C 58 % 1019,5 hPa 0,0 l/m 5,9 km/h (2 Bft) O-NO 69 0 min 0,000 mm 0,0 UV-I 0 W/m 1,4 C 9,2 C 8,0 km/h (2 Bft) 97,92 %
16.04.2019 23:16 9,0 C 0,0 C 5,0 C 59 % 1019,5 hPa 0,0 l/m 5,6 km/h (1 Bft) NO 49 0 min 0,000 mm 0,0 UV-I 0 W/m 1,4 C 9,0 C 8,0 km/h (2 Bft) 93,62 %
16.04.2019 23:18 8,8 C 0,0 C 5,0 C 60 % 1019,5 hPa 0,0 l/m 5,9 km/h (2 Bft) O-NO 71 0 min 0,000 mm 0,0 UV-I 0 W/m 1,5 C 8,8 C 8,0 km/h (2 Bft) 97,87 %
16.04.2019 23:20 8,8 C 0,0 C 5,0 C 59 % 1019,5 hPa 0,0 l/m 7,2 km/h (2 Bft) O-NO 74 0 min 0,000 mm 0,0 UV-I 0 W/m 1,2 C 8,2 C 9,7 km/h (2 Bft) 100,00 %
16.04.2019 23:22 8,8 C 0,0 C 5,0 C 59 % 1019,5 hPa 0,0 l/m 6,7 km/h (2 Bft) O-NO 71 0 min 0,000 mm 0,0 UV-I 0 W/m 1,2 C 8,6 C 8,0 km/h (2 Bft) 100,00 %
16.04.2019 23:24 8,9 C 0,0 C 5,0 C 59 % 1019,5 hPa 0,0 l/m 6,7 km/h (2 Bft) O-NO 63 0 min 0,000 mm 0,0 UV-I 0 W/m 1,3 C 8,7 C 9,7 km/h (2 Bft) 95,74 %
16.04.2019 23:26 8,9 C 0,0 C 5,6 C 59 % 1019,5 hPa 0,0 l/m 5,8 km/h (2 Bft) O-NO 71 0 min 0,000 mm 0,0 UV-I 0 W/m 1,3 C 8,9 C 9,7 km/h (2 Bft) 100,00 %
16.04.2019 23:28 8,9 C 0,0 C 5,0 C 58 % 1019,5 hPa 0,0 l/m 5,9 km/h (2 Bft) O-NO 72 0 min 0,000 mm 0,0 UV-I 0 W/m 1,1 C 8,9 C 8,0 km/h (2 Bft) 100,00 %
16.04.2019 23:30 8,8 C 0,0 C 5,0 C 58 % 1019,6 hPa 0,0 l/m 4,5 km/h (1 Bft) O 82 0 min 0,000 mm 0,0 UV-I 0 W/m 1,0 C 8,8 C 6,4 km/h (2 Bft) 95,74 %
16.04.2019 23:32 8,8 C 0,0 C 5,0 C 59 % 1019,6 hPa 0,0 l/m 5,1 km/h (1 Bft) O-NO 69 0 min 0,000 mm 0,0 UV-I 0 W/m 1,2 C 8,8 C 9,7 km/h (2 Bft) 97,87 %
16.04.2019 23:34 8,6 C 0,0 C 5,0 C 59 % 1019,5 hPa 0,0 l/m 4,5 km/h (1 Bft) O-NO 62 0 min 0,000 mm 0,0 UV-I 0 W/m 1,0 C 8,6 C 6,4 km/h (2 Bft) 97,87 %
16.04.2019 23:36 8,6 C 0,0 C 5,0 C 59 % 1019,5 hPa 0,0 l/m 5,0 km/h (1 Bft) O 82 0 min 0,000 mm 0,0 UV-I 0 W/m 1,0 C 8,6 C 8,0 km/h (2 Bft) 97,87 %
16.04.2019 23:38 8,4 C 0,0 C 5,0 C 60 % 1019,6 hPa 0,0 l/m 4,7 km/h (1 Bft) O-NO 60 0 min 0,000 mm 0,0 UV-I 0 W/m 1,1 C 8,4 C 6,4 km/h (2 Bft) 97,87 %
16.04.2019 23:40 8,3 C 0,0 C 5,0 C 60 % 1019,6 hPa 0,0 l/m 5,1 km/h (1 Bft) NO 55 0 min 0,000 mm 0,0 UV-I 0 W/m 1,0 C 8,3 C 8,0 km/h (2 Bft) 95,74 %
16.04.2019 23:42 8,2 C 0,0 C 4,4 C 60 % 1019,6 hPa 0,0 l/m 4,3 km/h (1 Bft) O-NO 68 0 min 0,000 mm 0,0 UV-I 0 W/m 0,9 C 8,2 C 6,4 km/h (2 Bft) 95,74 %
16.04.2019 23:44 8,1 C 0,0 C 3,9 C 60 % 1019,6 hPa 0,0 l/m 3,3 km/h (1 Bft) O-NO 69 0 min 0,000 mm 0,0 UV-I 0 W/m 0,8 C 8,1 C 4,8 km/h (1 Bft) 95,74 %
16.04.2019 23:46 7,9 C 0,0 C 3,3 C 61 % 1019,6 hPa 0,0 l/m 2,8 km/h (1 Bft) O-NO 70 0 min 0,000 mm 0,0 UV-I 0 W/m 0,9 C 7,9 C 3,2 km/h (1 Bft) 100,00 %
16.04.2019 23:48 8,0 C 0,0 C 3,3 C 61 % 1019,6 hPa 0,0 l/m 3,1 km/h (1 Bft) O-NO 71 0 min 0,000 mm 0,0 UV-I 0 W/m 0,9 C 8,0 C 4,8 km/h (1 Bft) 96,15 %
16.04.2019 23:50 8,0 C 0,0 C 2,8 C 61 % 1019,7 hPa 0,0 l/m 2,8 km/h (1 Bft) O-NO 71 0 min 0,000 mm 0,0 UV-I 0 W/m 0,9 C 8,0 C 4,8 km/h (1 Bft) 98,00 %
16.04.2019 23:52 7,9 C 0,0 C 2,8 C 61 % 1019,7 hPa 0,0 l/m 2,8 km/h (1 Bft) O-NO 71 0 min 0,000 mm 0,0 UV-I 0 W/m 0,9 C 7,9 C 4,8 km/h (1 Bft) 97,22 %
16.04.2019 23:54 7,9 C 0,0 C 2,2 C 61 % 1019,6 hPa 0,0 l/m 3,3 km/h (1 Bft) O-NO 60 0 min 0,000 mm 0,0 UV-I 0 W/m 0,9 C 7,9 C 4,8 km/h (1 Bft) 96,55 %
16.04.2019 23:56 7,8 C 0,0 C 2,2 C 61 % 1019,6 hPa 0,0 l/m 3,5 km/h (1 Bft) NO 52 0 min 0,000 mm 0,0 UV-I 0 W/m 0,8 C 7,8 C 4,8 km/h (1 Bft) 100,00 %
16.04.2019 23:59 7,7 C 0,0 C 1,7 C 62 % 1019,6 hPa 0,0 l/m 3,3 km/h (1 Bft) O-NO 66 0 min 0,000 mm 0,0 UV-I 0 W/m 0,9 C 7,7 C 6,4 km/h (2 Bft) 98,57 %
_ Min-Zeit 06:16 00:00 05:48 17:08 16:34 - 23:46 - - - - - - 05:36 03:38 23:46 22:30
Minimum _ 3,6 C 0,0 C 1,1 C 34 % 1016,5 hPa - 2,8 km/h (1 Bft) - - - - - - -2,0 C -3,8 C 3,2 km/h (1 Bft) 81,82 %
_ Max-Zeit 16:58 00:00 15:24 06:14 23:50 00:00 03:38 - - 12:10 14:00 13:14 12:58 14:36 16:54 02:48 00:44
Maximum _ 17,8 C 0,0 C 31,1 C 67 % 1019,7 hPa 0,0 l/m 21,6 km/h
O-SO (4 Bft)
- - 4 min 0,483 mm 3,1 UV-I 795 W/m 5,1 C 17,6 C 29,0 km/h
O-NO (5 Bft)
100,00 %
Durchschnitt _ 10,2 C 0,0 C 13,2 C 53 % 1017,9 hPa #0,0 l/m 11,9 km/h (2 Bft) O-NO - #12:42 h #4,623 mm 1,9 UV-I 448 W/m 0,8 C 6,9 C 17,3 km/h (3 Bft) 97,34 %